<?xml version='1.0' encoding='UTF-8'?><gpx version="1.1" creator="JPX - https://github.com/jenetics/jpx" xmlns="http://www.topografix.com/GPX/1/1"><trk><trkseg><trkpt lat="48.08960707439573" lon="2.591755135386499"><ele>80.0</ele><time>2026-04-08T16:55:31.998Z</time></trkpt><trkpt lat="48.089666105187106" lon="2.5918341529863747"><ele>80.0</ele><time>2026-04-08T16:55:32.998Z</time></trkpt><trkpt lat="48.089765498039895" lon="2.59199618189915"><ele>80.0</ele><time>2026-04-08T16:55:33.998Z</time></trkpt><trkpt lat="48.08984286892526" lon="2.592104854747888"><ele>80.0</ele><time>2026-04-08T16:55:34.998Z</time></trkpt><trkpt lat="48.089918896648726" lon="2.5922246079863163"><ele>80.0</ele><time>2026-04-08T16:55:35.998Z</time></trkpt><trkpt lat="48.089992515509266" lon="2.5923417240255473"><ele>80.0</ele><time>2026-04-08T16:55:36.998Z</time></trkpt><trkpt lat="48.09008982659186" lon="2.5925027694789153"><ele>80.0</ele><time>2026-04-08T16:55:37.998Z</time></trkpt><trkpt lat="48.09018808016413" lon="2.5926678858612915"><ele>80.0</ele><time>2026-04-08T16:55:38.999Z</time></trkpt><trkpt lat="48.09026293987453" lon="2.5927865967901726"><ele>80.0</ele><time>2026-04-08T16:55:39.999Z</time></trkpt><trkpt lat="48.090326078356796" lon="2.5928828232608034"><ele>80.0</ele><time>2026-04-08T16:55:40.999Z</time></trkpt><trkpt lat="48.09038237915444" lon="2.592995200908771"><ele>80.0</ele><time>2026-04-08T16:55:41.999Z</time></trkpt><trkpt lat="48.090440625092604" lon="2.593093989754034"><ele>80.0</ele><time>2026-04-08T16:55:42.999Z</time></trkpt><trkpt lat="48.09048945298472" lon="2.593172366484063"><ele>80.0</ele><time>2026-04-08T16:55:43.999Z</time></trkpt><trkpt lat="48.09057331807594" lon="2.593216963769832"><ele>80.0</ele><time>2026-04-08T16:55:45.999Z</time></trkpt><trkpt lat="48.090616797412174" lon="2.5930601620819473"><ele>80.0</ele><time>2026-04-08T16:55:47.999Z</time></trkpt><trkpt lat="48.0905620909198" lon="2.5929594861802805"><ele>80.0</ele><time>2026-04-08T16:55:48.999Z</time></trkpt><trkpt lat="48.09049477570919" lon="2.5928751556209386"><ele>80.0</ele><time>2026-04-08T16:55:49.999Z</time></trkpt><trkpt lat="48.09041127248575" lon="2.59274350531592"><ele>80.0</ele><time>2026-04-08T16:55:50.999Z</time></trkpt><trkpt lat="48.09031056428453" lon="2.5925642139052534"><ele>80.0</ele><time>2026-04-08T16:55:52Z</time></trkpt><trkpt lat="48.090215315863375" lon="2.5923593895485686"><ele>80.0</ele><time>2026-04-08T16:55:53Z</time></trkpt><trkpt lat="48.090134019795286" lon="2.592188946407079"><ele>80.0</ele><time>2026-04-08T16:55:54Z</time></trkpt><trkpt lat="48.09005327321294" lon="2.592035369656985"><ele>80.0</ele><time>2026-04-08T16:55:54.999Z</time></trkpt><trkpt lat="48.08997841994276" lon="2.5918762502504236"><ele>80.0</ele><time>2026-04-08T16:55:55.999Z</time></trkpt><trkpt lat="48.08988905163343" lon="2.5917309650341362"><ele>80.0</ele><time>2026-04-08T16:55:56.999Z</time></trkpt><trkpt lat="48.08980175941006" lon="2.591600596499147"><ele>80.0</ele><time>2026-04-08T16:55:57.999Z</time></trkpt><trkpt lat="48.08971623495446" lon="2.591488096981678"><ele>80.0</ele><time>2026-04-08T16:55:58.999Z</time></trkpt><trkpt lat="48.08962625545258" lon="2.591382056995443"><ele>80.0</ele><time>2026-04-08T16:55:59.999Z</time></trkpt><trkpt lat="48.08953134039387" lon="2.591288306729675"><ele>80.0</ele><time>2026-04-08T16:56:00.999Z</time></trkpt><trkpt lat="48.08942702289793" lon="2.5912133190449356"><ele>80.0</ele><time>2026-04-08T16:56:01.999Z</time></trkpt><trkpt lat="48.08932350004946" lon="2.591110849023755"><ele>80.0</ele><time>2026-04-08T16:56:02.999Z</time></trkpt><trkpt lat="48.089230182415925" lon="2.5909946419158"><ele>80.0</ele><time>2026-04-08T16:56:03.999Z</time></trkpt><trkpt lat="48.08913755823513" lon="2.5909018834933475"><ele>80.0</ele><time>2026-04-08T16:56:04.999Z</time></trkpt><trkpt lat="48.08905645459143" lon="2.5908154043461358"><ele>80.0</ele><time>2026-04-08T16:56:05.999Z</time></trkpt><trkpt lat="48.08898161843929" lon="2.590733183199407"><ele>80.0</ele><time>2026-04-08T16:56:06.999Z</time></trkpt><trkpt lat="48.088897806260384" lon="2.5906601102694657"><ele>80.0</ele><time>2026-04-08T16:56:07.999Z</time></trkpt><trkpt lat="48.08883427664536" lon="2.590564919640492"><ele>80.0</ele><time>2026-04-08T16:56:08.999Z</time></trkpt><trkpt lat="48.08876571274331" lon="2.5904688158464197"><ele>80.0</ele><time>2026-04-08T16:56:09.999Z</time></trkpt><trkpt lat="48.0887041977648" lon="2.590360575267992"><ele>80.0</ele><time>2026-04-08T16:56:10.999Z</time></trkpt><trkpt lat="48.08864548220402" lon="2.5902352538410085"><ele>80.0</ele><time>2026-04-08T16:56:11.999Z</time></trkpt><trkpt lat="48.08857642897026" lon="2.5901031579608174"><ele>80.0</ele><time>2026-04-08T16:56:12.999Z</time></trkpt><trkpt lat="48.08850405204143" lon="2.589966963421336"><ele>80.0</ele><time>2026-04-08T16:56:13.999Z</time></trkpt><trkpt lat="48.088433247836015" lon="2.589839359718141"><ele>80.0</ele><time>2026-04-08T16:56:14.999Z</time></trkpt><trkpt lat="48.0883581941632" lon="2.589703348959016"><ele>80.0</ele><time>2026-04-08T16:56:15.999Z</time></trkpt><trkpt lat="48.08826586594622" lon="2.5895313594835794"><ele>80.0</ele><time>2026-04-08T16:56:16.999Z</time></trkpt><trkpt lat="48.088153826705614" lon="2.5893445920961815"><ele>80.0</ele><time>2026-04-08T16:56:17.999Z</time></trkpt><trkpt lat="48.08802793917494" lon="2.5891235760224545"><ele>80.0</ele><time>2026-04-08T16:56:18.999Z</time></trkpt><trkpt lat="48.087881770647215" lon="2.5888950216057154"><ele>80.0</ele><time>2026-04-08T16:56:19.999Z</time></trkpt><trkpt lat="48.08771862876266" lon="2.5886466828185117"><ele>80.0</ele><time>2026-04-08T16:56:20.999Z</time></trkpt><trkpt lat="48.08754956895977" lon="2.588394151303067"><ele>80.0</ele><time>2026-04-08T16:56:21.999Z</time></trkpt><trkpt lat="48.08740414570991" lon="2.5881652138913793"><ele>80.0</ele><time>2026-04-08T16:56:22.999Z</time></trkpt><trkpt lat="48.087265298902125" lon="2.5879576995823492"><ele>80.0</ele><time>2026-04-08T16:56:23.999Z</time></trkpt><trkpt lat="48.087139452899905" lon="2.5877563844988876"><ele>80.0</ele><time>2026-04-08T16:56:24.999Z</time></trkpt><trkpt lat="48.08701805439882" lon="2.5875812922697246"><ele>80.0</ele><time>2026-04-08T16:56:25.999Z</time></trkpt><trkpt lat="48.08689958985757" lon="2.587403870861761"><ele>80.0</ele><time>2026-04-08T16:56:26.999Z</time></trkpt><trkpt lat="48.08679741449596" lon="2.5872165323429774"><ele>80.0</ele><time>2026-04-08T16:56:27.999Z</time></trkpt><trkpt lat="48.086675489859346" lon="2.587055606322307"><ele>79.66666666666667</ele><time>2026-04-08T16:56:28.999Z</time></trkpt><trkpt lat="48.08656714979669" lon="2.586888661710612"><ele>79.33333333333333</ele><time>2026-04-08T16:56:29.999Z</time></trkpt><trkpt lat="48.08644194766355" lon="2.586694393567413"><ele>79.0</ele><time>2026-04-08T16:56:30.999Z</time></trkpt><trkpt lat="48.086306910566094" lon="2.586456728552921"><ele>79.0</ele><time>2026-04-08T16:56:31.999Z</time></trkpt><trkpt lat="48.08614754028572" lon="2.5862098596997214"><ele>79.0</ele><time>2026-04-08T16:56:32.999Z</time></trkpt><trkpt lat="48.08597546408763" lon="2.5859721136405467"><ele>79.0</ele><time>2026-04-08T16:56:33.999Z</time></trkpt><trkpt lat="48.085830297650084" lon="2.585751469182279"><ele>79.0</ele><time>2026-04-08T16:56:34.999Z</time></trkpt><trkpt lat="48.08569882324711" lon="2.5855484982722774"><ele>79.0</ele><time>2026-04-08T16:56:35.999Z</time></trkpt><trkpt lat="48.08557089951102" lon="2.5853482242669403"><ele>79.0</ele><time>2026-04-08T16:56:36.999Z</time></trkpt><trkpt lat="48.08542405730912" lon="2.585124547931167"><ele>79.0</ele><time>2026-04-08T16:56:37.999Z</time></trkpt><trkpt lat="48.08528986147304" lon="2.584922783622605"><ele>79.0</ele><time>2026-04-08T16:56:38.999Z</time></trkpt><trkpt lat="48.08517267210815" lon="2.5847387181759527"><ele>79.0</ele><time>2026-04-08T16:56:39.999Z</time></trkpt><trkpt lat="48.08506110502212" lon="2.58456583525382"><ele>79.0</ele><time>2026-04-08T16:56:40.999Z</time></trkpt><trkpt lat="48.084960084325004" lon="2.5844072515968635"><ele>79.0</ele><time>2026-04-08T16:56:41.999Z</time></trkpt><trkpt lat="48.08486957423552" lon="2.584267615060801"><ele>79.0</ele><time>2026-04-08T16:56:42.999Z</time></trkpt><trkpt lat="48.08478669880605" lon="2.584140324410756"><ele>79.0</ele><time>2026-04-08T16:56:43.999Z</time></trkpt><trkpt lat="48.084713136319166" lon="2.5840233995457202"><ele>79.0</ele><time>2026-04-08T16:56:44.999Z</time></trkpt><trkpt lat="48.084651397478886" lon="2.583921875853864"><ele>79.0</ele><time>2026-04-08T16:56:45.999Z</time></trkpt><trkpt lat="48.084599915816554" lon="2.583836927252767"><ele>79.0</ele><time>2026-04-08T16:56:46.999Z</time></trkpt><trkpt lat="48.08455761681447" lon="2.5837658953124336"><ele>79.0</ele><time>2026-04-08T16:56:47.999Z</time></trkpt><trkpt lat="48.084533828416994" lon="2.583574678068061"><ele>79.2</ele><time>2026-04-08T16:56:49.999Z</time></trkpt><trkpt lat="48.084558833169126" lon="2.5834519247846712"><ele>79.4</ele><time>2026-04-08T16:56:50.999Z</time></trkpt><trkpt lat="48.08455183628288" lon="2.583313998219682"><ele>79.6</ele><time>2026-04-08T16:56:51.999Z</time></trkpt><trkpt lat="48.084553605725446" lon="2.5831616066411436"><ele>79.8</ele><time>2026-04-08T16:56:52.999Z</time></trkpt><trkpt lat="48.08454705518785" lon="2.5829967222820174"><ele>80.0</ele><time>2026-04-08T16:56:53.999Z</time></trkpt><trkpt lat="48.084524226818594" lon="2.582835578621211"><ele>80.0</ele><time>2026-04-08T16:56:54.999Z</time></trkpt><trkpt lat="48.08450823481496" lon="2.5826693839803396"><ele>80.0</ele><time>2026-04-08T16:56:55.999Z</time></trkpt><trkpt lat="48.08449970089692" lon="2.5825033173906484"><ele>80.0</ele><time>2026-04-08T16:56:56.998Z</time></trkpt><trkpt lat="48.08449454358296" lon="2.5823399733561927"><ele>80.0</ele><time>2026-04-08T16:56:57.998Z</time></trkpt><trkpt lat="48.08448648231819" lon="2.5821749890200243"><ele>80.0</ele><time>2026-04-08T16:56:58.998Z</time></trkpt><trkpt lat="48.08447792845626" lon="2.5820095838334827"><ele>79.8</ele><time>2026-04-08T16:56:59.998Z</time></trkpt><trkpt lat="48.08447166210106" lon="2.5818474503021354"><ele>79.6</ele><time>2026-04-08T16:57:00.998Z</time></trkpt><trkpt lat="48.084460876951105" lon="2.5816906580163046"><ele>79.4</ele><time>2026-04-08T16:57:01.998Z</time></trkpt><trkpt lat="48.08445121411922" lon="2.5815371668653473"><ele>79.2</ele><time>2026-04-08T16:57:02.998Z</time></trkpt><trkpt lat="48.08444241707156" lon="2.5813799989511637"><ele>79.0</ele><time>2026-04-08T16:57:03.998Z</time></trkpt><trkpt lat="48.08444133412826" lon="2.5812266724809123"><ele>79.0</ele><time>2026-04-08T16:57:04.998Z</time></trkpt><trkpt lat="48.08443094191478" lon="2.5810758862106398"><ele>79.0</ele><time>2026-04-08T16:57:05.998Z</time></trkpt><trkpt lat="48.084424210453825" lon="2.5809231562037582"><ele>79.0</ele><time>2026-04-08T16:57:06.998Z</time></trkpt><trkpt lat="48.084420233399165" lon="2.5807736948809326"><ele>79.0</ele><time>2026-04-08T16:57:07.998Z</time></trkpt><trkpt lat="48.084413196451884" lon="2.5806348104937635"><ele>79.0</ele><time>2026-04-08T16:57:08.998Z</time></trkpt><trkpt lat="48.08440967675487" lon="2.580490740867633"><ele>79.0</ele><time>2026-04-08T16:57:09.998Z</time></trkpt><trkpt lat="48.08440617351262" lon="2.580339636597621"><ele>79.0</ele><time>2026-04-08T16:57:10.998Z</time></trkpt><trkpt lat="48.084394725056434" lon="2.580183632288834"><ele>79.0</ele><time>2026-04-08T16:57:11.998Z</time></trkpt><trkpt lat="48.08438429125931" lon="2.580024720550157"><ele>79.0</ele><time>2026-04-08T16:57:12.998Z</time></trkpt><trkpt lat="48.08437382655157" lon="2.5798639199706668"><ele>79.0</ele><time>2026-04-08T16:57:13.998Z</time></trkpt><trkpt lat="48.084379366853895" lon="2.5796985652168876"><ele>79.0</ele><time>2026-04-08T16:57:14.998Z</time></trkpt><trkpt lat="48.08435495537827" lon="2.5795352153132747"><ele>79.0</ele><time>2026-04-08T16:57:15.998Z</time></trkpt><trkpt lat="48.08435183457912" lon="2.579382624347149"><ele>79.0</ele><time>2026-04-08T16:57:16.998Z</time></trkpt><trkpt lat="48.08434381666787" lon="2.5792239534905765"><ele>79.0</ele><time>2026-04-08T16:57:17.998Z</time></trkpt><trkpt lat="48.0843370716705" lon="2.5790488526340094"><ele>79.0</ele><time>2026-04-08T16:57:18.998Z</time></trkpt><trkpt lat="48.084325740308785" lon="2.578866332013757"><ele>79.25</ele><time>2026-04-08T16:57:19.998Z</time></trkpt><trkpt lat="48.08431570319835" lon="2.5786692363843073"><ele>79.5</ele><time>2026-04-08T16:57:20.998Z</time></trkpt><trkpt lat="48.08430770206506" lon="2.5784882380319853"><ele>79.75</ele><time>2026-04-08T16:57:21.998Z</time></trkpt><trkpt lat="48.084300184934364" lon="2.578331891105892"><ele>80.0</ele><time>2026-04-08T16:57:22.998Z</time></trkpt><trkpt lat="48.084296456274586" lon="2.5781833861277996"><ele>80.0</ele><time>2026-04-08T16:57:23.998Z</time></trkpt><trkpt lat="48.08429039277367" lon="2.5780324482094223"><ele>80.0</ele><time>2026-04-08T16:57:24.998Z</time></trkpt><trkpt lat="48.08428093666928" lon="2.577881765576992"><ele>80.0</ele><time>2026-04-08T16:57:25.998Z</time></trkpt><trkpt lat="48.08427178280649" lon="2.5777406850605313"><ele>80.0</ele><time>2026-04-08T16:57:26.998Z</time></trkpt><trkpt lat="48.08426434570428" lon="2.577603584297556"><ele>80.0</ele><time>2026-04-08T16:57:27.998Z</time></trkpt><trkpt lat="48.08425709154145" lon="2.5774631577350013"><ele>80.0</ele><time>2026-04-08T16:57:28.998Z</time></trkpt><trkpt lat="48.08425739659984" lon="2.5773197154041174"><ele>80.0</ele><time>2026-04-08T16:57:29.998Z</time></trkpt><trkpt lat="48.08425049308785" lon="2.5771739954261954"><ele>80.0</ele><time>2026-04-08T16:57:30.998Z</time></trkpt><trkpt lat="48.084244764365444" lon="2.577015321319337"><ele>80.0</ele><time>2026-04-08T16:57:31.998Z</time></trkpt><trkpt lat="48.08423963311376" lon="2.5768944783402934"><ele>80.0</ele><time>2026-04-08T16:57:32.998Z</time></trkpt><trkpt lat="48.084227820651215" lon="2.5767761044556807"><ele>79.8</ele><time>2026-04-08T16:57:33.998Z</time></trkpt><trkpt lat="48.08423415836655" lon="2.576650667592505"><ele>79.6</ele><time>2026-04-08T16:57:34.998Z</time></trkpt><trkpt lat="48.08422924554244" lon="2.576522358018397"><ele>79.4</ele><time>2026-04-08T16:57:35.998Z</time></trkpt><trkpt lat="48.08422028561463" lon="2.576378524883622"><ele>79.2</ele><time>2026-04-08T16:57:36.998Z</time></trkpt><trkpt lat="48.084213561608856" lon="2.5762372256734674"><ele>79.0</ele><time>2026-04-08T16:57:37.998Z</time></trkpt><trkpt lat="48.08420998974078" lon="2.5760895648484765"><ele>79.0</ele><time>2026-04-08T16:57:38.998Z</time></trkpt><trkpt lat="48.08420283481213" lon="2.575945047446164"><ele>79.0</ele><time>2026-04-08T16:57:39.998Z</time></trkpt><trkpt lat="48.084196376814305" lon="2.5758084487871957"><ele>79.0</ele><time>2026-04-08T16:57:40.998Z</time></trkpt><trkpt lat="48.084188229772934" lon="2.5756736586559725"><ele>79.0</ele><time>2026-04-08T16:57:41.998Z</time></trkpt><trkpt lat="48.08417893414946" lon="2.575542569145602"><ele>79.0</ele><time>2026-04-08T16:57:42.998Z</time></trkpt><trkpt lat="48.08417200918484" lon="2.5754210578972563"><ele>79.0</ele><time>2026-04-08T16:57:43.998Z</time></trkpt><trkpt lat="48.08416673152185" lon="2.5753134212536506"><ele>78.83333333333333</ele><time>2026-04-08T16:57:45Z</time></trkpt><trkpt lat="48.08416288487445" lon="2.575213638689888"><ele>78.66666666666666</ele><time>2026-04-08T16:57:46Z</time></trkpt><trkpt lat="48.084158367271385" lon="2.575117784523037"><ele>78.5</ele><time>2026-04-08T16:57:47Z</time></trkpt><trkpt lat="48.084148988663785" lon="2.574959771270585"><ele>78.33333333333333</ele><time>2026-04-08T16:57:49Z</time></trkpt><trkpt lat="48.08415088183658" lon="2.574795257427163"><ele>78.16666666666667</ele><time>2026-04-08T16:57:51Z</time></trkpt><trkpt lat="48.08415623988011" lon="2.5746472860603276"><ele>78.0</ele><time>2026-04-08T16:57:53Z</time></trkpt><trkpt lat="48.0841296664997" lon="2.5745549316469973"><ele>78.0</ele><time>2026-04-08T16:57:56Z</time></trkpt><trkpt lat="48.08413931046093" lon="2.5746780973552688"><ele>78.0</ele><time>2026-04-08T16:58:00Z</time></trkpt><trkpt lat="48.0841428299215" lon="2.57480088060815"><ele>78.0</ele><time>2026-04-08T16:58:01Z</time></trkpt><trkpt lat="48.084145395854875" lon="2.574933170113223"><ele>78.0</ele><time>2026-04-08T16:58:02Z</time></trkpt><trkpt lat="48.08403221205401" lon="2.575178172189636"><ele>78.0</ele><time>2026-04-08T16:58:03Z</time></trkpt><trkpt lat="48.08405705746245" lon="2.5753611201294166"><ele>78.0</ele><time>2026-04-08T16:58:04Z</time></trkpt><trkpt lat="48.08409747871677" lon="2.5755911412872017"><ele>78.0</ele><time>2026-04-08T16:58:05Z</time></trkpt><trkpt lat="48.084142691538474" lon="2.575814163316788"><ele>78.0</ele><time>2026-04-08T16:58:06Z</time></trkpt><trkpt lat="48.084166370875415" lon="2.576040169891281"><ele>78.0</ele><time>2026-04-08T16:58:07Z</time></trkpt><trkpt lat="48.08417013095986" lon="2.5762212116576864"><ele>78.0</ele><time>2026-04-08T16:58:08Z</time></trkpt><trkpt lat="48.08416814780302" lon="2.576382188869285"><ele>78.0</ele><time>2026-04-08T16:58:09Z</time></trkpt><trkpt lat="48.08418142946945" lon="2.5765529459323306"><ele>78.0</ele><time>2026-04-08T16:58:10Z</time></trkpt><trkpt lat="48.08418321459629" lon="2.5766760047584496"><ele>78.0</ele><time>2026-04-08T16:58:11Z</time></trkpt><trkpt lat="48.08418192355816" lon="2.576779936656423"><ele>78.0</ele><time>2026-04-08T16:58:12Z</time></trkpt><trkpt lat="48.08421075384606" lon="2.576870370611231"><ele>78.0</ele><time>2026-04-08T16:58:13Z</time></trkpt><trkpt lat="48.08444561031065" lon="2.5769358206187474"><ele>78.0</ele><time>2026-04-08T16:58:15.999Z</time></trkpt><trkpt lat="48.08458529754337" lon="2.576936065087843"><ele>78.0</ele><time>2026-04-08T16:58:16.999Z</time></trkpt><trkpt lat="48.08468288347638" lon="2.576924853315734"><ele>78.0</ele><time>2026-04-08T16:58:17.999Z</time></trkpt><trkpt lat="48.08475419941005" lon="2.5769630822821648"><ele>78.0</ele><time>2026-04-08T16:58:18.999Z</time></trkpt><trkpt lat="48.08481656021964" lon="2.577036712149661"><ele>78.0</ele><time>2026-04-08T16:58:19.999Z</time></trkpt><trkpt lat="48.08489850818175" lon="2.577110783641646"><ele>78.0</ele><time>2026-04-08T16:58:20.999Z</time></trkpt><trkpt lat="48.084917286687904" lon="2.577240604718613"><ele>78.0</ele><time>2026-04-08T16:58:21.999Z</time></trkpt><trkpt lat="48.08497870657129" lon="2.57734815039274"><ele>78.0</ele><time>2026-04-08T16:58:22.999Z</time></trkpt><trkpt lat="48.08504179718711" lon="2.577491505276512"><ele>78.25</ele><time>2026-04-08T16:58:23.999Z</time></trkpt><trkpt lat="48.08511053117993" lon="2.5776090736874386"><ele>78.5</ele><time>2026-04-08T16:58:24.999Z</time></trkpt><trkpt lat="48.08517999898949" lon="2.5777366024906665"><ele>78.75</ele><time>2026-04-08T16:58:25.999Z</time></trkpt><trkpt lat="48.08525316690174" lon="2.577872135098808"><ele>79.0</ele><time>2026-04-08T16:58:26.999Z</time></trkpt><trkpt lat="48.08533750695556" lon="2.578009840583335"><ele>79.0</ele><time>2026-04-08T16:58:27.999Z</time></trkpt><trkpt lat="48.085410034141795" lon="2.5781392393582467"><ele>79.0</ele><time>2026-04-08T16:58:28.999Z</time></trkpt><trkpt lat="48.085491775256564" lon="2.578287489558416"><ele>79.0</ele><time>2026-04-08T16:58:29.999Z</time></trkpt><trkpt lat="48.08557395090871" lon="2.578420627159332"><ele>79.0</ele><time>2026-04-08T16:58:30.999Z</time></trkpt><trkpt lat="48.08565839563774" lon="2.5785709925027147"><ele>78.75</ele><time>2026-04-08T16:58:31.999Z</time></trkpt><trkpt lat="48.08573926728039" lon="2.578729276582833"><ele>78.5</ele><time>2026-04-08T16:58:32.999Z</time></trkpt><trkpt lat="48.08581955926831" lon="2.5788975497762427"><ele>78.25</ele><time>2026-04-08T16:58:33.999Z</time></trkpt><trkpt lat="48.085889488969386" lon="2.579023892734149"><ele>78.0</ele><time>2026-04-08T16:58:34.999Z</time></trkpt><trkpt lat="48.08599425338092" lon="2.5791511977634447"><ele>78.0</ele><time>2026-04-08T16:58:36.999Z</time></trkpt><trkpt lat="48.086058374624876" lon="2.579243717369607"><ele>78.0</ele><time>2026-04-08T16:58:38.999Z</time></trkpt><trkpt lat="48.0861430000145" lon="2.579383504258967"><ele>78.0</ele><time>2026-04-08T16:58:40.999Z</time></trkpt><trkpt lat="48.086193320959886" lon="2.5794883528926205"><ele>78.0</ele><time>2026-04-08T16:58:41.999Z</time></trkpt><trkpt lat="48.08624419718782" lon="2.5795964445531214"><ele>78.0</ele><time>2026-04-08T16:58:42.999Z</time></trkpt><trkpt lat="48.08631280680814" lon="2.5797144539895736"><ele>78.0</ele><time>2026-04-08T16:58:43.999Z</time></trkpt><trkpt lat="48.08636388536946" lon="2.5798472629256817"><ele>78.0</ele><time>2026-04-08T16:58:44.999Z</time></trkpt><trkpt lat="48.08641376852348" lon="2.579966228033621"><ele>78.0</ele><time>2026-04-08T16:58:45.999Z</time></trkpt><trkpt lat="48.086437768878014" lon="2.580115209832099"><ele>78.0</ele><time>2026-04-08T16:58:46.999Z</time></trkpt><trkpt lat="48.08647374196974" lon="2.5802578186071528"><ele>78.0</ele><time>2026-04-08T16:58:47.999Z</time></trkpt><trkpt lat="48.086527122334864" lon="2.5803931582192083"><ele>78.0</ele><time>2026-04-08T16:58:48.999Z</time></trkpt><trkpt lat="48.08657999866607" lon="2.5805142176835423"><ele>78.0</ele><time>2026-04-08T16:58:49.999Z</time></trkpt><trkpt lat="48.086637483974954" lon="2.580642465009176"><ele>78.0</ele><time>2026-04-08T16:58:50.999Z</time></trkpt><trkpt lat="48.086708470792665" lon="2.5807854123062817"><ele>78.0</ele><time>2026-04-08T16:58:51.999Z</time></trkpt><trkpt lat="48.086791838439915" lon="2.580945755017338"><ele>78.0</ele><time>2026-04-08T16:58:52.999Z</time></trkpt><trkpt lat="48.086876953922456" lon="2.581128682344774"><ele>78.0</ele><time>2026-04-08T16:58:53.999Z</time></trkpt><trkpt lat="48.08696581471956" lon="2.5813051852539193"><ele>78.0</ele><time>2026-04-08T16:58:54.999Z</time></trkpt><trkpt lat="48.0870460500687" lon="2.581495706728103"><ele>78.0</ele><time>2026-04-08T16:58:55.999Z</time></trkpt><trkpt lat="48.08713766946539" lon="2.5816787374543755"><ele>77.66666666666667</ele><time>2026-04-08T16:58:56.999Z</time></trkpt><trkpt lat="48.08722720132519" lon="2.581862007239699"><ele>77.33333333333334</ele><time>2026-04-08T16:58:57.999Z</time></trkpt><trkpt lat="48.0873302071644" lon="2.582059575229158"><ele>77.0</ele><time>2026-04-08T16:58:58.999Z</time></trkpt><trkpt lat="48.08742686056221" lon="2.582253930664323"><ele>77.25</ele><time>2026-04-08T16:58:59.999Z</time></trkpt><trkpt lat="48.08750901534634" lon="2.582408312994169"><ele>77.5</ele><time>2026-04-08T16:59:00.999Z</time></trkpt><trkpt lat="48.087578569612326" lon="2.5825473534332897"><ele>77.75</ele><time>2026-04-08T16:59:01.999Z</time></trkpt><trkpt lat="48.08763451193597" lon="2.582668452791255"><ele>78.0</ele><time>2026-04-08T16:59:02.999Z</time></trkpt><trkpt lat="48.08771751270786" lon="2.582774270545374"><ele>78.0</ele><time>2026-04-08T16:59:03.999Z</time></trkpt><trkpt lat="48.08781516340314" lon="2.5828758613796077"><ele>78.0</ele><time>2026-04-08T16:59:04.999Z</time></trkpt><trkpt lat="48.08793127209182" lon="2.5829731547410075"><ele>78.0</ele><time>2026-04-08T16:59:05.999Z</time></trkpt><trkpt lat="48.08808739982408" lon="2.5830784659013273"><ele>78.0</ele><time>2026-04-08T16:59:06.999Z</time></trkpt><trkpt lat="48.088222248655775" lon="2.5831960084117074"><ele>78.0</ele><time>2026-04-08T16:59:07.999Z</time></trkpt><trkpt lat="48.08835217314798" lon="2.5833046790047973"><ele>78.0</ele><time>2026-04-08T16:59:08.999Z</time></trkpt><trkpt lat="48.08848897107619" lon="2.5834245428082414"><ele>78.0</ele><time>2026-04-08T16:59:09.999Z</time></trkpt><trkpt lat="48.08861494406762" lon="2.5835226124686272"><ele>78.0</ele><time>2026-04-08T16:59:10.999Z</time></trkpt><trkpt lat="48.088715917705485" lon="2.583642655895452"><ele>78.0</ele><time>2026-04-08T16:59:11.999Z</time></trkpt><trkpt lat="48.08883218353947" lon="2.5837219617374267"><ele>78.0</ele><time>2026-04-08T16:59:12.999Z</time></trkpt><trkpt lat="48.08895729855463" lon="2.5838256708525176"><ele>78.0</ele><time>2026-04-08T16:59:13.999Z</time></trkpt><trkpt lat="48.089082111318746" lon="2.583925167014467"><ele>78.0</ele><time>2026-04-08T16:59:14.998Z</time></trkpt><trkpt lat="48.08921580487805" lon="2.5840404298038466"><ele>78.66666666666667</ele><time>2026-04-08T16:59:15.998Z</time></trkpt><trkpt lat="48.089360307752045" lon="2.584154507131411"><ele>79.33333333333334</ele><time>2026-04-08T16:59:16.998Z</time></trkpt><trkpt lat="48.08950487450077" lon="2.5842673509190806"><ele>80.0</ele><time>2026-04-08T16:59:17.998Z</time></trkpt><trkpt lat="48.08962328682145" lon="2.5843656042307805"><ele>80.0</ele><time>2026-04-08T16:59:18.998Z</time></trkpt><trkpt lat="48.08973323782973" lon="2.584481289847818"><ele>80.0</ele><time>2026-04-08T16:59:19.998Z</time></trkpt><trkpt lat="48.089839377427055" lon="2.584543670725507"><ele>80.0</ele><time>2026-04-08T16:59:20.998Z</time></trkpt><trkpt lat="48.08995189272226" lon="2.5846345379730735"><ele>80.0</ele><time>2026-04-08T16:59:21.998Z</time></trkpt><trkpt lat="48.09002820759316" lon="2.5847223752977007"><ele>79.8</ele><time>2026-04-08T16:59:22.998Z</time></trkpt><trkpt lat="48.090099957693845" lon="2.5847639141107788"><ele>79.6</ele><time>2026-04-08T16:59:23.998Z</time></trkpt><trkpt lat="48.09016271240121" lon="2.584805533457149"><ele>79.4</ele><time>2026-04-08T16:59:24.998Z</time></trkpt><trkpt lat="48.090251472659574" lon="2.5849088623756833"><ele>79.2</ele><time>2026-04-08T16:59:25.998Z</time></trkpt><trkpt lat="48.090372750377256" lon="2.5850069653959893"><ele>79.0</ele><time>2026-04-08T16:59:26.998Z</time></trkpt><trkpt lat="48.09049313508085" lon="2.5851011343684465"><ele>79.0</ele><time>2026-04-08T16:59:27.998Z</time></trkpt><trkpt lat="48.09057906354541" lon="2.5851713923868638"><ele>79.0</ele><time>2026-04-08T16:59:28.998Z</time></trkpt><trkpt lat="48.0906746663386" lon="2.5852576042907707"><ele>79.0</ele><time>2026-04-08T16:59:29.998Z</time></trkpt><trkpt lat="48.090777222697746" lon="2.5853289011619123"><ele>79.0</ele><time>2026-04-08T16:59:30.998Z</time></trkpt><trkpt lat="48.09088197904752" lon="2.5854156861873685"><ele>79.0</ele><time>2026-04-08T16:59:31.998Z</time></trkpt><trkpt lat="48.09098362320396" lon="2.5854896332579678"><ele>79.2</ele><time>2026-04-08T16:59:32.998Z</time></trkpt><trkpt lat="48.09107458967722" lon="2.5855758326495137"><ele>79.4</ele><time>2026-04-08T16:59:33.998Z</time></trkpt><trkpt lat="48.091154886883494" lon="2.585649717573174"><ele>79.6</ele><time>2026-04-08T16:59:34.998Z</time></trkpt><trkpt lat="48.09123423650011" lon="2.5857269785016794"><ele>79.8</ele><time>2026-04-08T16:59:35.998Z</time></trkpt><trkpt lat="48.091335638613245" lon="2.5857855283930293"><ele>80.0</ele><time>2026-04-08T16:59:37.998Z</time></trkpt><trkpt lat="48.09140270730365" lon="2.5857309814374836"><ele>80.0</ele><time>2026-04-08T16:59:39.998Z</time></trkpt><trkpt lat="48.09146444616246" lon="2.5856268657375625"><ele>80.0</ele><time>2026-04-08T16:59:40.998Z</time></trkpt><trkpt lat="48.091508268770696" lon="2.5853687501748115"><ele>80.0</ele><time>2026-04-08T16:59:41.998Z</time></trkpt><trkpt lat="48.09157177245384" lon="2.5851583839962293"><ele>80.0</ele><time>2026-04-08T16:59:42.998Z</time></trkpt><trkpt lat="48.09166246398769" lon="2.5849598955371267"><ele>79.5</ele><time>2026-04-08T16:59:43.998Z</time></trkpt><trkpt lat="48.09174763668996" lon="2.584778600256795"><ele>79.0</ele><time>2026-04-08T16:59:44.998Z</time></trkpt><trkpt lat="48.09181687254316" lon="2.5846124118640232"><ele>78.5</ele><time>2026-04-08T16:59:45.998Z</time></trkpt><trkpt lat="48.091891023661944" lon="2.5844338621892673"><ele>78.0</ele><time>2026-04-08T16:59:46.998Z</time></trkpt><trkpt lat="48.09196255671482" lon="2.584290152968436"><ele>78.0</ele><time>2026-04-08T16:59:47.998Z</time></trkpt><trkpt lat="48.092042092208814" lon="2.584144547692015"><ele>78.0</ele><time>2026-04-08T16:59:48.998Z</time></trkpt><trkpt lat="48.09210414110639" lon="2.5839808384306915"><ele>78.0</ele><time>2026-04-08T16:59:49.998Z</time></trkpt><trkpt lat="48.092168057463226" lon="2.5838236588228467"><ele>78.0</ele><time>2026-04-08T16:59:51Z</time></trkpt><trkpt lat="48.09222629076646" lon="2.5836577029438432"><ele>78.0</ele><time>2026-04-08T16:59:52Z</time></trkpt><trkpt lat="48.09228731129382" lon="2.583492740962569"><ele>78.0</ele><time>2026-04-08T16:59:53Z</time></trkpt><trkpt lat="48.0923519678814" lon="2.5833312240761908"><ele>78.0</ele><time>2026-04-08T16:59:54Z</time></trkpt><trkpt lat="48.09241971690915" lon="2.583152977711528"><ele>78.0</ele><time>2026-04-08T16:59:55Z</time></trkpt><trkpt lat="48.09248915990945" lon="2.5829724913574568"><ele>77.75</ele><time>2026-04-08T16:59:56Z</time></trkpt><trkpt lat="48.09255792431638" lon="2.5828019348438116"><ele>77.5</ele><time>2026-04-08T16:59:57Z</time></trkpt><trkpt lat="48.09262130565796" lon="2.582640754553241"><ele>77.25</ele><time>2026-04-08T16:59:58Z</time></trkpt><trkpt lat="48.09268480804923" lon="2.5824818476764517"><ele>77.0</ele><time>2026-04-08T16:59:59Z</time></trkpt><trkpt lat="48.092744030606745" lon="2.5823127666942187"><ele>77.0</ele><time>2026-04-08T17:00:00Z</time></trkpt><trkpt lat="48.092807664925324" lon="2.5821453432611396"><ele>77.0</ele><time>2026-04-08T17:00:01Z</time></trkpt><trkpt lat="48.0928743743509" lon="2.5820004928855806"><ele>77.0</ele><time>2026-04-08T17:00:02Z</time></trkpt><trkpt lat="48.09293004428554" lon="2.5818687751906197"><ele>77.0</ele><time>2026-04-08T17:00:03Z</time></trkpt><trkpt lat="48.09298164610963" lon="2.5817441836856365"><ele>77.0</ele><time>2026-04-08T17:00:04Z</time></trkpt><trkpt lat="48.09301462359526" lon="2.5815959264873998"><ele>76.83333333333334</ele><time>2026-04-08T17:00:05Z</time></trkpt><trkpt lat="48.09307123902895" lon="2.5814777947724115"><ele>76.66666666666667</ele><time>2026-04-08T17:00:06Z</time></trkpt><trkpt lat="48.09309979908235" lon="2.5813545358981362"><ele>76.5</ele><time>2026-04-08T17:00:07Z</time></trkpt><trkpt lat="48.09314816354721" lon="2.581276001716495"><ele>76.33333333333333</ele><time>2026-04-08T17:00:08Z</time></trkpt><trkpt lat="48.09318205272667" lon="2.581192591278586"><ele>76.16666666666666</ele><time>2026-04-08T17:00:09Z</time></trkpt><trkpt lat="48.093216037197436" lon="2.581103349678009"><ele>76.0</ele><time>2026-04-08T17:00:11Z</time></trkpt><trkpt lat="48.09325947737368" lon="2.5811788934644713"><ele>76.0</ele><time>2026-04-08T17:01:14.999Z</time></trkpt><trkpt lat="48.093283973964695" lon="2.581283360071638"><ele>76.0</ele><time>2026-04-08T17:01:17.999Z</time></trkpt><trkpt lat="48.093255630148875" lon="2.581195604568249"><ele>76.0</ele><time>2026-04-08T17:01:41.998Z</time></trkpt><trkpt lat="48.09319389870973" lon="2.5811309195220544"><ele>76.0</ele><time>2026-04-08T17:01:46.998Z</time></trkpt><trkpt lat="48.093157337308696" lon="2.5810210479114506"><ele>76.0</ele><time>2026-04-08T17:01:49.998Z</time></trkpt><trkpt lat="48.09309229984742" lon="2.5809147677048774"><ele>76.0</ele><time>2026-04-08T17:01:59Z</time></trkpt><trkpt lat="48.0930269471935" lon="2.580811080059943"><ele>76.39999999999999</ele><time>2026-04-08T17:02:01Z</time></trkpt><trkpt lat="48.092967814627" lon="2.5807082950236406"><ele>76.8</ele><time>2026-04-08T17:02:03Z</time></trkpt><trkpt lat="48.0929016763449" lon="2.5806078911484325"><ele>77.19999999999999</ele><time>2026-04-08T17:02:05Z</time></trkpt><trkpt lat="48.09283967650455" lon="2.58049791615401"><ele>77.6</ele><time>2026-04-08T17:02:07Z</time></trkpt><trkpt lat="48.09276637559944" lon="2.5803796834298147"><ele>78.0</ele><time>2026-04-08T17:02:09Z</time></trkpt><trkpt lat="48.092675037475544" lon="2.580245464353972"><ele>78.0</ele><time>2026-04-08T17:02:11Z</time></trkpt><trkpt lat="48.09258693562818" lon="2.580110042202446"><ele>78.0</ele><time>2026-04-08T17:02:13Z</time></trkpt><trkpt lat="48.092539009381596" lon="2.5800406764699257"><ele>78.0</ele><time>2026-04-08T17:02:14Z</time></trkpt><trkpt lat="48.092489213535394" lon="2.5799679052993074"><ele>78.0</ele><time>2026-04-08T17:02:15Z</time></trkpt><trkpt lat="48.092400484432794" lon="2.5798273672571326"><ele>78.0</ele><time>2026-04-08T17:02:17Z</time></trkpt><trkpt lat="48.0923545069797" lon="2.5797622304065984"><ele>78.0</ele><time>2026-04-08T17:02:18Z</time></trkpt><trkpt lat="48.0923067923607" lon="2.579686149607448"><ele>78.0</ele><time>2026-04-08T17:02:19Z</time></trkpt><trkpt lat="48.09222801177998" lon="2.579574820552486"><ele>78.0</ele><time>2026-04-08T17:02:21Z</time></trkpt><trkpt lat="48.09218580589111" lon="2.5794920385875004"><ele>78.0</ele><time>2026-04-08T17:02:25Z</time></trkpt><trkpt lat="48.09212599884603" lon="2.579400485799243"><ele>78.0</ele><time>2026-04-08T17:02:27Z</time></trkpt><trkpt lat="48.09218005251823" lon="2.5794876094065855"><ele>78.0</ele><time>2026-04-08T17:02:36Z</time></trkpt><trkpt lat="48.09227168474205" lon="2.579412609731685"><ele>78.0</ele><time>2026-04-08T17:02:43.999Z</time></trkpt><trkpt lat="48.09233772284491" lon="2.579467531771277"><ele>78.0</ele><time>2026-04-08T17:02:45.999Z</time></trkpt><trkpt lat="48.09238046541455" lon="2.5795461798881574"><ele>78.0</ele><time>2026-04-08T17:02:46.999Z</time></trkpt><trkpt lat="48.0924513369994" lon="2.5796502809966517"><ele>78.0</ele><time>2026-04-08T17:02:47.999Z</time></trkpt><trkpt lat="48.09254133666877" lon="2.579798559658423"><ele>78.0</ele><time>2026-04-08T17:02:48.999Z</time></trkpt><trkpt lat="48.0926218545619" lon="2.579940745939918"><ele>78.0</ele><time>2026-04-08T17:02:49.999Z</time></trkpt><trkpt lat="48.092721967723314" lon="2.5801054501590803"><ele>78.0</ele><time>2026-04-08T17:02:50.999Z</time></trkpt><trkpt lat="48.09283475250169" lon="2.5802997116252295"><ele>78.0</ele><time>2026-04-08T17:02:51.999Z</time></trkpt><trkpt lat="48.09295380554231" lon="2.58046068149334"><ele>78.2</ele><time>2026-04-08T17:02:52.999Z</time></trkpt><trkpt lat="48.09302285830011" lon="2.5806017098014156"><ele>78.4</ele><time>2026-04-08T17:02:53.999Z</time></trkpt><trkpt lat="48.093095753765006" lon="2.5807168180353344"><ele>78.60000000000001</ele><time>2026-04-08T17:02:54.999Z</time></trkpt><trkpt lat="48.0931613906691" lon="2.5808043579077196"><ele>78.8</ele><time>2026-04-08T17:02:55.999Z</time></trkpt><trkpt lat="48.093209234929915" lon="2.580876024970898"><ele>79.0</ele><time>2026-04-08T17:02:56.999Z</time></trkpt><trkpt lat="48.093253950856734" lon="2.580973739052228"><ele>78.8</ele><time>2026-04-08T17:02:57.999Z</time></trkpt><trkpt lat="48.093347007775854" lon="2.580976308319331"><ele>78.60000000000001</ele><time>2026-04-08T17:02:59.999Z</time></trkpt><trkpt lat="48.09338225461898" lon="2.5808661415106227"><ele>78.4</ele><time>2026-04-08T17:03:00.999Z</time></trkpt><trkpt lat="48.093389897517255" lon="2.580711295648291"><ele>78.2</ele><time>2026-04-08T17:03:01.999Z</time></trkpt><trkpt lat="48.093421605426585" lon="2.5805665311050507"><ele>78.0</ele><time>2026-04-08T17:03:02.999Z</time></trkpt><trkpt lat="48.09346901914355" lon="2.580385418012514"><ele>78.0</ele><time>2026-04-08T17:03:03.999Z</time></trkpt><trkpt lat="48.09353091794556" lon="2.5801698783792606"><ele>78.0</ele><time>2026-04-08T17:03:04.999Z</time></trkpt><trkpt lat="48.093601322947464" lon="2.579950978941417"><ele>78.0</ele><time>2026-04-08T17:03:05.999Z</time></trkpt><trkpt lat="48.093639726060765" lon="2.5797850132395084"><ele>78.0</ele><time>2026-04-08T17:03:06.999Z</time></trkpt><trkpt lat="48.09368379218163" lon="2.579647980724212"><ele>78.0</ele><time>2026-04-08T17:03:07.999Z</time></trkpt><trkpt lat="48.09372395536195" lon="2.5795536782582364"><ele>78.0</ele><time>2026-04-08T17:03:08.999Z</time></trkpt><trkpt lat="48.09372166665411" lon="2.5793838355851206"><ele>78.0</ele><time>2026-04-08T17:03:11.999Z</time></trkpt><trkpt lat="48.09365876891632" lon="2.579257352273249"><ele>78.0</ele><time>2026-04-08T17:03:12.999Z</time></trkpt><trkpt lat="48.09357044115552" lon="2.579187638668541"><ele>78.0</ele><time>2026-04-08T17:03:13.999Z</time></trkpt><trkpt lat="48.093534290806176" lon="2.5790757234805075"><ele>78.0</ele><time>2026-04-08T17:03:14.999Z</time></trkpt><trkpt lat="48.09357563369329" lon="2.5789649966552513"><ele>78.0</ele><time>2026-04-08T17:03:16.999Z</time></trkpt><trkpt lat="48.09342603495948" lon="2.578771149929416"><ele>78.0</ele><time>2026-04-08T17:03:58.998Z</time></trkpt><trkpt lat="48.093350390234" lon="2.5786385195088846"><ele>78.0</ele><time>2026-04-08T17:03:59.998Z</time></trkpt><trkpt lat="48.093243839863014" lon="2.5784631572712495"><ele>77.75</ele><time>2026-04-08T17:04:00.998Z</time></trkpt><trkpt lat="48.0931432085662" lon="2.5782833059616688"><ele>77.5</ele><time>2026-04-08T17:04:01.998Z</time></trkpt><trkpt lat="48.09306023517596" lon="2.5781369071022717"><ele>77.25</ele><time>2026-04-08T17:04:03Z</time></trkpt><trkpt lat="48.092994059568866" lon="2.578009840474972"><ele>77.0</ele><time>2026-04-08T17:04:04Z</time></trkpt><trkpt lat="48.09292887671392" lon="2.577915229004646"><ele>77.2</ele><time>2026-04-08T17:04:05Z</time></trkpt><trkpt lat="48.09288672265742" lon="2.5778197047594325"><ele>77.4</ele><time>2026-04-08T17:04:06Z</time></trkpt><trkpt lat="48.09282650427202" lon="2.577723186090192"><ele>77.6</ele><time>2026-04-08T17:04:07Z</time></trkpt><trkpt lat="48.09271736247342" lon="2.5776103480362593"><ele>77.8</ele><time>2026-04-08T17:04:08Z</time></trkpt><trkpt lat="48.09260163443256" lon="2.5774855622753075"><ele>78.0</ele><time>2026-04-08T17:04:09Z</time></trkpt><trkpt lat="48.09247139348023" lon="2.57734413801944"><ele>78.0</ele><time>2026-04-08T17:04:10Z</time></trkpt><trkpt lat="48.09236106002312" lon="2.577237673022589"><ele>78.0</ele><time>2026-04-08T17:04:11Z</time></trkpt><trkpt lat="48.09228650421427" lon="2.5771599940425975"><ele>78.0</ele><time>2026-04-08T17:04:12Z</time></trkpt><trkpt lat="48.092206387450936" lon="2.5770759589631784"><ele>78.0</ele><time>2026-04-08T17:04:13Z</time></trkpt><trkpt lat="48.0921476329678" lon="2.5770256177996096"><ele>78.0</ele><time>2026-04-08T17:04:14Z</time></trkpt><trkpt lat="48.09210610192976" lon="2.576938201415271"><ele>78.0</ele><time>2026-04-08T17:04:15Z</time></trkpt><trkpt lat="48.09211932175142" lon="2.5767764541276303"><ele>78.0</ele><time>2026-04-08T17:04:17Z</time></trkpt><trkpt lat="48.09217257998027" lon="2.576712418247613"><ele>78.0</ele><time>2026-04-08T17:04:21Z</time></trkpt><trkpt lat="48.0922245195451" lon="2.576644342822584"><ele>78.0</ele><time>2026-04-08T17:04:25Z</time></trkpt><trkpt lat="48.09228284617522" lon="2.5765732014834715"><ele>78.0</ele><time>2026-04-08T17:04:27Z</time></trkpt><trkpt lat="48.09242418752725" lon="2.5767160168399394"><ele>78.0</ele><time>2026-04-08T17:04:29Z</time></trkpt><trkpt lat="48.09256004502529" lon="2.5767427964306076"><ele>78.0</ele><time>2026-04-08T17:05:23.999Z</time></trkpt><trkpt lat="48.0926587958598" lon="2.5768550971090063"><ele>78.0</ele><time>2026-04-08T17:05:24.999Z</time></trkpt><trkpt lat="48.09264200998385" lon="2.5772069285469064"><ele>78.0</ele><time>2026-04-08T17:05:25.999Z</time></trkpt><trkpt lat="48.09272644761354" lon="2.5773295009005524"><ele>78.0</ele><time>2026-04-08T17:05:26.999Z</time></trkpt><trkpt lat="48.092790502120245" lon="2.5774221582114336"><ele>78.0</ele><time>2026-04-08T17:05:27.999Z</time></trkpt><trkpt lat="48.092845385547385" lon="2.577501429970587"><ele>78.0</ele><time>2026-04-08T17:05:28.999Z</time></trkpt><trkpt lat="48.09293447417535" lon="2.577630106189084"><ele>78.0</ele><time>2026-04-08T17:05:29.999Z</time></trkpt><trkpt lat="48.09305525348931" lon="2.577803631024113"><ele>77.66666666666667</ele><time>2026-04-08T17:05:30.999Z</time></trkpt><trkpt lat="48.093185431009786" lon="2.577988552500126"><ele>77.33333333333334</ele><time>2026-04-08T17:05:31.999Z</time></trkpt><trkpt lat="48.09328596451591" lon="2.578125144919505"><ele>77.0</ele><time>2026-04-08T17:05:32.999Z</time></trkpt><trkpt lat="48.09339361411364" lon="2.5782682117212343"><ele>77.33333333333334</ele><time>2026-04-08T17:05:33.999Z</time></trkpt><trkpt lat="48.093512827373026" lon="2.5784213863259793"><ele>77.66666666666667</ele><time>2026-04-08T17:05:34.999Z</time></trkpt><trkpt lat="48.09364518399496" lon="2.578587770001453"><ele>78.0</ele><time>2026-04-08T17:05:35.999Z</time></trkpt><trkpt lat="48.09373974963408" lon="2.5786976042138856"><ele>78.0</ele><time>2026-04-08T17:05:36.999Z</time></trkpt><trkpt lat="48.09384181603084" lon="2.578788042159288"><ele>78.0</ele><time>2026-04-08T17:05:38.999Z</time></trkpt><trkpt lat="48.094265556806164" lon="2.5778927507763245"><ele>78.0</ele><time>2026-04-08T17:05:40.998Z</time></trkpt><trkpt lat="48.094291401707665" lon="2.5776676378022128"><ele>78.0</ele><time>2026-04-08T17:05:41.998Z</time></trkpt><trkpt lat="48.09432248197744" lon="2.5774461123011068"><ele>78.0</ele><time>2026-04-08T17:05:42.998Z</time></trkpt><trkpt lat="48.09435954528941" lon="2.577122684207191"><ele>78.5</ele><time>2026-04-08T17:05:43.998Z</time></trkpt><trkpt lat="48.094433767235756" lon="2.5768406054846418"><ele>79.0</ele><time>2026-04-08T17:05:44.998Z</time></trkpt><trkpt lat="48.09449823630583" lon="2.5764671760580975"><ele>78.5</ele><time>2026-04-08T17:05:45.998Z</time></trkpt><trkpt lat="48.094554362916824" lon="2.5760973860611003"><ele>78.0</ele><time>2026-04-08T17:05:46.998Z</time></trkpt><trkpt lat="48.09462587162836" lon="2.575766781186916"><ele>78.0</ele><time>2026-04-08T17:05:47.998Z</time></trkpt><trkpt lat="48.09469348341027" lon="2.5754846232928066"><ele>78.0</ele><time>2026-04-08T17:05:48.998Z</time></trkpt><trkpt lat="48.09474099694396" lon="2.575213023937833"><ele>78.0</ele><time>2026-04-08T17:05:49.998Z</time></trkpt><trkpt lat="48.094785652164255" lon="2.5749498812222114"><ele>78.0</ele><time>2026-04-08T17:05:50.998Z</time></trkpt><trkpt lat="48.09483700991931" lon="2.574705570114286"><ele>78.0</ele><time>2026-04-08T17:05:51.998Z</time></trkpt><trkpt lat="48.09488982556375" lon="2.5744227771007453"><ele>78.0</ele><time>2026-04-08T17:05:52.998Z</time></trkpt><trkpt lat="48.0949326656935" lon="2.5740781141985263"><ele>78.0</ele><time>2026-04-08T17:05:53.998Z</time></trkpt><trkpt lat="48.09497883385181" lon="2.5737066449438477"><ele>78.0</ele><time>2026-04-08T17:05:54.998Z</time></trkpt><trkpt lat="48.09502060859495" lon="2.5733360592098626"><ele>78.0</ele><time>2026-04-08T17:05:55.998Z</time></trkpt><trkpt lat="48.09506838102299" lon="2.57298852686735"><ele>78.0</ele><time>2026-04-08T17:05:56.998Z</time></trkpt><trkpt lat="48.09511956318288" lon="2.5726198743566733"><ele>78.0</ele><time>2026-04-08T17:05:57.998Z</time></trkpt><trkpt lat="48.09516401945154" lon="2.572283068985962"><ele>78.0</ele><time>2026-04-08T17:05:58.998Z</time></trkpt><trkpt lat="48.09520130288197" lon="2.5719790700703196"><ele>78.0</ele><time>2026-04-08T17:05:59.998Z</time></trkpt><trkpt lat="48.09522902424749" lon="2.571706393992549"><ele>78.0</ele><time>2026-04-08T17:06:00.998Z</time></trkpt><trkpt lat="48.09526609938594" lon="2.571440677755425"><ele>78.0</ele><time>2026-04-08T17:06:01.998Z</time></trkpt><trkpt lat="48.095300455692794" lon="2.57117331144868"><ele>78.0</ele><time>2026-04-08T17:06:02.998Z</time></trkpt><trkpt lat="48.09531635157446" lon="2.5709190868386287"><ele>78.0</ele><time>2026-04-08T17:06:03.998Z</time></trkpt><trkpt lat="48.09532594668175" lon="2.5706748137781434"><ele>78.0</ele><time>2026-04-08T17:06:04.998Z</time></trkpt><trkpt lat="48.09531860366154" lon="2.5704436093951593"><ele>78.0</ele><time>2026-04-08T17:06:05.998Z</time></trkpt><trkpt lat="48.095322390873555" lon="2.570225524395493"><ele>78.0</ele><time>2026-04-08T17:06:06.998Z</time></trkpt><trkpt lat="48.09529204064992" lon="2.57001820173075"><ele>78.0</ele><time>2026-04-08T17:06:07.998Z</time></trkpt><trkpt lat="48.09528645440902" lon="2.569829931941677"><ele>78.0</ele><time>2026-04-08T17:06:09Z</time></trkpt><trkpt lat="48.09524300370225" lon="2.569644203134809"><ele>78.0</ele><time>2026-04-08T17:06:10Z</time></trkpt><trkpt lat="48.09516478811567" lon="2.5694327229239"><ele>77.75</ele><time>2026-04-08T17:06:11Z</time></trkpt><trkpt lat="48.09511985170599" lon="2.569242770575823"><ele>77.5</ele><time>2026-04-08T17:06:12Z</time></trkpt><trkpt lat="48.0951084150717" lon="2.5690739281180304"><ele>77.25</ele><time>2026-04-08T17:06:13Z</time></trkpt><trkpt lat="48.0950892284204" lon="2.568890326258579"><ele>77.0</ele><time>2026-04-08T17:06:14Z</time></trkpt><trkpt lat="48.09509317049379" lon="2.568693737703478"><ele>77.0</ele><time>2026-04-08T17:06:15Z</time></trkpt><trkpt lat="48.09509336386515" lon="2.5685401500134764"><ele>77.0</ele><time>2026-04-08T17:06:16Z</time></trkpt><trkpt lat="48.09510327662844" lon="2.568422160177716"><ele>77.0</ele><time>2026-04-08T17:06:17Z</time></trkpt><trkpt lat="48.09511373611974" lon="2.568259521711056"><ele>77.0</ele><time>2026-04-08T17:06:19Z</time></trkpt><trkpt lat="48.09517866098434" lon="2.5682252819274085"><ele>77.0</ele><time>2026-04-08T17:06:45.999Z</time></trkpt><trkpt lat="48.09525230121746" lon="2.5682971246171937"><ele>77.0</ele><time>2026-04-08T17:06:47.999Z</time></trkpt><trkpt lat="48.095343049693426" lon="2.5683640134714714"><ele>77.0</ele><time>2026-04-08T17:06:49.999Z</time></trkpt><trkpt lat="48.09542054762169" lon="2.568416660349684"><ele>77.0</ele><time>2026-04-08T17:06:51.999Z</time></trkpt><trkpt lat="48.09548769881251" lon="2.568466701720648"><ele>77.0</ele><time>2026-04-08T17:06:54.999Z</time></trkpt><trkpt lat="48.09555550608764" lon="2.568507179299546"><ele>77.0</ele><time>2026-04-08T17:06:57.999Z</time></trkpt><trkpt lat="48.09562108503457" lon="2.5685516438453595"><ele>77.0</ele><time>2026-04-08T17:07:01.019Z</time></trkpt><trkpt lat="48.09569866432742" lon="2.5686045888986957"><ele>77.0</ele><time>2026-04-08T17:07:04.014Z</time></trkpt><trkpt lat="48.0957747578766" lon="2.568647167660813"><ele>77.4</ele><time>2026-04-08T17:07:04.999Z</time></trkpt><trkpt lat="48.095842737243395" lon="2.5687150478893095"><ele>77.80000000000001</ele><time>2026-04-08T17:07:05.999Z</time></trkpt><trkpt lat="48.09588896995575" lon="2.5688194066817727"><ele>78.2</ele><time>2026-04-08T17:07:08.999Z</time></trkpt><trkpt lat="48.096001680249316" lon="2.5688852112091567"><ele>78.60000000000001</ele><time>2026-04-08T17:07:10.999Z</time></trkpt><trkpt lat="48.096088312882465" lon="2.5689575777348153"><ele>79.0</ele><time>2026-04-08T17:07:12.999Z</time></trkpt><trkpt lat="48.096146418950504" lon="2.5690405578561863"><ele>79.0</ele><time>2026-04-08T17:07:14.999Z</time></trkpt><trkpt lat="48.09620250565798" lon="2.5691175775339388"><ele>79.0</ele><time>2026-04-08T17:07:16.999Z</time></trkpt><trkpt lat="48.096268757976645" lon="2.5691898427350406"><ele>79.0</ele><time>2026-04-08T17:07:18.999Z</time></trkpt><trkpt lat="48.09632150875891" lon="2.5692504478753446"><ele>79.0</ele><time>2026-04-08T17:07:20.999Z</time></trkpt><trkpt lat="48.096363864153176" lon="2.5693215264192957"><ele>79.0</ele><time>2026-04-08T17:07:22.999Z</time></trkpt><trkpt lat="48.09643178141011" lon="2.5692843780717487"><ele>79.0</ele><time>2026-04-08T17:08:11.998Z</time></trkpt><trkpt lat="48.0964292497043" lon="2.5691467742792202"><ele>79.0</ele><time>2026-04-08T17:08:14.999Z</time></trkpt><trkpt lat="48.09641479010372" lon="2.5690347961565485"><ele>79.0</ele><time>2026-04-08T17:08:16.999Z</time></trkpt><trkpt lat="48.096396246949" lon="2.5689317266355123"><ele>79.0</ele><time>2026-04-08T17:08:18.999Z</time></trkpt><trkpt lat="48.09636588936008" lon="2.568801677714738"><ele>79.0</ele><time>2026-04-08T17:08:20.999Z</time></trkpt><trkpt lat="48.09636127924898" lon="2.5686630906802472"><ele>79.0</ele><time>2026-04-08T17:08:22.999Z</time></trkpt><trkpt lat="48.09633673928322" lon="2.568504176919109"><ele>79.0</ele><time>2026-04-08T17:08:24.999Z</time></trkpt><trkpt lat="48.09631762266288" lon="2.568330028985339"><ele>78.60000000000001</ele><time>2026-04-08T17:08:26.999Z</time></trkpt><trkpt lat="48.096306665189005" lon="2.5682353930286"><ele>78.2</ele><time>2026-04-08T17:08:28Z</time></trkpt><trkpt lat="48.09628955037166" lon="2.5680611458117486"><ele>77.80000000000001</ele><time>2026-04-08T17:08:29.999Z</time></trkpt><trkpt lat="48.09625198833317" lon="2.5678891006291527"><ele>77.4</ele><time>2026-04-08T17:08:31.999Z</time></trkpt><trkpt lat="48.09621837883841" lon="2.567740928472674"><ele>77.0</ele><time>2026-04-08T17:08:33.999Z</time></trkpt><trkpt lat="48.09620234910931" lon="2.5675973258888933"><ele>77.0</ele><time>2026-04-08T17:08:35.999Z</time></trkpt><trkpt lat="48.09620550136586" lon="2.567475636874072"><ele>77.0</ele><time>2026-04-08T17:08:37.999Z</time></trkpt><trkpt lat="48.096259156088294" lon="2.567404315259282"><ele>77.0</ele><time>2026-04-08T17:08:39.999Z</time></trkpt><trkpt lat="48.09634234609569" lon="2.5673751045158184"><ele>77.0</ele><time>2026-04-08T17:08:41.999Z</time></trkpt><trkpt lat="48.09644025872528" lon="2.567365239236191"><ele>77.0</ele><time>2026-04-08T17:08:43.999Z</time></trkpt><trkpt lat="48.0965627828341" lon="2.567354809742995"><ele>77.16666666666667</ele><time>2026-04-08T17:08:45.999Z</time></trkpt><trkpt lat="48.096682420452865" lon="2.567345010028144"><ele>77.33333333333334</ele><time>2026-04-08T17:08:47.999Z</time></trkpt><trkpt lat="48.0967524875121" lon="2.567337496935963"><ele>77.5</ele><time>2026-04-08T17:08:48.999Z</time></trkpt><trkpt lat="48.09682671860858" lon="2.567323879773858"><ele>77.66666666666667</ele><time>2026-04-08T17:08:49.999Z</time></trkpt><trkpt lat="48.096909239396524" lon="2.567310326674116"><ele>77.83333333333333</ele><time>2026-04-08T17:08:50.999Z</time></trkpt><trkpt lat="48.09699683033579" lon="2.5672981689724406"><ele>78.0</ele><time>2026-04-08T17:08:51.999Z</time></trkpt><trkpt lat="48.0970746957448" lon="2.5672893314359095"><ele>78.0</ele><time>2026-04-08T17:08:52.999Z</time></trkpt><trkpt lat="48.097175502675746" lon="2.567260612676255"><ele>78.0</ele><time>2026-04-08T17:08:53.999Z</time></trkpt><trkpt lat="48.097274896651186" lon="2.5672235971045403"><ele>78.0</ele><time>2026-04-08T17:08:54.999Z</time></trkpt><trkpt lat="48.097375458508864" lon="2.5672008513729767"><ele>78.0</ele><time>2026-04-08T17:08:55.999Z</time></trkpt><trkpt lat="48.09746768008524" lon="2.567184317396112"><ele>78.0</ele><time>2026-04-08T17:08:56.999Z</time></trkpt><trkpt lat="48.09755488864189" lon="2.5671704559955324"><ele>77.83333333333333</ele><time>2026-04-08T17:08:57.999Z</time></trkpt><trkpt lat="48.097648415569736" lon="2.5671559551490444"><ele>77.66666666666667</ele><time>2026-04-08T17:08:58.999Z</time></trkpt><trkpt lat="48.097740532633416" lon="2.5671265725623007"><ele>77.5</ele><time>2026-04-08T17:08:59.999Z</time></trkpt><trkpt lat="48.0978310595314" lon="2.567108505448766"><ele>77.33333333333334</ele><time>2026-04-08T17:09:00.999Z</time></trkpt><trkpt lat="48.097917237203205" lon="2.567093868785985"><ele>77.16666666666667</ele><time>2026-04-08T17:09:01.999Z</time></trkpt><trkpt lat="48.09799897649626" lon="2.56708598709264"><ele>77.0</ele><time>2026-04-08T17:09:02.999Z</time></trkpt><trkpt lat="48.09807602955109" lon="2.5670645568835635"><ele>77.0</ele><time>2026-04-08T17:09:03.999Z</time></trkpt><trkpt lat="48.09815962642086" lon="2.5670514908353708"><ele>77.0</ele><time>2026-04-08T17:09:04.999Z</time></trkpt><trkpt lat="48.09823928842214" lon="2.567041196034314"><ele>77.0</ele><time>2026-04-08T17:09:05.999Z</time></trkpt><trkpt lat="48.09831619729877" lon="2.5670240625253204"><ele>77.0</ele><time>2026-04-08T17:09:06.999Z</time></trkpt><trkpt lat="48.0983917555289" lon="2.567015296368958"><ele>77.0</ele><time>2026-04-08T17:09:07.999Z</time></trkpt><trkpt lat="48.09847227222607" lon="2.566982433171645"><ele>77.0</ele><time>2026-04-08T17:09:08.999Z</time></trkpt><trkpt lat="48.09853737527056" lon="2.566988328764016"><ele>77.0</ele><time>2026-04-08T17:09:09.999Z</time></trkpt><trkpt lat="48.098607877020044" lon="2.56697887145448"><ele>77.0</ele><time>2026-04-08T17:09:10.999Z</time></trkpt><trkpt lat="48.09868202057194" lon="2.566960562972662"><ele>77.0</ele><time>2026-04-08T17:09:11.999Z</time></trkpt><trkpt lat="48.0987665629075" lon="2.566940525343146"><ele>77.0</ele><time>2026-04-08T17:09:12.999Z</time></trkpt><trkpt lat="48.09883353606626" lon="2.5669533298778453"><ele>77.0</ele><time>2026-04-08T17:09:13.999Z</time></trkpt><trkpt lat="48.09890257125236" lon="2.566952895584347"><ele>77.0</ele><time>2026-04-08T17:09:14.999Z</time></trkpt><trkpt lat="48.098988483652256" lon="2.5669501830506536"><ele>77.0</ele><time>2026-04-08T17:09:15.999Z</time></trkpt><trkpt lat="48.09907960339595" lon="2.566943908353222"><ele>77.0</ele><time>2026-04-08T17:09:16.999Z</time></trkpt><trkpt lat="48.09917593318219" lon="2.566926351624767"><ele>77.0</ele><time>2026-04-08T17:09:17.999Z</time></trkpt><trkpt lat="48.099265782177014" lon="2.5669135862916583"><ele>77.0</ele><time>2026-04-08T17:09:18.999Z</time></trkpt><trkpt lat="48.099359169724174" lon="2.56689997296001"><ele>77.0</ele><time>2026-04-08T17:09:19.999Z</time></trkpt><trkpt lat="48.09946534884959" lon="2.5668808069248086"><ele>77.16666666666667</ele><time>2026-04-08T17:09:20.999Z</time></trkpt><trkpt lat="48.09956375196992" lon="2.566852247170217"><ele>77.33333333333334</ele><time>2026-04-08T17:09:21.999Z</time></trkpt><trkpt lat="48.099654506748045" lon="2.5668348320401515"><ele>77.5</ele><time>2026-04-08T17:09:22.999Z</time></trkpt><trkpt lat="48.09973788083752" lon="2.566827254825958"><ele>77.66666666666667</ele><time>2026-04-08T17:09:23.999Z</time></trkpt><trkpt lat="48.09981436374991" lon="2.566820774936995"><ele>77.83333333333333</ele><time>2026-04-08T17:09:24.999Z</time></trkpt><trkpt lat="48.099908949142375" lon="2.5668372431508724"><ele>78.0</ele><time>2026-04-08T17:09:26.999Z</time></trkpt><trkpt lat="48.09992352955224" lon="2.5669983400305143"><ele>78.0</ele><time>2026-04-08T17:09:28.999Z</time></trkpt><trkpt lat="48.09992797450106" lon="2.567119177095118"><ele>78.0</ele><time>2026-04-08T17:09:29.999Z</time></trkpt><trkpt lat="48.0999372996824" lon="2.5672776174045002"><ele>78.0</ele><time>2026-04-08T17:09:30.999Z</time></trkpt><trkpt lat="48.09993347062757" lon="2.5674267561037936"><ele>78.0</ele><time>2026-04-08T17:09:31.999Z</time></trkpt><trkpt lat="48.09994401147914" lon="2.567570677556591"><ele>78.0</ele><time>2026-04-08T17:09:32.999Z</time></trkpt><trkpt lat="48.099952281410125" lon="2.567713073867378"><ele>78.0</ele><time>2026-04-08T17:09:33.999Z</time></trkpt><trkpt lat="48.09995746218925" lon="2.5678661450648517"><ele>78.0</ele><time>2026-04-08T17:09:34.999Z</time></trkpt><trkpt lat="48.099971409655225" lon="2.5680189872114445"><ele>78.0</ele><time>2026-04-08T17:09:35.999Z</time></trkpt><trkpt lat="48.099974984644184" lon="2.56817935302601"><ele>78.0</ele><time>2026-04-08T17:09:36.999Z</time></trkpt><trkpt lat="48.09997616305941" lon="2.568346652763878"><ele>78.0</ele><time>2026-04-08T17:09:37.999Z</time></trkpt><trkpt lat="48.09998471374127" lon="2.568505812679645"><ele>78.0</ele><time>2026-04-08T17:09:38.998Z</time></trkpt><trkpt lat="48.09999773554306" lon="2.5686468678363887"><ele>78.0</ele><time>2026-04-08T17:09:39.998Z</time></trkpt><trkpt lat="48.1000089668494" lon="2.568790613461222"><ele>78.0</ele><time>2026-04-08T17:09:40.998Z</time></trkpt><trkpt lat="48.10001487017847" lon="2.5689335492016667"><ele>78.0</ele><time>2026-04-08T17:09:41.998Z</time></trkpt><trkpt lat="48.10002522933323" lon="2.5690980392112754"><ele>78.0</ele><time>2026-04-08T17:09:42.998Z</time></trkpt><trkpt lat="48.100031821845896" lon="2.5692671709831894"><ele>78.0</ele><time>2026-04-08T17:09:43.998Z</time></trkpt><trkpt lat="48.10004273212449" lon="2.569450457057994"><ele>78.0</ele><time>2026-04-08T17:09:44.998Z</time></trkpt><trkpt lat="48.10006051359474" lon="2.5696355364390557"><ele>78.0</ele><time>2026-04-08T17:09:45.998Z</time></trkpt><trkpt lat="48.10006333837414" lon="2.569823456613295"><ele>78.0</ele><time>2026-04-08T17:09:46.998Z</time></trkpt><trkpt lat="48.10007194234109" lon="2.5700003397628173"><ele>78.0</ele><time>2026-04-08T17:09:47.998Z</time></trkpt><trkpt lat="48.100081024213324" lon="2.57019192302231"><ele>78.0</ele><time>2026-04-08T17:09:48.998Z</time></trkpt><trkpt lat="48.10008859827254" lon="2.5703661881907744"><ele>78.0</ele><time>2026-04-08T17:09:49.998Z</time></trkpt><trkpt lat="48.10010405452251" lon="2.5705224313200294"><ele>78.0</ele><time>2026-04-08T17:09:50.998Z</time></trkpt><trkpt lat="48.10011177197121" lon="2.5706561594922195"><ele>78.0</ele><time>2026-04-08T17:09:51.998Z</time></trkpt><trkpt lat="48.10011964286348" lon="2.570780459213045"><ele>78.4</ele><time>2026-04-08T17:09:52.998Z</time></trkpt><trkpt lat="48.100127284590826" lon="2.570881046982338"><ele>78.8</ele><time>2026-04-08T17:09:53.998Z</time></trkpt><trkpt lat="48.10013527769869" lon="2.571009294894092"><ele>79.2</ele><time>2026-04-08T17:09:55.998Z</time></trkpt><trkpt lat="48.10015808072272" lon="2.5711286370739477"><ele>79.6</ele><time>2026-04-08T17:09:58.998Z</time></trkpt><trkpt lat="48.100261314804136" lon="2.571085075797066"><ele>80.0</ele><time>2026-04-08T17:10:01.998Z</time></trkpt><trkpt lat="48.10039558893433" lon="2.571087340412329"><ele>80.0</ele><time>2026-04-08T17:10:03.998Z</time></trkpt><trkpt lat="48.10046483643014" lon="2.5710281617168467"><ele>80.0</ele><time>2026-04-08T17:10:04.998Z</time></trkpt><trkpt lat="48.10056256587904" lon="2.570948613076474"><ele>80.0</ele><time>2026-04-08T17:10:05.998Z</time></trkpt><trkpt lat="48.1006982648958" lon="2.5708042369299946"><ele>80.0</ele><time>2026-04-08T17:10:06.998Z</time></trkpt><trkpt lat="48.1008331240132" lon="2.5707213932296775"><ele>80.5</ele><time>2026-04-08T17:10:07.998Z</time></trkpt><trkpt lat="48.10094715963343" lon="2.5706455708164087"><ele>81.0</ele><time>2026-04-08T17:10:08.998Z</time></trkpt><trkpt lat="48.10105975600758" lon="2.5705675549247493"><ele>81.5</ele><time>2026-04-08T17:10:09.998Z</time></trkpt><trkpt lat="48.10117532720304" lon="2.5704809935951234"><ele>82.0</ele><time>2026-04-08T17:10:10.998Z</time></trkpt><trkpt lat="48.10129520195018" lon="2.570404077573226"><ele>81.25</ele><time>2026-04-08T17:10:11.998Z</time></trkpt><trkpt lat="48.10141497890337" lon="2.570324084783479"><ele>80.5</ele><time>2026-04-08T17:10:12.998Z</time></trkpt><trkpt lat="48.10153458181712" lon="2.570257168810502"><ele>79.75</ele><time>2026-04-08T17:10:13.998Z</time></trkpt><trkpt lat="48.10165562797721" lon="2.5701847978011165"><ele>79.0</ele><time>2026-04-08T17:10:14.998Z</time></trkpt><trkpt lat="48.10175985835268" lon="2.5700978713963"><ele>79.0</ele><time>2026-04-08T17:10:15.998Z</time></trkpt><trkpt lat="48.101856506907886" lon="2.5700158582338397"><ele>79.0</ele><time>2026-04-08T17:10:16.998Z</time></trkpt><trkpt lat="48.10194377615176" lon="2.5699720438421996"><ele>79.0</ele><time>2026-04-08T17:10:17.998Z</time></trkpt><trkpt lat="48.102028326270066" lon="2.5699084573170614"><ele>79.0</ele><time>2026-04-08T17:10:18.998Z</time></trkpt><trkpt lat="48.10211405020751" lon="2.5698682142306875"><ele>79.0</ele><time>2026-04-08T17:10:20.999Z</time></trkpt><trkpt lat="48.10216518057067" lon="2.569951638554004"><ele>79.0</ele><time>2026-04-08T17:10:25.999Z</time></trkpt><trkpt lat="48.10220489213791" lon="2.5701608608259034"><ele>79.0</ele><time>2026-04-08T17:10:28.999Z</time></trkpt><trkpt lat="48.10222426575133" lon="2.570357333154907"><ele>79.0</ele><time>2026-04-08T17:10:29.999Z</time></trkpt><trkpt lat="48.10222826603307" lon="2.570576685261465"><ele>79.0</ele><time>2026-04-08T17:10:30.999Z</time></trkpt><trkpt lat="48.10224565811922" lon="2.5707381175234207"><ele>79.5</ele><time>2026-04-08T17:10:31.999Z</time></trkpt><trkpt lat="48.10226731833962" lon="2.5709260648661187"><ele>80.0</ele><time>2026-04-08T17:10:32.999Z</time></trkpt><trkpt lat="48.10229171740681" lon="2.571116461638368"><ele>80.5</ele><time>2026-04-08T17:10:33.999Z</time></trkpt><trkpt lat="48.10231418578221" lon="2.5713265685592877"><ele>81.0</ele><time>2026-04-08T17:10:34.999Z</time></trkpt><trkpt lat="48.10234079002674" lon="2.571507509052799"><ele>81.0</ele><time>2026-04-08T17:10:35.999Z</time></trkpt><trkpt lat="48.10236725603441" lon="2.571686216572018"><ele>81.0</ele><time>2026-04-08T17:10:36.999Z</time></trkpt><trkpt lat="48.10238289582295" lon="2.5718453112466086"><ele>81.0</ele><time>2026-04-08T17:10:37.999Z</time></trkpt><trkpt lat="48.102397369886795" lon="2.5720140552997366"><ele>81.0</ele><time>2026-04-08T17:10:38.999Z</time></trkpt><trkpt lat="48.102411948489404" lon="2.5721627947206707"><ele>81.0</ele><time>2026-04-08T17:10:39.999Z</time></trkpt><trkpt lat="48.10243307379793" lon="2.572279195843956"><ele>80.6</ele><time>2026-04-08T17:10:40.999Z</time></trkpt><trkpt lat="48.102436768589584" lon="2.5723797312924375"><ele>80.19999999999999</ele><time>2026-04-08T17:10:41.999Z</time></trkpt><trkpt lat="48.10245280826273" lon="2.572519129049739"><ele>79.80000000000001</ele><time>2026-04-08T17:10:42.999Z</time></trkpt><trkpt lat="48.102473514560394" lon="2.5726624811806293"><ele>79.4</ele><time>2026-04-08T17:10:43.999Z</time></trkpt><trkpt lat="48.10249344965923" lon="2.5728219932598657"><ele>79.0</ele><time>2026-04-08T17:10:44.999Z</time></trkpt><trkpt lat="48.10250909951645" lon="2.5729909068523606"><ele>79.0</ele><time>2026-04-08T17:10:45.999Z</time></trkpt><trkpt lat="48.102532328436574" lon="2.573184155186155"><ele>79.0</ele><time>2026-04-08T17:10:46.999Z</time></trkpt><trkpt lat="48.10251860602493" lon="2.5733452288057186"><ele>79.0</ele><time>2026-04-08T17:10:47.999Z</time></trkpt><trkpt lat="48.10254093881874" lon="2.5735100690925132"><ele>79.0</ele><time>2026-04-08T17:10:48.999Z</time></trkpt><trkpt lat="48.10256054368015" lon="2.5736859885831564"><ele>79.0</ele><time>2026-04-08T17:10:49.999Z</time></trkpt><trkpt lat="48.10257660369523" lon="2.5738440816530233"><ele>79.0</ele><time>2026-04-08T17:10:50.999Z</time></trkpt><trkpt lat="48.102587427302616" lon="2.573951061849063"><ele>79.0</ele><time>2026-04-08T17:10:51.999Z</time></trkpt><trkpt lat="48.10259458073527" lon="2.5740544195745936"><ele>79.0</ele><time>2026-04-08T17:10:52.999Z</time></trkpt><trkpt lat="48.10260528934395" lon="2.5741507642175834"><ele>79.0</ele><time>2026-04-08T17:10:53.999Z</time></trkpt><trkpt lat="48.10262634554799" lon="2.5743151819306975"><ele>79.0</ele><time>2026-04-08T17:10:55.999Z</time></trkpt><trkpt lat="48.102649616302" lon="2.5744106332838976"><ele>78.8</ele><time>2026-04-08T17:10:56.999Z</time></trkpt><trkpt lat="48.10269075028159" lon="2.5745272718447954"><ele>78.60000000000001</ele><time>2026-04-08T17:10:57.999Z</time></trkpt><trkpt lat="48.102742571017046" lon="2.574652044688245"><ele>78.4</ele><time>2026-04-08T17:10:58.999Z</time></trkpt><trkpt lat="48.10279719482647" lon="2.574796810542549"><ele>78.2</ele><time>2026-04-08T17:10:59.999Z</time></trkpt><trkpt lat="48.10284670688635" lon="2.57495493415148"><ele>78.0</ele><time>2026-04-08T17:11:00.999Z</time></trkpt><trkpt lat="48.102890204080374" lon="2.5751144778903723"><ele>78.0</ele><time>2026-04-08T17:11:01.999Z</time></trkpt><trkpt lat="48.10293289901499" lon="2.5752738532226243"><ele>78.0</ele><time>2026-04-08T17:11:02.999Z</time></trkpt><trkpt lat="48.10295913822581" lon="2.575419097488188"><ele>78.0</ele><time>2026-04-08T17:11:03.999Z</time></trkpt><trkpt lat="48.102990911737905" lon="2.5755359599212566"><ele>78.0</ele><time>2026-04-08T17:11:04.999Z</time></trkpt><trkpt lat="48.10301509972369" lon="2.575639450551497"><ele>78.0</ele><time>2026-04-08T17:11:05.999Z</time></trkpt><trkpt lat="48.103090402452786" lon="2.575745232302534"><ele>78.0</ele><time>2026-04-08T17:11:07.999Z</time></trkpt><trkpt lat="48.10318002797479" lon="2.5756551399045344"><ele>78.0</ele><time>2026-04-08T17:11:09.999Z</time></trkpt><trkpt lat="48.103241713352965" lon="2.575585685273217"><ele>78.0</ele><time>2026-04-08T17:11:10.999Z</time></trkpt><trkpt lat="48.10330833283833" lon="2.57554681780562"><ele>78.0</ele><time>2026-04-08T17:11:11.999Z</time></trkpt><trkpt lat="48.10335001428176" lon="2.57545510671516"><ele>78.0</ele><time>2026-04-08T17:11:12.999Z</time></trkpt><trkpt lat="48.103394157660915" lon="2.5753846361080006"><ele>78.0</ele><time>2026-04-08T17:11:13.999Z</time></trkpt><trkpt lat="48.10344962571312" lon="2.575305161658212"><ele>78.4</ele><time>2026-04-08T17:11:14.999Z</time></trkpt><trkpt lat="48.1035131480944" lon="2.575240459855508"><ele>78.8</ele><time>2026-04-08T17:11:15.999Z</time></trkpt><trkpt lat="48.10358450968326" lon="2.5751873762634014"><ele>79.2</ele><time>2026-04-08T17:11:16.999Z</time></trkpt><trkpt lat="48.10366958150587" lon="2.5750881518338375"><ele>79.6</ele><time>2026-04-08T17:11:17.999Z</time></trkpt><trkpt lat="48.10375321153758" lon="2.5750012013921038"><ele>80.0</ele><time>2026-04-08T17:11:18.999Z</time></trkpt><trkpt lat="48.103843079340876" lon="2.5749008811061795"><ele>80.0</ele><time>2026-04-08T17:11:19.999Z</time></trkpt><trkpt lat="48.10391307906587" lon="2.574806000084993"><ele>80.0</ele><time>2026-04-08T17:11:20.999Z</time></trkpt><trkpt lat="48.10399943151738" lon="2.5747070767789157"><ele>80.0</ele><time>2026-04-08T17:11:21.999Z</time></trkpt><trkpt lat="48.104088236213556" lon="2.574604060702467"><ele>80.0</ele><time>2026-04-08T17:11:22.999Z</time></trkpt><trkpt lat="48.10418149269867" lon="2.574502407523401"><ele>80.0</ele><time>2026-04-08T17:11:23.999Z</time></trkpt><trkpt lat="48.10426716126111" lon="2.5743940461120745"><ele>79.75</ele><time>2026-04-08T17:11:24.999Z</time></trkpt><trkpt lat="48.10436640801655" lon="2.5742946227185155"><ele>79.5</ele><time>2026-04-08T17:11:25.999Z</time></trkpt><trkpt lat="48.104477691560945" lon="2.5741739736973974"><ele>79.25</ele><time>2026-04-08T17:11:26.999Z</time></trkpt><trkpt lat="48.104580891436484" lon="2.5740567811548636"><ele>79.0</ele><time>2026-04-08T17:11:27.999Z</time></trkpt><trkpt lat="48.10468114623027" lon="2.573939700280956"><ele>79.0</ele><time>2026-04-08T17:11:28.999Z</time></trkpt><trkpt lat="48.104788346908066" lon="2.5738065334538494"><ele>79.0</ele><time>2026-04-08T17:11:29.999Z</time></trkpt><trkpt lat="48.10489146612339" lon="2.5736821069619604"><ele>79.0</ele><time>2026-04-08T17:11:30.999Z</time></trkpt><trkpt lat="48.104964666573025" lon="2.5735859105112504"><ele>79.0</ele><time>2026-04-08T17:11:31.999Z</time></trkpt><trkpt lat="48.105042823804695" lon="2.5735240742332772"><ele>79.2</ele><time>2026-04-08T17:11:32.999Z</time></trkpt><trkpt lat="48.105109533250655" lon="2.5734599892040455"><ele>79.4</ele><time>2026-04-08T17:11:33.999Z</time></trkpt><trkpt lat="48.105176236726344" lon="2.573382361605309"><ele>79.6</ele><time>2026-04-08T17:11:34.999Z</time></trkpt><trkpt lat="48.1052388660885" lon="2.5733251408073827"><ele>79.8</ele><time>2026-04-08T17:11:35.999Z</time></trkpt><trkpt lat="48.105310251811666" lon="2.57317942329719"><ele>80.0</ele><time>2026-04-08T17:11:37.999Z</time></trkpt><trkpt lat="48.10530455826649" lon="2.5729993101722024"><ele>79.66666666666667</ele><time>2026-04-08T17:11:39.999Z</time></trkpt><trkpt lat="48.105279503985095" lon="2.5728027689077897"><ele>79.33333333333334</ele><time>2026-04-08T17:11:41.999Z</time></trkpt><trkpt lat="48.10526658701852" lon="2.5727000425200095"><ele>79.0</ele><time>2026-04-08T17:11:42.999Z</time></trkpt><trkpt lat="48.1052574452408" lon="2.572585693901028"><ele>78.66666666666667</ele><time>2026-04-08T17:11:43.999Z</time></trkpt><trkpt lat="48.10525094602903" lon="2.572477350811859"><ele>78.33333333333333</ele><time>2026-04-08T17:11:44.999Z</time></trkpt><trkpt lat="48.105238459622576" lon="2.5723681458421592"><ele>78.0</ele><time>2026-04-08T17:11:45.999Z</time></trkpt><trkpt lat="48.105225490120986" lon="2.5722711344311753"><ele>78.0</ele><time>2026-04-08T17:11:46.999Z</time></trkpt><trkpt lat="48.10521722270928" lon="2.5721650093145887"><ele>78.0</ele><time>2026-04-08T17:11:47.999Z</time></trkpt><trkpt lat="48.10521057849758" lon="2.5720609578617104"><ele>78.0</ele><time>2026-04-08T17:11:48.999Z</time></trkpt><trkpt lat="48.10520247398385" lon="2.5719627244947474"><ele>78.0</ele><time>2026-04-08T17:11:49.999Z</time></trkpt><trkpt lat="48.105192746935174" lon="2.571863018452976"><ele>78.0</ele><time>2026-04-08T17:11:50.999Z</time></trkpt><trkpt lat="48.10517611325169" lon="2.5716906242386837"><ele>78.0</ele><time>2026-04-08T17:11:52.999Z</time></trkpt><trkpt lat="48.1051587037585" lon="2.5715389853197235"><ele>78.16666666666667</ele><time>2026-04-08T17:11:54.998Z</time></trkpt><trkpt lat="48.10514573176174" lon="2.571371109955652"><ele>78.33333333333333</ele><time>2026-04-08T17:11:56.998Z</time></trkpt><trkpt lat="48.10513639964166" lon="2.5712747647118017"><ele>78.5</ele><time>2026-04-08T17:11:57.998Z</time></trkpt><trkpt lat="48.105125619670694" lon="2.571173681227436"><ele>78.66666666666666</ele><time>2026-04-08T17:11:58.998Z</time></trkpt><trkpt lat="48.10511936086755" lon="2.571062422873089"><ele>78.83333333333333</ele><time>2026-04-08T17:11:59.998Z</time></trkpt><trkpt lat="48.10510777804548" lon="2.5709613154554356"><ele>79.0</ele><time>2026-04-08T17:12:00.998Z</time></trkpt><trkpt lat="48.105101523229365" lon="2.5708592797023897"><ele>79.0</ele><time>2026-04-08T17:12:01.998Z</time></trkpt><trkpt lat="48.10508373791535" lon="2.570751905459409"><ele>79.0</ele><time>2026-04-08T17:12:02.998Z</time></trkpt><trkpt lat="48.105065693863814" lon="2.5706406277986953"><ele>79.0</ele><time>2026-04-08T17:12:03.998Z</time></trkpt><trkpt lat="48.105048459750556" lon="2.5705386947972406"><ele>79.0</ele><time>2026-04-08T17:12:04.998Z</time></trkpt><trkpt lat="48.10504080701513" lon="2.570415766926597"><ele>79.0</ele><time>2026-04-08T17:12:05.998Z</time></trkpt><trkpt lat="48.10503476307111" lon="2.570297439107377"><ele>79.0</ele><time>2026-04-08T17:12:06.998Z</time></trkpt><trkpt lat="48.10502351969818" lon="2.5701627807138547"><ele>79.0</ele><time>2026-04-08T17:12:07.998Z</time></trkpt><trkpt lat="48.105010322428946" lon="2.5700156998191885"><ele>79.0</ele><time>2026-04-08T17:12:08.998Z</time></trkpt><trkpt lat="48.10499816343895" lon="2.5698695759698054"><ele>79.0</ele><time>2026-04-08T17:12:09.998Z</time></trkpt><trkpt lat="48.10498030633613" lon="2.5697344677383787"><ele>79.0</ele><time>2026-04-08T17:12:10.998Z</time></trkpt><trkpt lat="48.104961234271734" lon="2.5696015687069225"><ele>79.0</ele><time>2026-04-08T17:12:11.998Z</time></trkpt><trkpt lat="48.10494750417899" lon="2.56946622723127"><ele>79.0</ele><time>2026-04-08T17:12:12.998Z</time></trkpt><trkpt lat="48.10493994079219" lon="2.5693427980152936"><ele>79.0</ele><time>2026-04-08T17:12:13.998Z</time></trkpt><trkpt lat="48.104929482026016" lon="2.569208605204538"><ele>79.0</ele><time>2026-04-08T17:12:14.998Z</time></trkpt><trkpt lat="48.10491866598674" lon="2.5690767003491737"><ele>79.0</ele><time>2026-04-08T17:12:15.998Z</time></trkpt><trkpt lat="48.10490429590268" lon="2.568946425134774"><ele>79.0</ele><time>2026-04-08T17:12:16.998Z</time></trkpt><trkpt lat="48.104885561490036" lon="2.56881737700263"><ele>79.0</ele><time>2026-04-08T17:12:17.998Z</time></trkpt><trkpt lat="48.104865052688076" lon="2.568671267758087"><ele>79.0</ele><time>2026-04-08T17:12:18.998Z</time></trkpt><trkpt lat="48.1048585396283" lon="2.5685250067247316"><ele>79.0</ele><time>2026-04-08T17:12:19.998Z</time></trkpt><trkpt lat="48.10483541237708" lon="2.5683659323659613"><ele>79.0</ele><time>2026-04-08T17:12:20.998Z</time></trkpt><trkpt lat="48.10482929171174" lon="2.5682310595001208"><ele>79.0</ele><time>2026-04-08T17:12:21.998Z</time></trkpt><trkpt lat="48.10481485031188" lon="2.568095465654553"><ele>79.0</ele><time>2026-04-08T17:12:22.998Z</time></trkpt><trkpt lat="48.104804445953704" lon="2.5679894571838333"><ele>79.0</ele><time>2026-04-08T17:12:23.998Z</time></trkpt><trkpt lat="48.10479821260722" lon="2.567865121175156"><ele>79.0</ele><time>2026-04-08T17:12:24.998Z</time></trkpt><trkpt lat="48.10478524754498" lon="2.5677240869906144"><ele>79.0</ele><time>2026-04-08T17:12:25.998Z</time></trkpt><trkpt lat="48.10478024087715" lon="2.5675924713754217"><ele>79.0</ele><time>2026-04-08T17:12:27Z</time></trkpt><trkpt lat="48.10477272065241" lon="2.567479901070014"><ele>79.0</ele><time>2026-04-08T17:12:28Z</time></trkpt><trkpt lat="48.10476017094794" lon="2.5673511324256997"><ele>79.0</ele><time>2026-04-08T17:12:29Z</time></trkpt><trkpt lat="48.10475691201078" lon="2.5672142112146754"><ele>79.0</ele><time>2026-04-08T17:12:30Z</time></trkpt><trkpt lat="48.104742147430244" lon="2.5671061966205437"><ele>79.0</ele><time>2026-04-08T17:12:31Z</time></trkpt><trkpt lat="48.104732023027054" lon="2.567009499127358"><ele>79.0</ele><time>2026-04-08T17:12:32Z</time></trkpt><trkpt lat="48.104726282716655" lon="2.566901386809058"><ele>79.0</ele><time>2026-04-08T17:12:33Z</time></trkpt><trkpt lat="48.1047083115036" lon="2.5667728354098394"><ele>79.0</ele><time>2026-04-08T17:12:34Z</time></trkpt><trkpt lat="48.104694863990225" lon="2.566651086156757"><ele>79.0</ele><time>2026-04-08T17:12:35Z</time></trkpt><trkpt lat="48.10468449761605" lon="2.566549971186475"><ele>79.00000000000001</ele><time>2026-04-08T17:12:36Z</time></trkpt><trkpt lat="48.104672997116445" lon="2.5664438382932864"><ele>79.0</ele><time>2026-04-08T17:12:37Z</time></trkpt><trkpt lat="48.10466634790832" lon="2.56633568424287"><ele>79.0</ele><time>2026-04-08T17:12:38Z</time></trkpt><trkpt lat="48.10465932228678" lon="2.5662298996533384"><ele>79.0</ele><time>2026-04-08T17:12:39Z</time></trkpt><trkpt lat="48.10464445760683" lon="2.5661310059666635"><ele>79.0</ele><time>2026-04-08T17:12:40Z</time></trkpt><trkpt lat="48.104627358230864" lon="2.56602340073458"><ele>79.00000000000001</ele><time>2026-04-08T17:12:41Z</time></trkpt><trkpt lat="48.10461833294625" lon="2.5659249981237418"><ele>79.0</ele><time>2026-04-08T17:12:42Z</time></trkpt><trkpt lat="48.10460198265365" lon="2.5658029059840293"><ele>79.0</ele><time>2026-04-08T17:12:43Z</time></trkpt><trkpt lat="48.10459003551691" lon="2.565704499171216"><ele>79.0</ele><time>2026-04-08T17:12:44Z</time></trkpt><trkpt lat="48.10457773614094" lon="2.5656099757392696"><ele>79.0</ele><time>2026-04-08T17:12:45Z</time></trkpt><trkpt lat="48.10456233696245" lon="2.5654730109821937"><ele>79.0</ele><time>2026-04-08T17:12:47Z</time></trkpt><trkpt lat="48.10455969419537" lon="2.5653730837319997"><ele>79.0</ele><time>2026-04-08T17:12:48Z</time></trkpt><trkpt lat="48.10456229894761" lon="2.5652715637704073"><ele>79.0</ele><time>2026-04-08T17:12:49Z</time></trkpt><trkpt lat="48.104593932982475" lon="2.565126758982819"><ele>79.0</ele><time>2026-04-08T17:12:51Z</time></trkpt><trkpt lat="48.104678411870154" lon="2.5650203999934846"><ele>79.0</ele><time>2026-04-08T17:12:53Z</time></trkpt><trkpt lat="48.104753852577545" lon="2.565060442573203"><ele>79.0</ele><time>2026-04-08T17:13:05.999Z</time></trkpt><trkpt lat="48.10476906946326" lon="2.565253641915805"><ele>79.0</ele><time>2026-04-08T17:13:07.999Z</time></trkpt><trkpt lat="48.104805693995495" lon="2.565353361444462"><ele>79.0</ele><time>2026-04-08T17:13:08.999Z</time></trkpt><trkpt lat="48.10484762260467" lon="2.5654347356759297"><ele>79.0</ele><time>2026-04-08T17:13:09.999Z</time></trkpt><trkpt lat="48.104900793646024" lon="2.5654863969745163"><ele>79.0</ele><time>2026-04-08T17:13:10.999Z</time></trkpt><trkpt lat="48.1049682953548" lon="2.56553397431083"><ele>79.0</ele><time>2026-04-08T17:13:11.999Z</time></trkpt><trkpt lat="48.10510218360019" lon="2.5654822228226646"><ele>79.0</ele><time>2026-04-08T17:13:13.999Z</time></trkpt><trkpt lat="48.10516922931899" lon="2.5654624437839715"><ele>79.0</ele><time>2026-04-08T17:13:14.999Z</time></trkpt><trkpt lat="48.1052454460028" lon="2.565446942253102"><ele>79.0</ele><time>2026-04-08T17:13:15.999Z</time></trkpt><trkpt lat="48.10531576843177" lon="2.5654267133897215"><ele>79.16666666666666</ele><time>2026-04-08T17:13:16.999Z</time></trkpt><trkpt lat="48.105390086814694" lon="2.565413333792937"><ele>79.33333333333333</ele><time>2026-04-08T17:13:17.999Z</time></trkpt><trkpt lat="48.10546162909239" lon="2.565391702418828"><ele>79.5</ele><time>2026-04-08T17:13:18.999Z</time></trkpt><trkpt lat="48.105528705327295" lon="2.565376899072718"><ele>79.66666666666667</ele><time>2026-04-08T17:13:19.999Z</time></trkpt><trkpt lat="48.10559238632488" lon="2.5653652564121647"><ele>79.83333333333334</ele><time>2026-04-08T17:13:20.999Z</time></trkpt><trkpt lat="48.10565778462855" lon="2.5653530862651537"><ele>80.0</ele><time>2026-04-08T17:13:21.999Z</time></trkpt><trkpt lat="48.1057928539566" lon="2.5653499601042733"><ele>80.0</ele><time>2026-04-08T17:13:23.999Z</time></trkpt><trkpt lat="48.1058648992462" lon="2.565331275797127"><ele>80.0</ele><time>2026-04-08T17:13:24.999Z</time></trkpt><trkpt lat="48.10591661652666" lon="2.565277381327187"><ele>80.0</ele><time>2026-04-08T17:13:26.999Z</time></trkpt><trkpt lat="48.10604959225466" lon="2.5649020635762394"><ele>80.0</ele><time>2026-04-08T17:14:20.998Z</time></trkpt><trkpt lat="48.10615866317026" lon="2.564814076492905"><ele>80.0</ele><time>2026-04-08T17:14:21.998Z</time></trkpt><trkpt lat="48.10629096440833" lon="2.5647297782728367"><ele>80.0</ele><time>2026-04-08T17:14:22.998Z</time></trkpt><trkpt lat="48.106446468369704" lon="2.564759767633403"><ele>80.0</ele><time>2026-04-08T17:14:23.998Z</time></trkpt><trkpt lat="48.10661031414816" lon="2.564766258690161"><ele>79.33333333333334</ele><time>2026-04-08T17:14:24.998Z</time></trkpt><trkpt lat="48.106790417201765" lon="2.5647814194920318"><ele>78.66666666666667</ele><time>2026-04-08T17:14:25.998Z</time></trkpt><trkpt lat="48.10700737551782" lon="2.564752585619907"><ele>78.0</ele><time>2026-04-08T17:14:26.998Z</time></trkpt><trkpt lat="48.10719647907931" lon="2.5647339331623673"><ele>78.5</ele><time>2026-04-08T17:14:27.998Z</time></trkpt><trkpt lat="48.107437652061016" lon="2.564716469531877"><ele>79.0</ele><time>2026-04-08T17:14:28.998Z</time></trkpt><trkpt lat="48.10765424828375" lon="2.5647006144737303"><ele>79.0</ele><time>2026-04-08T17:14:29.998Z</time></trkpt><trkpt lat="48.1080228138659" lon="2.564695970177345"><ele>79.0</ele><time>2026-04-08T17:14:31.998Z</time></trkpt><trkpt lat="48.10818357387998" lon="2.564676255223713"><ele>78.75</ele><time>2026-04-08T17:14:33Z</time></trkpt><trkpt lat="48.108311576059236" lon="2.5646736655699245"><ele>78.5</ele><time>2026-04-08T17:14:34Z</time></trkpt><trkpt lat="48.108425942078426" lon="2.564643754314064"><ele>78.25</ele><time>2026-04-08T17:14:35Z</time></trkpt><trkpt lat="48.108535703134095" lon="2.564635749430383"><ele>78.0</ele><time>2026-04-08T17:14:36Z</time></trkpt><trkpt lat="48.1086452731597" lon="2.5646238177453258"><ele>78.0</ele><time>2026-04-08T17:14:37Z</time></trkpt><trkpt lat="48.10874947656563" lon="2.5646020447923212"><ele>78.0</ele><time>2026-04-08T17:14:38Z</time></trkpt><trkpt lat="48.108841235386336" lon="2.5645766057214194"><ele>78.0</ele><time>2026-04-08T17:14:39Z</time></trkpt><trkpt lat="48.10893576048789" lon="2.56459094069935"><ele>78.0</ele><time>2026-04-08T17:14:40Z</time></trkpt><trkpt lat="48.10900303879562" lon="2.5645558177491816"><ele>78.0</ele><time>2026-04-08T17:14:41Z</time></trkpt><trkpt lat="48.109087254256664" lon="2.5645622324727273"><ele>78.0</ele><time>2026-04-08T17:14:43Z</time></trkpt><trkpt lat="48.10918347096775" lon="2.564505647320603"><ele>78.0</ele><time>2026-04-08T17:14:47Z</time></trkpt><trkpt lat="48.10924958048931" lon="2.5644764086752843"><ele>78.0</ele><time>2026-04-08T17:14:50Z</time></trkpt><trkpt lat="48.109375099212585" lon="2.564422254199089"><ele>78.0</ele><time>2026-04-08T17:14:52Z</time></trkpt><trkpt lat="48.10949002479372" lon="2.564381618182308"><ele>78.0</ele><time>2026-04-08T17:14:53Z</time></trkpt><trkpt lat="48.109675295174114" lon="2.564350199117809"><ele>78.0</ele><time>2026-04-08T17:14:54Z</time></trkpt><trkpt lat="48.10985956768105" lon="2.564303600964055"><ele>78.0</ele><time>2026-04-08T17:14:55Z</time></trkpt><trkpt lat="48.10999701609395" lon="2.5642710028778906"><ele>78.0</ele><time>2026-04-08T17:14:56Z</time></trkpt><trkpt lat="48.11011181904383" lon="2.5642299802573856"><ele>78.0</ele><time>2026-04-08T17:14:57Z</time></trkpt><trkpt lat="48.11022748430929" lon="2.5641504914476054"><ele>78.2</ele><time>2026-04-08T17:14:58Z</time></trkpt><trkpt lat="48.11033921602073" lon="2.5640509226920334"><ele>78.4</ele><time>2026-04-08T17:14:59Z</time></trkpt><trkpt lat="48.1104371745435" lon="2.5639469493631077"><ele>78.60000000000001</ele><time>2026-04-08T17:15:00Z</time></trkpt><trkpt lat="48.11051405223246" lon="2.5638621383643927"><ele>78.8</ele><time>2026-04-08T17:15:01Z</time></trkpt><trkpt lat="48.11058615488494" lon="2.5638278304852595"><ele>79.0</ele><time>2026-04-08T17:15:02Z</time></trkpt><trkpt lat="48.11068563027601" lon="2.5637445444039404"><ele>79.4</ele><time>2026-04-08T17:15:04Z</time></trkpt><trkpt lat="48.11076082928285" lon="2.5637258478582363"><ele>79.80000000000001</ele><time>2026-04-08T17:15:05Z</time></trkpt><trkpt lat="48.11085053059452" lon="2.563727843284353"><ele>80.19999999999999</ele><time>2026-04-08T17:15:06Z</time></trkpt><trkpt lat="48.110946490026315" lon="2.563764362377338"><ele>80.6</ele><time>2026-04-08T17:15:07Z</time></trkpt><trkpt lat="48.11104718312574" lon="2.563788465929043"><ele>81.0</ele><time>2026-04-08T17:15:08Z</time></trkpt><trkpt lat="48.111157744143284" lon="2.563814931628966"><ele>81.0</ele><time>2026-04-08T17:15:09Z</time></trkpt><trkpt lat="48.11126730668034" lon="2.5638184060546423"><ele>81.0</ele><time>2026-04-08T17:15:10Z</time></trkpt><trkpt lat="48.11137320170193" lon="2.563848838300929"><ele>81.0</ele><time>2026-04-08T17:15:11Z</time></trkpt><trkpt lat="48.111487581285196" lon="2.5638788647982786"><ele>81.0</ele><time>2026-04-08T17:15:12Z</time></trkpt><trkpt lat="48.1116195336015" lon="2.563896278771304"><ele>81.19999999999999</ele><time>2026-04-08T17:15:13Z</time></trkpt><trkpt lat="48.11171264570608" lon="2.563913494946252"><ele>81.39999999999999</ele><time>2026-04-08T17:15:14Z</time></trkpt><trkpt lat="48.11181818348638" lon="2.563911587268416"><ele>81.6</ele><time>2026-04-08T17:15:15Z</time></trkpt><trkpt lat="48.11193264203564" lon="2.5638810989023297"><ele>81.8</ele><time>2026-04-08T17:15:16Z</time></trkpt><trkpt lat="48.11203749562976" lon="2.5638313389066267"><ele>82.0</ele><time>2026-04-08T17:15:17Z</time></trkpt><trkpt lat="48.11212853679602" lon="2.5637911037117322"><ele>82.0</ele><time>2026-04-08T17:15:18Z</time></trkpt><trkpt lat="48.112230679284075" lon="2.5637454196287184"><ele>82.0</ele><time>2026-04-08T17:15:19Z</time></trkpt><trkpt lat="48.11231461886392" lon="2.563692608394991"><ele>82.0</ele><time>2026-04-08T17:15:20Z</time></trkpt><trkpt lat="48.112401899655794" lon="2.5636646666431497"><ele>82.0</ele><time>2026-04-08T17:15:21Z</time></trkpt><trkpt lat="48.11249892543897" lon="2.5636605890304422"><ele>82.0</ele><time>2026-04-08T17:15:21.999Z</time></trkpt><trkpt lat="48.11258799968606" lon="2.5636605614235664"><ele>82.0</ele><time>2026-04-08T17:15:22.999Z</time></trkpt><trkpt lat="48.11268567467067" lon="2.5636890643063315"><ele>82.0</ele><time>2026-04-08T17:15:23.999Z</time></trkpt><trkpt lat="48.11276422300772" lon="2.5637388079715024"><ele>82.0</ele><time>2026-04-08T17:15:24.999Z</time></trkpt><trkpt lat="48.112840126691175" lon="2.563747548171958"><ele>82.0</ele><time>2026-04-08T17:15:25.999Z</time></trkpt><trkpt lat="48.1129720772483" lon="2.5637801748691365"><ele>82.0</ele><time>2026-04-08T17:15:27.999Z</time></trkpt><trkpt lat="48.113045703653185" lon="2.5638003216006684"><ele>82.0</ele><time>2026-04-08T17:15:28.999Z</time></trkpt><trkpt lat="48.11311209558428" lon="2.5638213450481433"><ele>82.0</ele><time>2026-04-08T17:15:29.999Z</time></trkpt><trkpt lat="48.11320837013666" lon="2.5637868028757667"><ele>82.0</ele><time>2026-04-08T17:15:31.999Z</time></trkpt><trkpt lat="48.11327735633092" lon="2.5636920884744"><ele>82.0</ele><time>2026-04-08T17:15:33.999Z</time></trkpt><trkpt lat="48.11334673374622" lon="2.5635616183047105"><ele>82.0</ele><time>2026-04-08T17:15:35.999Z</time></trkpt><trkpt lat="48.11340038494046" lon="2.5634960321832407"><ele>82.0</ele><time>2026-04-08T17:15:36.999Z</time></trkpt><trkpt lat="48.11347718001441" lon="2.5634000722375485"><ele>82.0</ele><time>2026-04-08T17:15:38.999Z</time></trkpt><trkpt lat="48.113589351773534" lon="2.563376863349024"><ele>82.0</ele><time>2026-04-08T17:15:40.999Z</time></trkpt><trkpt lat="48.113645391724184" lon="2.563431142292269"><ele>82.0</ele><time>2026-04-08T17:15:41.999Z</time></trkpt><trkpt lat="48.11372228345495" lon="2.5634386369057696"><ele>82.0</ele><time>2026-04-08T17:15:42.999Z</time></trkpt><trkpt lat="48.11381111678663" lon="2.5634672732675283"><ele>82.0</ele><time>2026-04-08T17:15:43.999Z</time></trkpt><trkpt lat="48.113922366581235" lon="2.563480231688501"><ele>82.0</ele><time>2026-04-08T17:15:44.999Z</time></trkpt><trkpt lat="48.114034188248475" lon="2.5634908630670497"><ele>82.0</ele><time>2026-04-08T17:15:45.999Z</time></trkpt><trkpt lat="48.11415638987683" lon="2.563501063041819"><ele>82.0</ele><time>2026-04-08T17:15:46.999Z</time></trkpt><trkpt lat="48.114275362634956" lon="2.563524022977245"><ele>82.0</ele><time>2026-04-08T17:15:47.999Z</time></trkpt><trkpt lat="48.11442187349948" lon="2.563528832610418"><ele>82.25</ele><time>2026-04-08T17:15:48.999Z</time></trkpt><trkpt lat="48.114554013205456" lon="2.563517489565426"><ele>82.5</ele><time>2026-04-08T17:15:49.999Z</time></trkpt><trkpt lat="48.114676520258435" lon="2.5635229644872806"><ele>82.75</ele><time>2026-04-08T17:15:50.999Z</time></trkpt><trkpt lat="48.11479819047185" lon="2.563499826478316"><ele>83.0</ele><time>2026-04-08T17:15:51.999Z</time></trkpt><trkpt lat="48.11490892156437" lon="2.5634952025830504"><ele>83.0</ele><time>2026-04-08T17:15:52.999Z</time></trkpt><trkpt lat="48.11501846214132" lon="2.5634974369854056"><ele>83.0</ele><time>2026-04-08T17:15:53.999Z</time></trkpt><trkpt lat="48.115132141277776" lon="2.5634897009959423"><ele>83.0</ele><time>2026-04-08T17:15:54.999Z</time></trkpt><trkpt lat="48.11524028324062" lon="2.5634799463068934"><ele>83.0</ele><time>2026-04-08T17:15:55.999Z</time></trkpt><trkpt lat="48.115354166933884" lon="2.5634636943497067"><ele>83.0</ele><time>2026-04-08T17:15:56.999Z</time></trkpt><trkpt lat="48.11548075199969" lon="2.5634429162336145"><ele>83.0</ele><time>2026-04-08T17:15:57.999Z</time></trkpt><trkpt lat="48.11563871805274" lon="2.5634207227387398"><ele>83.0</ele><time>2026-04-08T17:15:58.999Z</time></trkpt><trkpt lat="48.11583096345102" lon="2.5634057223407076"><ele>83.0</ele><time>2026-04-08T17:15:59.999Z</time></trkpt><trkpt lat="48.11604082036737" lon="2.5633902875309427"><ele>83.0</ele><time>2026-04-08T17:16:00.999Z</time></trkpt><trkpt lat="48.11627922920248" lon="2.5633761030607563"><ele>83.0</ele><time>2026-04-08T17:16:01.999Z</time></trkpt><trkpt lat="48.11650983626886" lon="2.563363980331246"><ele>83.0</ele><time>2026-04-08T17:16:02.999Z</time></trkpt><trkpt lat="48.11674104288175" lon="2.563357805429741"><ele>83.0</ele><time>2026-04-08T17:16:03.999Z</time></trkpt><trkpt lat="48.116969629801225" lon="2.563328657314689"><ele>83.0</ele><time>2026-04-08T17:16:04.999Z</time></trkpt><trkpt lat="48.11717072013899" lon="2.5633037210200023"><ele>83.0</ele><time>2026-04-08T17:16:05.999Z</time></trkpt><trkpt lat="48.117351307685304" lon="2.5632930407088006"><ele>83.0</ele><time>2026-04-08T17:16:06.999Z</time></trkpt><trkpt lat="48.11750808410355" lon="2.563282814673764"><ele>82.75</ele><time>2026-04-08T17:16:07.999Z</time></trkpt><trkpt lat="48.11765424469511" lon="2.563298779416687"><ele>82.5</ele><time>2026-04-08T17:16:08.999Z</time></trkpt><trkpt lat="48.11779121913926" lon="2.5632884142298735"><ele>82.25</ele><time>2026-04-08T17:16:09.999Z</time></trkpt><trkpt lat="48.11791295425487" lon="2.563281081153735"><ele>82.0</ele><time>2026-04-08T17:16:10.999Z</time></trkpt><trkpt lat="48.118023122881525" lon="2.5632625129474222"><ele>82.0</ele><time>2026-04-08T17:16:11.999Z</time></trkpt><trkpt lat="48.118112805385394" lon="2.5632593942655473"><ele>82.0</ele><time>2026-04-08T17:16:12.999Z</time></trkpt><trkpt lat="48.118191928408876" lon="2.563265521910468"><ele>82.0</ele><time>2026-04-08T17:16:13.999Z</time></trkpt><trkpt lat="48.11826562139765" lon="2.5632522200155488"><ele>82.0</ele><time>2026-04-08T17:16:14.999Z</time></trkpt><trkpt lat="48.11834644210523" lon="2.5632488580660424"><ele>82.0</ele><time>2026-04-08T17:16:16.999Z</time></trkpt><trkpt lat="48.11842752479626" lon="2.5632569680926105"><ele>82.0</ele><time>2026-04-08T17:16:18.999Z</time></trkpt><trkpt lat="48.118530216883705" lon="2.563281685766956"><ele>82.14285714285714</ele><time>2026-04-08T17:16:20.999Z</time></trkpt><trkpt lat="48.11859195095253" lon="2.5633104462777117"><ele>82.28571428571428</ele><time>2026-04-08T17:16:28.999Z</time></trkpt><trkpt lat="48.11867425878273" lon="2.5632907148997304"><ele>82.42857142857142</ele><time>2026-04-08T17:16:47Z</time></trkpt><trkpt lat="48.118753499526264" lon="2.5632372499680525"><ele>82.57142857142857</ele><time>2026-04-08T17:16:49Z</time></trkpt><trkpt lat="48.118812695483584" lon="2.563271748968473"><ele>82.71428571428572</ele><time>2026-04-08T17:16:54Z</time></trkpt><trkpt lat="48.11888138146166" lon="2.563334462926401"><ele>82.85714285714285</ele><time>2026-04-08T17:17:00Z</time></trkpt><trkpt lat="48.118918106945316" lon="2.563418230897391"><ele>83.0</ele><time>2026-04-08T17:17:02Z</time></trkpt><trkpt lat="48.11895278173064" lon="2.5634970685537377"><ele>83.0</ele><time>2026-04-08T17:17:04Z</time></trkpt><trkpt lat="48.118971942744714" lon="2.5635967662535215"><ele>83.0</ele><time>2026-04-08T17:17:08Z</time></trkpt><trkpt lat="48.11907271299504" lon="2.5636958588833134"><ele>83.0</ele><time>2026-04-08T17:17:13Z</time></trkpt><trkpt lat="48.11916590106672" lon="2.563770188509915"><ele>83.0</ele><time>2026-04-08T17:17:14Z</time></trkpt><trkpt lat="48.11932081583225" lon="2.5638867590956353"><ele>82.66666666666667</ele><time>2026-04-08T17:17:15Z</time></trkpt><trkpt lat="48.1194872896589" lon="2.5639956359378884"><ele>82.33333333333333</ele><time>2026-04-08T17:17:16Z</time></trkpt><trkpt lat="48.11970890332306" lon="2.5641319502714923"><ele>82.0</ele><time>2026-04-08T17:17:17Z</time></trkpt><trkpt lat="48.11991247029406" lon="2.5642781520825886"><ele>82.0</ele><time>2026-04-08T17:17:18Z</time></trkpt><trkpt lat="48.12013196363906" lon="2.564409064499234"><ele>82.0</ele><time>2026-04-08T17:17:19Z</time></trkpt><trkpt lat="48.12034539859519" lon="2.564569893854991"><ele>82.0</ele><time>2026-04-08T17:17:20Z</time></trkpt><trkpt lat="48.12057407782948" lon="2.5647313815149375"><ele>82.0</ele><time>2026-04-08T17:17:21Z</time></trkpt><trkpt lat="48.12079793196223" lon="2.5649029053584402"><ele>82.0</ele><time>2026-04-08T17:17:22Z</time></trkpt><trkpt lat="48.121009710938914" lon="2.565063766563003"><ele>82.0</ele><time>2026-04-08T17:17:23Z</time></trkpt><trkpt lat="48.12121658588416" lon="2.5652070780511784"><ele>82.0</ele><time>2026-04-08T17:17:24Z</time></trkpt><trkpt lat="48.12141735491664" lon="2.565337365349392"><ele>82.0</ele><time>2026-04-08T17:17:25Z</time></trkpt><trkpt lat="48.1216113560869" lon="2.565470428380729"><ele>82.0</ele><time>2026-04-08T17:17:26Z</time></trkpt><trkpt lat="48.12182369312632" lon="2.5656262907329563"><ele>81.5</ele><time>2026-04-08T17:17:27Z</time></trkpt><trkpt lat="48.12204402025108" lon="2.565813363757716"><ele>81.0</ele><time>2026-04-08T17:17:28Z</time></trkpt><trkpt lat="48.12226508477602" lon="2.566033607005426"><ele>81.5</ele><time>2026-04-08T17:17:29Z</time></trkpt><trkpt lat="48.12250152916796" lon="2.5662353402879163"><ele>82.0</ele><time>2026-04-08T17:17:30Z</time></trkpt><trkpt lat="48.12270499776513" lon="2.566381564794208"><ele>82.0</ele><time>2026-04-08T17:17:31Z</time></trkpt><trkpt lat="48.122912308702126" lon="2.5665300785102736"><ele>82.0</ele><time>2026-04-08T17:17:32Z</time></trkpt><trkpt lat="48.12308774527328" lon="2.56666210527365"><ele>82.0</ele><time>2026-04-08T17:17:32.999Z</time></trkpt><trkpt lat="48.1232447385936" lon="2.566791300041854"><ele>82.0</ele><time>2026-04-08T17:17:33.999Z</time></trkpt><trkpt lat="48.12338476204182" lon="2.566918520896471"><ele>82.0</ele><time>2026-04-08T17:17:34.999Z</time></trkpt><trkpt lat="48.12351554297291" lon="2.5670304576363034"><ele>82.0</ele><time>2026-04-08T17:17:35.999Z</time></trkpt><trkpt lat="48.123634703388994" lon="2.5671542726829677"><ele>82.66666666666666</ele><time>2026-04-08T17:17:36.999Z</time></trkpt><trkpt lat="48.12376864727682" lon="2.5672591011156403"><ele>83.33333333333333</ele><time>2026-04-08T17:17:37.999Z</time></trkpt><trkpt lat="48.123899653942935" lon="2.567391053689103"><ele>84.0</ele><time>2026-04-08T17:17:38.999Z</time></trkpt><trkpt lat="48.124033624474556" lon="2.5675211830744797"><ele>83.66666666666667</ele><time>2026-04-08T17:17:39.999Z</time></trkpt><trkpt lat="48.12419428690371" lon="2.5676601133861228"><ele>83.33333333333334</ele><time>2026-04-08T17:17:40.999Z</time></trkpt><trkpt lat="48.124346324581694" lon="2.56779171220645"><ele>83.0</ele><time>2026-04-08T17:17:41.999Z</time></trkpt><trkpt lat="48.1244724037467" lon="2.567917964235122"><ele>83.0</ele><time>2026-04-08T17:17:42.999Z</time></trkpt><trkpt lat="48.124583294725284" lon="2.5680310043591974"><ele>83.0</ele><time>2026-04-08T17:17:43.999Z</time></trkpt><trkpt lat="48.124694888359315" lon="2.5681307389142516"><ele>83.0</ele><time>2026-04-08T17:17:44.999Z</time></trkpt><trkpt lat="48.12482732163843" lon="2.568271379582935"><ele>83.0</ele><time>2026-04-08T17:17:45.999Z</time></trkpt><trkpt lat="48.12496374613596" lon="2.5684233878040286"><ele>82.75</ele><time>2026-04-08T17:17:46.999Z</time></trkpt><trkpt lat="48.12508674679728" lon="2.568541882508293"><ele>82.5</ele><time>2026-04-08T17:17:47.999Z</time></trkpt><trkpt lat="48.12520550945601" lon="2.568626453570751"><ele>82.25</ele><time>2026-04-08T17:17:48.999Z</time></trkpt><trkpt lat="48.12531562419041" lon="2.5687301584315265"><ele>82.0</ele><time>2026-04-08T17:17:49.999Z</time></trkpt><trkpt lat="48.12545833679692" lon="2.568869008227472"><ele>82.0</ele><time>2026-04-08T17:17:50.999Z</time></trkpt><trkpt lat="48.12560488129213" lon="2.569016280448649"><ele>82.0</ele><time>2026-04-08T17:17:51.999Z</time></trkpt><trkpt lat="48.1257458344072" lon="2.5691328113293683"><ele>82.0</ele><time>2026-04-08T17:17:52.999Z</time></trkpt><trkpt lat="48.12592070012828" lon="2.5692975986501154"><ele>82.0</ele><time>2026-04-08T17:17:53.999Z</time></trkpt><trkpt lat="48.126082849375194" lon="2.5694608819321387"><ele>82.0</ele><time>2026-04-08T17:17:54.999Z</time></trkpt><trkpt lat="48.12624193037271" lon="2.569621587780886"><ele>82.0</ele><time>2026-04-08T17:17:55.999Z</time></trkpt><trkpt lat="48.12641150459234" lon="2.569795242535757"><ele>81.66666666666666</ele><time>2026-04-08T17:17:56.999Z</time></trkpt><trkpt lat="48.12655830665664" lon="2.5699375182837674"><ele>81.33333333333333</ele><time>2026-04-08T17:17:57.999Z</time></trkpt><trkpt lat="48.12667981393589" lon="2.570061914235294"><ele>81.0</ele><time>2026-04-08T17:17:58.999Z</time></trkpt><trkpt lat="48.12678854001254" lon="2.570169311532479"><ele>81.0</ele><time>2026-04-08T17:17:59.999Z</time></trkpt><trkpt lat="48.12688519936091" lon="2.5702663180475196"><ele>81.0</ele><time>2026-04-08T17:18:00.999Z</time></trkpt><trkpt lat="48.12697093716563" lon="2.570348553226478"><ele>81.0</ele><time>2026-04-08T17:18:01.999Z</time></trkpt><trkpt lat="48.127035698398885" lon="2.570415406246106"><ele>81.0</ele><time>2026-04-08T17:18:02.999Z</time></trkpt><trkpt lat="48.127097172564596" lon="2.5704465233066873"><ele>81.0</ele><time>2026-04-08T17:18:03.999Z</time></trkpt><trkpt lat="48.12717865930197" lon="2.5704272708587994"><ele>81.0</ele><time>2026-04-08T17:18:04.999Z</time></trkpt><trkpt lat="48.12727856740086" lon="2.5703633549358673"><ele>81.0</ele><time>2026-04-08T17:18:05.999Z</time></trkpt><trkpt lat="48.12738737560474" lon="2.570237283870659"><ele>81.0</ele><time>2026-04-08T17:18:06.999Z</time></trkpt><trkpt lat="48.12752736341351" lon="2.5700876760970983"><ele>81.0</ele><time>2026-04-08T17:18:07.999Z</time></trkpt><trkpt lat="48.127703566868874" lon="2.5699081038233005"><ele>81.0</ele><time>2026-04-08T17:18:08.999Z</time></trkpt><trkpt lat="48.12784180719719" lon="2.5697696587521492"><ele>81.0</ele><time>2026-04-08T17:18:09.999Z</time></trkpt><trkpt lat="48.12795030713003" lon="2.5696893917664236"><ele>81.0</ele><time>2026-04-08T17:18:10.999Z</time></trkpt><trkpt lat="48.12803234797542" lon="2.5696033189490937"><ele>81.0</ele><time>2026-04-08T17:18:11.999Z</time></trkpt><trkpt lat="48.12810484865299" lon="2.569515143219835"><ele>81.0</ele><time>2026-04-08T17:18:12.999Z</time></trkpt><trkpt lat="48.128232284339155" lon="2.5693975906699973"><ele>81.0</ele><time>2026-04-08T17:18:13.999Z</time></trkpt><trkpt lat="48.12835853557096" lon="2.5692926420318996"><ele>81.0</ele><time>2026-04-08T17:18:14.999Z</time></trkpt><trkpt lat="48.12846862821245" lon="2.569183813826502"><ele>81.0</ele><time>2026-04-08T17:18:15.999Z</time></trkpt><trkpt lat="48.12853168370634" lon="2.569117115845892"><ele>81.0</ele><time>2026-04-08T17:18:16.999Z</time></trkpt><trkpt lat="48.1285987695769" lon="2.569072904265388"><ele>81.0</ele><time>2026-04-08T17:18:21.999Z</time></trkpt><trkpt lat="48.12866789052678" lon="2.569013793258674"><ele>81.0</ele><time>2026-04-08T17:18:29.999Z</time></trkpt><trkpt lat="48.12859466000296" lon="2.5690323916094187"><ele>81.0</ele><time>2026-04-08T17:18:40.998Z</time></trkpt><trkpt lat="48.1284951857326" lon="2.5691369566029647"><ele>81.0</ele><time>2026-04-08T17:18:41.998Z</time></trkpt><trkpt lat="48.12835909643752" lon="2.5692562347887167"><ele>81.0</ele><time>2026-04-08T17:18:42.998Z</time></trkpt><trkpt lat="48.128192320935995" lon="2.56941606323782"><ele>81.0</ele><time>2026-04-08T17:18:43.998Z</time></trkpt><trkpt lat="48.12801906226737" lon="2.5695947966713524"><ele>81.0</ele><time>2026-04-08T17:18:45Z</time></trkpt><trkpt lat="48.12786421936856" lon="2.5697598696464157"><ele>81.0</ele><time>2026-04-08T17:18:46Z</time></trkpt><trkpt lat="48.1277274181378" lon="2.5698649045849358"><ele>81.0</ele><time>2026-04-08T17:18:47Z</time></trkpt><trkpt lat="48.127619434694665" lon="2.569974907194578"><ele>81.0</ele><time>2026-04-08T17:18:48Z</time></trkpt><trkpt lat="48.12751906047032" lon="2.570071197678084"><ele>81.0</ele><time>2026-04-08T17:18:49Z</time></trkpt><trkpt lat="48.12740906550043" lon="2.5701909227964204"><ele>81.0</ele><time>2026-04-08T17:18:50Z</time></trkpt><trkpt lat="48.12731270567293" lon="2.570267712900158"><ele>81.0</ele><time>2026-04-08T17:18:51Z</time></trkpt><trkpt lat="48.12721027672689" lon="2.5703793525230845"><ele>81.0</ele><time>2026-04-08T17:18:52Z</time></trkpt><trkpt lat="48.12714766641579" lon="2.5704161304377133"><ele>81.0</ele><time>2026-04-08T17:18:53Z</time></trkpt><trkpt lat="48.12709689786499" lon="2.5705365189503984"><ele>81.0</ele><time>2026-04-08T17:18:55Z</time></trkpt><trkpt lat="48.127113218816234" lon="2.570627637360531"><ele>81.0</ele><time>2026-04-08T17:18:56Z</time></trkpt><trkpt lat="48.127129576773356" lon="2.5708008444471573"><ele>81.0</ele><time>2026-04-08T17:18:57Z</time></trkpt><trkpt lat="48.12716889476895" lon="2.5710278822166464"><ele>81.0</ele><time>2026-04-08T17:18:58Z</time></trkpt><trkpt lat="48.12719619138702" lon="2.571247786890176"><ele>81.0</ele><time>2026-04-08T17:18:59Z</time></trkpt><trkpt lat="48.12721039301363" lon="2.571509604130194"><ele>81.33333333333333</ele><time>2026-04-08T17:19:00Z</time></trkpt><trkpt lat="48.12725138958442" lon="2.571789496876857"><ele>81.66666666666666</ele><time>2026-04-08T17:19:01Z</time></trkpt><trkpt lat="48.12728675066163" lon="2.572096044499349"><ele>82.0</ele><time>2026-04-08T17:19:02Z</time></trkpt><trkpt lat="48.127326199991046" lon="2.5724056497412584"><ele>82.33333333333333</ele><time>2026-04-08T17:19:03Z</time></trkpt><trkpt lat="48.12735747132812" lon="2.57273956884061"><ele>82.66666666666667</ele><time>2026-04-08T17:19:04Z</time></trkpt><trkpt lat="48.12738629505092" lon="2.573047270945839"><ele>83.0</ele><time>2026-04-08T17:19:05Z</time></trkpt><trkpt lat="48.127426783572936" lon="2.5733648368524547"><ele>83.0</ele><time>2026-04-08T17:19:06Z</time></trkpt><trkpt lat="48.127463394929656" lon="2.5736730177296065"><ele>83.0</ele><time>2026-04-08T17:19:07Z</time></trkpt><trkpt lat="48.1275024079304" lon="2.574016158659013"><ele>83.0</ele><time>2026-04-08T17:19:08Z</time></trkpt><trkpt lat="48.12753943488466" lon="2.5743267163754284"><ele>82.66666666666667</ele><time>2026-04-08T17:19:09Z</time></trkpt><trkpt lat="48.1275555310192" lon="2.574577838842794"><ele>82.33333333333333</ele><time>2026-04-08T17:19:10Z</time></trkpt><trkpt lat="48.12757304227068" lon="2.5748149087569785"><ele>82.0</ele><time>2026-04-08T17:19:11Z</time></trkpt><trkpt lat="48.127593981575174" lon="2.5750260446717643"><ele>82.0</ele><time>2026-04-08T17:19:12Z</time></trkpt><trkpt lat="48.127610285488586" lon="2.57522751838601"><ele>82.0</ele><time>2026-04-08T17:19:13Z</time></trkpt><trkpt lat="48.127634473653586" lon="2.575402689056984"><ele>82.0</ele><time>2026-04-08T17:19:14Z</time></trkpt><trkpt lat="48.12764896686645" lon="2.575552595910072"><ele>82.0</ele><time>2026-04-08T17:19:15Z</time></trkpt><trkpt lat="48.127664928191976" lon="2.5756896547053127"><ele>82.0</ele><time>2026-04-08T17:19:16Z</time></trkpt><trkpt lat="48.127674283168844" lon="2.5757861855902875"><ele>82.0</ele><time>2026-04-08T17:19:17Z</time></trkpt><trkpt lat="48.127756520098195" lon="2.5758744420738333"><ele>82.0</ele><time>2026-04-08T17:19:19Z</time></trkpt><trkpt lat="48.1278577685237" lon="2.5758482600415955"><ele>82.0</ele><time>2026-04-08T17:19:20Z</time></trkpt><trkpt lat="48.12800839825" lon="2.5757669997639105"><ele>82.0</ele><time>2026-04-08T17:19:21Z</time></trkpt><trkpt lat="48.12820170573231" lon="2.575686806190393"><ele>82.33333333333333</ele><time>2026-04-08T17:19:22Z</time></trkpt><trkpt lat="48.12840966517872" lon="2.57560813252756"><ele>82.66666666666667</ele><time>2026-04-08T17:19:23Z</time></trkpt><trkpt lat="48.12861751866813" lon="2.5755580985300863"><ele>83.0</ele><time>2026-04-08T17:19:24Z</time></trkpt><trkpt lat="48.12886849905674" lon="2.5754835375321434"><ele>83.0</ele><time>2026-04-08T17:19:25Z</time></trkpt><trkpt lat="48.12911867062463" lon="2.5754105925179043"><ele>83.0</ele><time>2026-04-08T17:19:26Z</time></trkpt><trkpt lat="48.12936754671844" lon="2.5753389943154827"><ele>83.0</ele><time>2026-04-08T17:19:27Z</time></trkpt><trkpt lat="48.12962561761627" lon="2.575268274103233"><ele>83.0</ele><time>2026-04-08T17:19:28Z</time></trkpt><trkpt lat="48.129842679770356" lon="2.5751978536621967"><ele>82.66666666666667</ele><time>2026-04-08T17:19:29Z</time></trkpt><trkpt lat="48.13003494782924" lon="2.57512944836032"><ele>82.33333333333333</ele><time>2026-04-08T17:19:30Z</time></trkpt><trkpt lat="48.13020309791692" lon="2.5750749873744665"><ele>82.0</ele><time>2026-04-08T17:19:31Z</time></trkpt><trkpt lat="48.13035456793889" lon="2.5750312050227997"><ele>82.0</ele><time>2026-04-08T17:19:32Z</time></trkpt><trkpt lat="48.13047300743467" lon="2.5749946597723814"><ele>82.0</ele><time>2026-04-08T17:19:33Z</time></trkpt><trkpt lat="48.130577965446314" lon="2.5749647245887695"><ele>82.0</ele><time>2026-04-08T17:19:34Z</time></trkpt><trkpt lat="48.13066813597354" lon="2.574945010685415"><ele>82.0</ele><time>2026-04-08T17:19:35Z</time></trkpt><trkpt lat="48.13074466294218" lon="2.574935553660039"><ele>82.0</ele><time>2026-04-08T17:19:36Z</time></trkpt><trkpt lat="48.1308135322657" lon="2.5750032259609092"><ele>82.75</ele><time>2026-04-08T17:19:37Z</time></trkpt><trkpt lat="48.13085709808902" lon="2.575129983136672"><ele>83.5</ele><time>2026-04-08T17:19:38Z</time></trkpt><trkpt lat="48.13089576713979" lon="2.5753306488979373"><ele>84.25</ele><time>2026-04-08T17:19:39Z</time></trkpt><trkpt lat="48.13093839414238" lon="2.575558961289866"><ele>85.0</ele><time>2026-04-08T17:19:40Z</time></trkpt><trkpt lat="48.13098374056246" lon="2.5757975174683505"><ele>85.0</ele><time>2026-04-08T17:19:41Z</time></trkpt><trkpt lat="48.13100780032129" lon="2.5759628397101384"><ele>85.0</ele><time>2026-04-08T17:19:41.999Z</time></trkpt><trkpt lat="48.131033381073756" lon="2.576094189385388"><ele>85.0</ele><time>2026-04-08T17:19:42.999Z</time></trkpt><trkpt lat="48.131080532656505" lon="2.576221711190168"><ele>85.0</ele><time>2026-04-08T17:19:44.999Z</time></trkpt><trkpt lat="48.13115695268011" lon="2.5763049083871508"><ele>85.0</ele><time>2026-04-08T17:19:46.999Z</time></trkpt><trkpt lat="48.13118313376022" lon="2.5764057489993397"><ele>85.0</ele><time>2026-04-08T17:19:49.999Z</time></trkpt><trkpt lat="48.131198249236824" lon="2.576520149829477"><ele>85.0</ele><time>2026-04-08T17:19:52.999Z</time></trkpt><trkpt lat="48.13120629839161" lon="2.5764028805971066"><ele>85.0</ele><time>2026-04-08T17:19:54.999Z</time></trkpt><trkpt lat="48.13116355723178" lon="2.576300948120852"><ele>85.0</ele><time>2026-04-08T17:19:55.999Z</time></trkpt><trkpt lat="48.131091969911324" lon="2.5762110744851197"><ele>85.0</ele><time>2026-04-08T17:19:56.999Z</time></trkpt><trkpt lat="48.1309420138382" lon="2.5763516200170273"><ele>85.0</ele><time>2026-04-08T17:19:58.999Z</time></trkpt><trkpt lat="48.13086613837598" lon="2.5764216759024325"><ele>85.0</ele><time>2026-04-08T17:19:59.999Z</time></trkpt><trkpt lat="48.13077085610264" lon="2.5763964365633005"><ele>85.0</ele><time>2026-04-08T17:20:00.999Z</time></trkpt><trkpt lat="48.130706343460325" lon="2.576282329105177"><ele>85.0</ele><time>2026-04-08T17:20:01.999Z</time></trkpt><trkpt lat="48.130663982154694" lon="2.576126681060097"><ele>85.0</ele><time>2026-04-08T17:20:02.999Z</time></trkpt><trkpt lat="48.130635782147266" lon="2.575912430037017"><ele>84.66666666666666</ele><time>2026-04-08T17:20:03.999Z</time></trkpt><trkpt lat="48.13060336306588" lon="2.5756664788593286"><ele>84.33333333333333</ele><time>2026-04-08T17:20:04.999Z</time></trkpt><trkpt lat="48.13056425959817" lon="2.5754200775297194"><ele>84.0</ele><time>2026-04-08T17:20:05.999Z</time></trkpt><trkpt lat="48.13051712551373" lon="2.575235057879668"><ele>84.2</ele><time>2026-04-08T17:20:06.999Z</time></trkpt><trkpt lat="48.130504625413046" lon="2.5750949241951417"><ele>84.4</ele><time>2026-04-08T17:20:07.999Z</time></trkpt><trkpt lat="48.13054695067309" lon="2.5750006852130145"><ele>84.6</ele><time>2026-04-08T17:20:08.999Z</time></trkpt><trkpt lat="48.130621295860195" lon="2.574944147730494"><ele>84.8</ele><time>2026-04-08T17:20:09.999Z</time></trkpt><trkpt lat="48.1307284686143" lon="2.574910524056192"><ele>85.0</ele><time>2026-04-08T17:20:10.999Z</time></trkpt><trkpt lat="48.13087140766554" lon="2.5748728180860754"><ele>85.0</ele><time>2026-04-08T17:20:11.999Z</time></trkpt><trkpt lat="48.13105332443765" lon="2.5748239568830473"><ele>85.0</ele><time>2026-04-08T17:20:12.999Z</time></trkpt><trkpt lat="48.13120875395934" lon="2.574783753142653"><ele>85.0</ele><time>2026-04-08T17:20:13.999Z</time></trkpt><trkpt lat="48.131331983259635" lon="2.574739062751186"><ele>85.0</ele><time>2026-04-08T17:20:14.999Z</time></trkpt><trkpt lat="48.131466083232674" lon="2.5746943310897543"><ele>85.0</ele><time>2026-04-08T17:20:15.999Z</time></trkpt><trkpt lat="48.13161796728445" lon="2.5746507296128187"><ele>85.0</ele><time>2026-04-08T17:20:16.999Z</time></trkpt><trkpt lat="48.13177793619805" lon="2.5745990100055707"><ele>85.33333333333333</ele><time>2026-04-08T17:20:17.999Z</time></trkpt><trkpt lat="48.131913133914615" lon="2.5745340340607252"><ele>85.66666666666667</ele><time>2026-04-08T17:20:18.999Z</time></trkpt><trkpt lat="48.132080988033785" lon="2.5744675862478443"><ele>86.0</ele><time>2026-04-08T17:20:19.999Z</time></trkpt><trkpt lat="48.13226206002393" lon="2.5743923645427302"><ele>85.75</ele><time>2026-04-08T17:20:20.999Z</time></trkpt><trkpt lat="48.13242519368142" lon="2.5743471325875653"><ele>85.5</ele><time>2026-04-08T17:20:21.999Z</time></trkpt><trkpt lat="48.13256475401516" lon="2.574302480305911"><ele>85.25</ele><time>2026-04-08T17:20:22.999Z</time></trkpt><trkpt lat="48.1326841338345" lon="2.5742376587279394"><ele>85.0</ele><time>2026-04-08T17:20:23.999Z</time></trkpt><trkpt lat="48.132814019918165" lon="2.5742149290450906"><ele>85.0</ele><time>2026-04-08T17:20:24.999Z</time></trkpt><trkpt lat="48.13296888100556" lon="2.574165278996006"><ele>85.0</ele><time>2026-04-08T17:20:25.999Z</time></trkpt><trkpt lat="48.13313560073634" lon="2.574096169934056"><ele>85.0</ele><time>2026-04-08T17:20:26.999Z</time></trkpt><trkpt lat="48.133306729193414" lon="2.574029498589106"><ele>85.25</ele><time>2026-04-08T17:20:27.999Z</time></trkpt><trkpt lat="48.13344760802448" lon="2.573991932231012"><ele>85.5</ele><time>2026-04-08T17:20:28.999Z</time></trkpt><trkpt lat="48.133565104868026" lon="2.5739411793223135"><ele>85.75</ele><time>2026-04-08T17:20:29.999Z</time></trkpt><trkpt lat="48.13365575222318" lon="2.57390857024183"><ele>86.0</ele><time>2026-04-08T17:20:30.999Z</time></trkpt><trkpt lat="48.1337647920977" lon="2.573854879382382"><ele>86.0</ele><time>2026-04-08T17:20:31.999Z</time></trkpt><trkpt lat="48.13388906415899" lon="2.5737989951257454"><ele>86.0</ele><time>2026-04-08T17:20:32.999Z</time></trkpt><trkpt lat="48.13404213042178" lon="2.5737286841461655"><ele>86.0</ele><time>2026-04-08T17:20:33.999Z</time></trkpt><trkpt lat="48.13420079427698" lon="2.5736575915629603"><ele>86.0</ele><time>2026-04-08T17:20:34.999Z</time></trkpt><trkpt lat="48.13431787712253" lon="2.5736045124990112"><ele>86.0</ele><time>2026-04-08T17:20:35.999Z</time></trkpt><trkpt lat="48.1344280047987" lon="2.5735448076677088"><ele>86.0</ele><time>2026-04-08T17:20:36.999Z</time></trkpt><trkpt lat="48.13452147865101" lon="2.5734629615925"><ele>86.0</ele><time>2026-04-08T17:20:37.999Z</time></trkpt><trkpt lat="48.134601293523396" lon="2.573380057586696"><ele>86.0</ele><time>2026-04-08T17:20:38.999Z</time></trkpt><trkpt lat="48.134677263191016" lon="2.573337504310565"><ele>86.0</ele><time>2026-04-08T17:20:39.999Z</time></trkpt><trkpt lat="48.13474114245283" lon="2.5732848584447736"><ele>86.0</ele><time>2026-04-08T17:20:40.999Z</time></trkpt><trkpt lat="48.134807154651156" lon="2.573235343437154"><ele>86.0</ele><time>2026-04-08T17:20:41.998Z</time></trkpt><trkpt lat="48.13487116758989" lon="2.573194529917855"><ele>86.0</ele><time>2026-04-08T17:20:42.998Z</time></trkpt><trkpt lat="48.13493866809056" lon="2.5731670009437733"><ele>86.0</ele><time>2026-04-08T17:20:43.998Z</time></trkpt><trkpt lat="48.13501812706929" lon="2.5731212163690445"><ele>86.0</ele><time>2026-04-08T17:20:44.998Z</time></trkpt><trkpt lat="48.13515065073664" lon="2.5730762603428703"><ele>85.66666666666667</ele><time>2026-04-08T17:20:45.998Z</time></trkpt><trkpt lat="48.13531629132927" lon="2.573024086505769"><ele>85.33333333333333</ele><time>2026-04-08T17:20:46.998Z</time></trkpt><trkpt lat="48.135485102961646" lon="2.5729485408041803"><ele>85.0</ele><time>2026-04-08T17:20:47.998Z</time></trkpt><trkpt lat="48.13564076475141" lon="2.572898016480244"><ele>85.33333333333333</ele><time>2026-04-08T17:20:48.998Z</time></trkpt><trkpt lat="48.13578583022699" lon="2.572840660656318"><ele>85.66666666666667</ele><time>2026-04-08T17:20:49.998Z</time></trkpt><trkpt lat="48.13594384516076" lon="2.572770730069788"><ele>86.0</ele><time>2026-04-08T17:20:51Z</time></trkpt><trkpt lat="48.136112531642574" lon="2.572717642757524"><ele>86.0</ele><time>2026-04-08T17:20:52Z</time></trkpt><trkpt lat="48.13626814903253" lon="2.5726595563427233"><ele>86.0</ele><time>2026-04-08T17:20:53Z</time></trkpt><trkpt lat="48.13641711789561" lon="2.57258935570345"><ele>86.0</ele><time>2026-04-08T17:20:54Z</time></trkpt><trkpt lat="48.1365990702133" lon="2.5725133187789058"><ele>86.0</ele><time>2026-04-08T17:20:55Z</time></trkpt><trkpt lat="48.13679489738498" lon="2.5724374225873454"><ele>86.0</ele><time>2026-04-08T17:20:56Z</time></trkpt><trkpt lat="48.13696002171684" lon="2.572363133928651"><ele>86.0</ele><time>2026-04-08T17:20:57Z</time></trkpt><trkpt lat="48.137118552346394" lon="2.5722952469882783"><ele>86.0</ele><time>2026-04-08T17:20:58Z</time></trkpt><trkpt lat="48.137303183579604" lon="2.572224511827311"><ele>86.0</ele><time>2026-04-08T17:20:59Z</time></trkpt><trkpt lat="48.13748415078208" lon="2.5721457019439224"><ele>86.0</ele><time>2026-04-08T17:21:00Z</time></trkpt><trkpt lat="48.13763791904506" lon="2.572075333842032"><ele>86.75</ele><time>2026-04-08T17:21:01Z</time></trkpt><trkpt lat="48.137777151449335" lon="2.5719910400148316"><ele>87.5</ele><time>2026-04-08T17:21:02Z</time></trkpt><trkpt lat="48.13790344825157" lon="2.571917294374605"><ele>88.25</ele><time>2026-04-08T17:21:03Z</time></trkpt><trkpt lat="48.138015565898264" lon="2.571865285839984"><ele>89.0</ele><time>2026-04-08T17:21:04Z</time></trkpt><trkpt lat="48.138083208788636" lon="2.571826510738049"><ele>89.0</ele><time>2026-04-08T17:21:05Z</time></trkpt><trkpt lat="48.138173295606826" lon="2.5718271090986877"><ele>89.0</ele><time>2026-04-08T17:21:07Z</time></trkpt><trkpt lat="48.1382780357054" lon="2.5717587345925197"><ele>89.0</ele><time>2026-04-08T17:22:01.999Z</time></trkpt><trkpt lat="48.13829961356822" lon="2.57186912555255"><ele>89.0</ele><time>2026-04-08T17:22:02.999Z</time></trkpt><trkpt lat="48.138305011002615" lon="2.5720416730685423"><ele>89.0</ele><time>2026-04-08T17:22:03.999Z</time></trkpt><trkpt lat="48.138307934623725" lon="2.572251178641092"><ele>89.33333333333334</ele><time>2026-04-08T17:22:04.999Z</time></trkpt><trkpt lat="48.138303755461024" lon="2.57250956564566"><ele>89.66666666666667</ele><time>2026-04-08T17:22:05.999Z</time></trkpt><trkpt lat="48.13831237420655" lon="2.572787397931143"><ele>90.0</ele><time>2026-04-08T17:22:06.999Z</time></trkpt><trkpt lat="48.138307504152564" lon="2.5730367177371476"><ele>89.33333333333333</ele><time>2026-04-08T17:22:07.999Z</time></trkpt><trkpt lat="48.13832192359262" lon="2.573299652755686"><ele>88.66666666666666</ele><time>2026-04-08T17:22:08.999Z</time></trkpt><trkpt lat="48.13833131923161" lon="2.5735498448862266"><ele>88.0</ele><time>2026-04-08T17:22:09.999Z</time></trkpt><trkpt lat="48.13833275156641" lon="2.573794624687775"><ele>87.66666666666666</ele><time>2026-04-08T17:22:10.999Z</time></trkpt><trkpt lat="48.138337818685685" lon="2.5740645461691845"><ele>87.33333333333333</ele><time>2026-04-08T17:22:11.999Z</time></trkpt><trkpt lat="48.13834549270955" lon="2.574320351823339"><ele>87.0</ele><time>2026-04-08T17:22:12.999Z</time></trkpt><trkpt lat="48.13834998063451" lon="2.5746145817167765"><ele>87.0</ele><time>2026-04-08T17:22:13.999Z</time></trkpt><trkpt lat="48.13835115724505" lon="2.5749245737526505"><ele>87.0</ele><time>2026-04-08T17:22:14.999Z</time></trkpt><trkpt lat="48.13835262178861" lon="2.575188325285695"><ele>87.0</ele><time>2026-04-08T17:22:15.999Z</time></trkpt><trkpt lat="48.13835701628176" lon="2.575404663852544"><ele>87.0</ele><time>2026-04-08T17:22:16.999Z</time></trkpt><trkpt lat="48.1383655761935" lon="2.5755870430744006"><ele>87.0</ele><time>2026-04-08T17:22:17.999Z</time></trkpt><trkpt lat="48.13836032229895" lon="2.575724786862699"><ele>87.0</ele><time>2026-04-08T17:22:18.999Z</time></trkpt><trkpt lat="48.138360865091514" lon="2.575826201365172"><ele>87.0</ele><time>2026-04-08T17:22:19.999Z</time></trkpt><trkpt lat="48.13828114293621" lon="2.5759161122678407"><ele>87.0</ele><time>2026-04-08T17:22:22.999Z</time></trkpt><trkpt lat="48.13818446063119" lon="2.5759651507911436"><ele>86.66666666666667</ele><time>2026-04-08T17:22:23.999Z</time></trkpt><trkpt lat="48.13802954573445" lon="2.5760271376070385"><ele>86.33333333333334</ele><time>2026-04-08T17:22:24.999Z</time></trkpt><trkpt lat="48.13783773233986" lon="2.5760724442539225"><ele>86.0</ele><time>2026-04-08T17:22:25.999Z</time></trkpt><trkpt lat="48.13763659512468" lon="2.576153902246087"><ele>86.33333333333334</ele><time>2026-04-08T17:22:26.999Z</time></trkpt><trkpt lat="48.13743883633986" lon="2.5762445365083964"><ele>86.66666666666667</ele><time>2026-04-08T17:22:27.999Z</time></trkpt><trkpt lat="48.13723415986586" lon="2.5763217062507264"><ele>87.0</ele><time>2026-04-08T17:22:28.999Z</time></trkpt><trkpt lat="48.137054374255094" lon="2.576381431928397"><ele>86.33333333333333</ele><time>2026-04-08T17:22:29.999Z</time></trkpt><trkpt lat="48.13688289216466" lon="2.5764544360393415"><ele>85.66666666666666</ele><time>2026-04-08T17:22:30.999Z</time></trkpt><trkpt lat="48.136714997054774" lon="2.5765346731903014"><ele>85.0</ele><time>2026-04-08T17:22:31.999Z</time></trkpt><trkpt lat="48.13656196985148" lon="2.576606769499305"><ele>84.66666666666666</ele><time>2026-04-08T17:22:32.999Z</time></trkpt><trkpt lat="48.13636159183857" lon="2.5766997623996817"><ele>84.33333333333333</ele><time>2026-04-08T17:22:33.999Z</time></trkpt><trkpt lat="48.136151830622126" lon="2.5767397831542755"><ele>84.0</ele><time>2026-04-08T17:22:34.998Z</time></trkpt><trkpt lat="48.13596513018948" lon="2.57681397348482"><ele>84.0</ele><time>2026-04-08T17:22:35.998Z</time></trkpt><trkpt lat="48.135807915324996" lon="2.57687644783719"><ele>84.0</ele><time>2026-04-08T17:22:36.998Z</time></trkpt><trkpt lat="48.13564836065901" lon="2.576939877293027"><ele>84.0</ele><time>2026-04-08T17:22:37.998Z</time></trkpt><trkpt lat="48.135490955271415" lon="2.5770024522853503"><ele>83.80000000000001</ele><time>2026-04-08T17:22:38.998Z</time></trkpt><trkpt lat="48.13536358813942" lon="2.5770530858722314"><ele>83.60000000000001</ele><time>2026-04-08T17:22:39.998Z</time></trkpt><trkpt lat="48.135252796033306" lon="2.5771187633252466"><ele>83.4</ele><time>2026-04-08T17:22:40.998Z</time></trkpt><trkpt lat="48.135150008887294" lon="2.5771379922541304"><ele>83.2</ele><time>2026-04-08T17:22:41.998Z</time></trkpt><trkpt lat="48.13508600099479" lon="2.5771878768784857"><ele>83.0</ele><time>2026-04-08T17:22:42.998Z</time></trkpt><trkpt lat="48.135023005158864" lon="2.57717773040009"><ele>83.25</ele><time>2026-04-08T17:22:44.998Z</time></trkpt><trkpt lat="48.13501542989427" lon="2.5769537378298684"><ele>83.5</ele><time>2026-04-08T17:22:45.998Z</time></trkpt><trkpt lat="48.13501846136699" lon="2.5767819920865653"><ele>83.75</ele><time>2026-04-08T17:22:46.998Z</time></trkpt><trkpt lat="48.13501676844454" lon="2.5765564946678174"><ele>84.0</ele><time>2026-04-08T17:22:47.998Z</time></trkpt><trkpt lat="48.13499884506199" lon="2.576371071805936"><ele>84.0</ele><time>2026-04-08T17:22:48.998Z</time></trkpt><trkpt lat="48.13498931939995" lon="2.5761897910206435"><ele>84.0</ele><time>2026-04-08T17:22:49.998Z</time></trkpt><trkpt lat="48.1349776769951" lon="2.5759917181461374"><ele>84.0</ele><time>2026-04-08T17:22:50.998Z</time></trkpt><trkpt lat="48.13495540763924" lon="2.5757908545884547"><ele>84.0</ele><time>2026-04-08T17:22:51.998Z</time></trkpt><trkpt lat="48.134943613117215" lon="2.575629901968161"><ele>84.2</ele><time>2026-04-08T17:22:52.998Z</time></trkpt><trkpt lat="48.134943124516695" lon="2.5754630487658146"><ele>84.4</ele><time>2026-04-08T17:22:53.998Z</time></trkpt><trkpt lat="48.13493343648694" lon="2.575308668319025"><ele>84.6</ele><time>2026-04-08T17:22:54.998Z</time></trkpt><trkpt lat="48.134927586483926" lon="2.5751786713843168"><ele>84.8</ele><time>2026-04-08T17:22:55.998Z</time></trkpt><trkpt lat="48.13491781552262" lon="2.575028311039459"><ele>85.0</ele><time>2026-04-08T17:22:58Z</time></trkpt><trkpt lat="48.13489057484545" lon="2.574914325136342"><ele>85.0</ele><time>2026-04-08T17:23:00Z</time></trkpt><trkpt lat="48.13488057903273" lon="2.5747897297947278"><ele>85.0</ele><time>2026-04-08T17:23:04Z</time></trkpt><trkpt lat="48.13486982141824" lon="2.574695271367195"><ele>85.0</ele><time>2026-04-08T17:23:07Z</time></trkpt><trkpt lat="48.134879111284405" lon="2.5748844655439798"><ele>85.0</ele><time>2026-04-08T17:23:17Z</time></trkpt><trkpt lat="48.13491358253308" lon="2.5750563923182903"><ele>85.0</ele><time>2026-04-08T17:23:18Z</time></trkpt><trkpt lat="48.134935599868356" lon="2.575278595965597"><ele>85.33333333333333</ele><time>2026-04-08T17:23:19Z</time></trkpt><trkpt lat="48.13494379270109" lon="2.5755380211468655"><ele>85.66666666666667</ele><time>2026-04-08T17:23:20Z</time></trkpt><trkpt lat="48.13495620319779" lon="2.5758308588333736"><ele>86.0</ele><time>2026-04-08T17:23:21Z</time></trkpt><trkpt lat="48.13497565962345" lon="2.576118341991445"><ele>85.33333333333334</ele><time>2026-04-08T17:23:22Z</time></trkpt><trkpt lat="48.13498597240778" lon="2.576405732054941"><ele>84.66666666666667</ele><time>2026-04-08T17:23:23Z</time></trkpt><trkpt lat="48.135003719840604" lon="2.576652172397513"><ele>84.0</ele><time>2026-04-08T17:23:24Z</time></trkpt><trkpt lat="48.135018408693426" lon="2.5768809047047836"><ele>83.75</ele><time>2026-04-08T17:23:25Z</time></trkpt><trkpt lat="48.13502870116244" lon="2.5770847336167733"><ele>83.5</ele><time>2026-04-08T17:23:26Z</time></trkpt><trkpt lat="48.13504929558588" lon="2.5772507308027635"><ele>83.25</ele><time>2026-04-08T17:23:27Z</time></trkpt><trkpt lat="48.13505638953036" lon="2.5774459268602805"><ele>83.0</ele><time>2026-04-08T17:23:28Z</time></trkpt><trkpt lat="48.13506342471216" lon="2.577703648604841"><ele>83.66666666666667</ele><time>2026-04-08T17:23:29Z</time></trkpt><trkpt lat="48.13506257004729" lon="2.577984587760644"><ele>84.33333333333333</ele><time>2026-04-08T17:23:30Z</time></trkpt><trkpt lat="48.13508393181032" lon="2.5782061175174777"><ele>85.0</ele><time>2026-04-08T17:23:31Z</time></trkpt><trkpt lat="48.13509566744458" lon="2.5784123824886866"><ele>85.0</ele><time>2026-04-08T17:23:32Z</time></trkpt><trkpt lat="48.135099066383326" lon="2.5786158802761157"><ele>85.0</ele><time>2026-04-08T17:23:32.999Z</time></trkpt><trkpt lat="48.135123158127925" lon="2.578774995816946"><ele>85.0</ele><time>2026-04-08T17:23:33.999Z</time></trkpt><trkpt lat="48.135128911096096" lon="2.5789200113040565"><ele>85.0</ele><time>2026-04-08T17:23:34.999Z</time></trkpt><trkpt lat="48.135138485026424" lon="2.5790780742052144"><ele>85.0</ele><time>2026-04-08T17:23:35.999Z</time></trkpt><trkpt lat="48.13515173154649" lon="2.5792447254089588"><ele>85.0</ele><time>2026-04-08T17:23:36.999Z</time></trkpt><trkpt lat="48.135146726596574" lon="2.579438092948403"><ele>85.0</ele><time>2026-04-08T17:23:37.999Z</time></trkpt><trkpt lat="48.13516014924708" lon="2.5796709162690745"><ele>85.0</ele><time>2026-04-08T17:23:38.999Z</time></trkpt><trkpt lat="48.13517503274356" lon="2.5799355467808227"><ele>85.0</ele><time>2026-04-08T17:23:39.999Z</time></trkpt><trkpt lat="48.13519229805459" lon="2.5802498899622437"><ele>85.0</ele><time>2026-04-08T17:23:40.999Z</time></trkpt><trkpt lat="48.135223262123816" lon="2.580576216303517"><ele>85.0</ele><time>2026-04-08T17:23:41.999Z</time></trkpt><trkpt lat="48.13523442786637" lon="2.580902520429611"><ele>85.66666666666666</ele><time>2026-04-08T17:23:42.999Z</time></trkpt><trkpt lat="48.13525498759513" lon="2.5812314101997864"><ele>86.33333333333333</ele><time>2026-04-08T17:23:43.999Z</time></trkpt><trkpt lat="48.13526678686878" lon="2.5815045979098703"><ele>87.0</ele><time>2026-04-08T17:23:44.999Z</time></trkpt><trkpt lat="48.13528859490548" lon="2.5817513180677647"><ele>87.0</ele><time>2026-04-08T17:23:45.999Z</time></trkpt><trkpt lat="48.1353084893297" lon="2.582010978094278"><ele>87.0</ele><time>2026-04-08T17:23:46.999Z</time></trkpt><trkpt lat="48.135352345355344" lon="2.582300933192251"><ele>87.0</ele><time>2026-04-08T17:23:47.999Z</time></trkpt><trkpt lat="48.13541478939679" lon="2.582621661338678"><ele>87.0</ele><time>2026-04-08T17:23:48.999Z</time></trkpt><trkpt lat="48.13548044438378" lon="2.582968036183448"><ele>87.0</ele><time>2026-04-08T17:23:49.999Z</time></trkpt><trkpt lat="48.135540173048724" lon="2.5833168404935285"><ele>87.5</ele><time>2026-04-08T17:23:50.999Z</time></trkpt><trkpt lat="48.13559317052857" lon="2.583710965373259"><ele>88.0</ele><time>2026-04-08T17:23:51.999Z</time></trkpt><trkpt lat="48.135665841721554" lon="2.58411977072878"><ele>88.0</ele><time>2026-04-08T17:23:52.999Z</time></trkpt><trkpt lat="48.1357352389594" lon="2.5845101591174213"><ele>88.0</ele><time>2026-04-08T17:23:53.999Z</time></trkpt><trkpt lat="48.135798837273825" lon="2.584867926009105"><ele>88.0</ele><time>2026-04-08T17:23:54.999Z</time></trkpt><trkpt lat="48.13586938706691" lon="2.585179031695696"><ele>88.0</ele><time>2026-04-08T17:23:55.999Z</time></trkpt><trkpt lat="48.1359103171702" lon="2.585510495613437"><ele>88.0</ele><time>2026-04-08T17:23:56.999Z</time></trkpt><trkpt lat="48.135958801941314" lon="2.5857975088077856"><ele>88.0</ele><time>2026-04-08T17:23:57.999Z</time></trkpt><trkpt lat="48.13600008766263" lon="2.586053512233614"><ele>88.0</ele><time>2026-04-08T17:23:58.999Z</time></trkpt><trkpt lat="48.136023149852434" lon="2.5862756307859214"><ele>88.0</ele><time>2026-04-08T17:23:59.999Z</time></trkpt><trkpt lat="48.136036477789084" lon="2.5864514285424836"><ele>88.0</ele><time>2026-04-08T17:24:00.999Z</time></trkpt><trkpt lat="48.13604920521989" lon="2.586619305570247"><ele>88.0</ele><time>2026-04-08T17:24:01.999Z</time></trkpt><trkpt lat="48.136063403413445" lon="2.5868065821000235"><ele>88.0</ele><time>2026-04-08T17:24:02.999Z</time></trkpt><trkpt lat="48.13608853450361" lon="2.5870320245425504"><ele>88.0</ele><time>2026-04-08T17:24:03.999Z</time></trkpt><trkpt lat="48.136104460624644" lon="2.5872784224599403"><ele>88.0</ele><time>2026-04-08T17:24:04.999Z</time></trkpt><trkpt lat="48.13609966048361" lon="2.5875623111237225"><ele>88.33333333333333</ele><time>2026-04-08T17:24:05.999Z</time></trkpt><trkpt lat="48.13610740020965" lon="2.5878542681502044"><ele>88.66666666666667</ele><time>2026-04-08T17:24:06.999Z</time></trkpt><trkpt lat="48.136120768720936" lon="2.588111172579737"><ele>89.0</ele><time>2026-04-08T17:24:07.999Z</time></trkpt><trkpt lat="48.13613701084493" lon="2.5883721365986867"><ele>89.0</ele><time>2026-04-08T17:24:08.999Z</time></trkpt><trkpt lat="48.13615047795653" lon="2.5886453260995754"><ele>89.0</ele><time>2026-04-08T17:24:09.999Z</time></trkpt><trkpt lat="48.13616073099916" lon="2.588911355992181"><ele>89.0</ele><time>2026-04-08T17:24:10.999Z</time></trkpt><trkpt lat="48.136164180588466" lon="2.5892024719903186"><ele>88.66666666666667</ele><time>2026-04-08T17:24:11.999Z</time></trkpt><trkpt lat="48.13618152601744" lon="2.589524174536903"><ele>88.33333333333333</ele><time>2026-04-08T17:24:12.999Z</time></trkpt><trkpt lat="48.1361840324192" lon="2.5898299216997573"><ele>88.0</ele><time>2026-04-08T17:24:13.999Z</time></trkpt><trkpt lat="48.13618611290758" lon="2.5900711647377106"><ele>88.0</ele><time>2026-04-08T17:24:14.999Z</time></trkpt><trkpt lat="48.136190088229945" lon="2.5903026393660604"><ele>88.0</ele><time>2026-04-08T17:24:15.999Z</time></trkpt><trkpt lat="48.13620833228755" lon="2.5905662841072243"><ele>88.0</ele><time>2026-04-08T17:24:16.999Z</time></trkpt><trkpt lat="48.136225015252876" lon="2.590812725991456"><ele>88.0</ele><time>2026-04-08T17:24:17.999Z</time></trkpt><trkpt lat="48.13623628486463" lon="2.5910312693553226"><ele>88.0</ele><time>2026-04-08T17:24:18.999Z</time></trkpt><trkpt lat="48.13624585776053" lon="2.591277924801591"><ele>88.0</ele><time>2026-04-08T17:24:19.999Z</time></trkpt><trkpt lat="48.13625133649885" lon="2.591556813984539"><ele>88.0</ele><time>2026-04-08T17:24:20.999Z</time></trkpt><trkpt lat="48.13626467433749" lon="2.5918569830359433"><ele>88.0</ele><time>2026-04-08T17:24:21.999Z</time></trkpt><trkpt lat="48.13628268139927" lon="2.5921756719498914"><ele>88.0</ele><time>2026-04-08T17:24:22.999Z</time></trkpt><trkpt lat="48.13629900972587" lon="2.5925076404077116"><ele>88.33333333333333</ele><time>2026-04-08T17:24:23.999Z</time></trkpt><trkpt lat="48.1363133508366" lon="2.592810436132631"><ele>88.66666666666667</ele><time>2026-04-08T17:24:24.999Z</time></trkpt><trkpt lat="48.13632534413547" lon="2.5930681415118553"><ele>89.0</ele><time>2026-04-08T17:24:25.999Z</time></trkpt><trkpt lat="48.13633307239635" lon="2.5932851304743636"><ele>89.0</ele><time>2026-04-08T17:24:26.999Z</time></trkpt><trkpt lat="48.13633478503455" lon="2.593476839127945"><ele>89.0</ele><time>2026-04-08T17:24:27.999Z</time></trkpt><trkpt lat="48.136342570101824" lon="2.593640011171942"><ele>89.0</ele><time>2026-04-08T17:24:28.999Z</time></trkpt><trkpt lat="48.13634173654908" lon="2.5937627739853313"><ele>89.0</ele><time>2026-04-08T17:24:29.999Z</time></trkpt><trkpt lat="48.136334929846555" lon="2.5939187938553445"><ele>89.0</ele><time>2026-04-08T17:24:31.999Z</time></trkpt><trkpt lat="48.13637453118482" lon="2.5938163078825487"><ele>89.0</ele><time>2026-04-08T17:24:42.998Z</time></trkpt><trkpt lat="48.13637646372994" lon="2.5936138504727753"><ele>89.0</ele><time>2026-04-08T17:24:44.998Z</time></trkpt><trkpt lat="48.13636893967707" lon="2.5932996200809297"><ele>89.0</ele><time>2026-04-08T17:24:45.998Z</time></trkpt><trkpt lat="48.13634249711849" lon="2.5928453735869237"><ele>89.0</ele><time>2026-04-08T17:24:46.998Z</time></trkpt><trkpt lat="48.136345548728585" lon="2.5926025281294134"><ele>89.0</ele><time>2026-04-08T17:24:47.998Z</time></trkpt><trkpt lat="48.13632336034303" lon="2.5923703097128135"><ele>89.0</ele><time>2026-04-08T17:24:48.998Z</time></trkpt><trkpt lat="48.136316067293315" lon="2.592195822021942"><ele>89.0</ele><time>2026-04-08T17:24:49.998Z</time></trkpt><trkpt lat="48.136311251946466" lon="2.59202193160425"><ele>88.66666666666667</ele><time>2026-04-08T17:24:50.998Z</time></trkpt><trkpt lat="48.13629796662882" lon="2.5918058461573423"><ele>88.33333333333333</ele><time>2026-04-08T17:24:51.998Z</time></trkpt><trkpt lat="48.13628013174466" lon="2.5915406423358274"><ele>88.0</ele><time>2026-04-08T17:24:52.998Z</time></trkpt><trkpt lat="48.136274964063766" lon="2.5913198982282215"><ele>88.25</ele><time>2026-04-08T17:24:53.998Z</time></trkpt><trkpt lat="48.136267910482296" lon="2.5910886512133544"><ele>88.5</ele><time>2026-04-08T17:24:54.998Z</time></trkpt><trkpt lat="48.13626637748279" lon="2.590890122939095"><ele>88.75</ele><time>2026-04-08T17:24:55.998Z</time></trkpt><trkpt lat="48.13624473441547" lon="2.590728836013641"><ele>89.0</ele><time>2026-04-08T17:24:56.998Z</time></trkpt><trkpt lat="48.136243675396315" lon="2.590578212360435"><ele>89.0</ele><time>2026-04-08T17:24:57.998Z</time></trkpt><trkpt lat="48.13623764345757" lon="2.5903704825613727"><ele>89.0</ele><time>2026-04-08T17:24:58.998Z</time></trkpt><trkpt lat="48.13622747853831" lon="2.590195539014712"><ele>89.0</ele><time>2026-04-08T17:24:59.998Z</time></trkpt><trkpt lat="48.13621320336452" lon="2.590001328528132"><ele>89.0</ele><time>2026-04-08T17:25:00.998Z</time></trkpt><trkpt lat="48.13621055741483" lon="2.589787580494117"><ele>89.0</ele><time>2026-04-08T17:25:01.998Z</time></trkpt><trkpt lat="48.13619850797281" lon="2.5895620034051885"><ele>89.0</ele><time>2026-04-08T17:25:03Z</time></trkpt><trkpt lat="48.13618428754783" lon="2.5893644489974417"><ele>89.0</ele><time>2026-04-08T17:25:04Z</time></trkpt><trkpt lat="48.136174114924906" lon="2.5891725311110854"><ele>89.0</ele><time>2026-04-08T17:25:05Z</time></trkpt><trkpt lat="48.136159387294676" lon="2.5889188726939043"><ele>89.0</ele><time>2026-04-08T17:25:06Z</time></trkpt><trkpt lat="48.13615022732127" lon="2.588655075184065"><ele>89.0</ele><time>2026-04-08T17:25:07Z</time></trkpt><trkpt lat="48.13613621126415" lon="2.588391597733757"><ele>89.0</ele><time>2026-04-08T17:25:08Z</time></trkpt><trkpt lat="48.13613040463646" lon="2.5881704288901766"><ele>89.0</ele><time>2026-04-08T17:25:09Z</time></trkpt><trkpt lat="48.136122422144126" lon="2.5879745870762445"><ele>89.0</ele><time>2026-04-08T17:25:10Z</time></trkpt><trkpt lat="48.13612546088058" lon="2.5877941147870844"><ele>89.0</ele><time>2026-04-08T17:25:11Z</time></trkpt><trkpt lat="48.13611777517575" lon="2.587574267774315"><ele>89.0</ele><time>2026-04-08T17:25:12Z</time></trkpt><trkpt lat="48.13610199367015" lon="2.5873196803902085"><ele>88.75</ele><time>2026-04-08T17:25:13Z</time></trkpt><trkpt lat="48.1360867824235" lon="2.5870551672500617"><ele>88.5</ele><time>2026-04-08T17:25:14Z</time></trkpt><trkpt lat="48.136086497778344" lon="2.586877461471652"><ele>88.25</ele><time>2026-04-08T17:25:15Z</time></trkpt><trkpt lat="48.136079772619105" lon="2.5866704030785908"><ele>88.0</ele><time>2026-04-08T17:25:16Z</time></trkpt><trkpt lat="48.13606867040442" lon="2.58649391598053"><ele>88.0</ele><time>2026-04-08T17:25:17Z</time></trkpt><trkpt lat="48.13606224880493" lon="2.5863391376570064"><ele>88.0</ele><time>2026-04-08T17:25:18Z</time></trkpt><trkpt lat="48.13605814244149" lon="2.5862439017290386"><ele>88.0</ele><time>2026-04-08T17:25:19Z</time></trkpt><trkpt lat="48.1360437014727" lon="2.586364021039223"><ele>88.0</ele><time>2026-04-08T17:25:25Z</time></trkpt><trkpt lat="48.13606156968029" lon="2.586525478629418"><ele>88.0</ele><time>2026-04-08T17:25:26Z</time></trkpt><trkpt lat="48.13607234483077" lon="2.5867476013488964"><ele>88.0</ele><time>2026-04-08T17:25:27Z</time></trkpt><trkpt lat="48.136080520635744" lon="2.5870093204643148"><ele>88.0</ele><time>2026-04-08T17:25:28Z</time></trkpt><trkpt lat="48.1360856581827" lon="2.5873375551525424"><ele>88.0</ele><time>2026-04-08T17:25:29Z</time></trkpt><trkpt lat="48.13609995366116" lon="2.5876421349619028"><ele>88.33333333333333</ele><time>2026-04-08T17:25:30Z</time></trkpt><trkpt lat="48.136113375446186" lon="2.5879286180535797"><ele>88.66666666666667</ele><time>2026-04-08T17:25:31Z</time></trkpt><trkpt lat="48.13612681278099" lon="2.5882181467262066"><ele>89.0</ele><time>2026-04-08T17:25:32Z</time></trkpt><trkpt lat="48.13613450301591" lon="2.5885123240187253"><ele>89.0</ele><time>2026-04-08T17:25:33Z</time></trkpt><trkpt lat="48.13615434830278" lon="2.5887821918695977"><ele>89.0</ele><time>2026-04-08T17:25:34Z</time></trkpt><trkpt lat="48.136161231692164" lon="2.589060458410737"><ele>89.0</ele><time>2026-04-08T17:25:35Z</time></trkpt><trkpt lat="48.136167896751836" lon="2.5893738052513386"><ele>88.5</ele><time>2026-04-08T17:25:36Z</time></trkpt><trkpt lat="48.13618537284506" lon="2.5897187434768263"><ele>88.0</ele><time>2026-04-08T17:25:37Z</time></trkpt><trkpt lat="48.13621701632289" lon="2.5900580711391967"><ele>88.33333333333333</ele><time>2026-04-08T17:25:38Z</time></trkpt><trkpt lat="48.13622580027422" lon="2.5903948952234956"><ele>88.66666666666667</ele><time>2026-04-08T17:25:39Z</time></trkpt><trkpt lat="48.1362369704481" lon="2.590688928382334"><ele>89.0</ele><time>2026-04-08T17:25:40Z</time></trkpt><trkpt lat="48.13625307099515" lon="2.590991376605092"><ele>88.66666666666667</ele><time>2026-04-08T17:25:41Z</time></trkpt><trkpt lat="48.13625278090016" lon="2.5912918339549686"><ele>88.33333333333333</ele><time>2026-04-08T17:25:42Z</time></trkpt><trkpt lat="48.13625702346028" lon="2.591593040942474"><ele>88.0</ele><time>2026-04-08T17:25:43Z</time></trkpt><trkpt lat="48.13627379575084" lon="2.5919017544298866"><ele>88.5</ele><time>2026-04-08T17:25:44Z</time></trkpt><trkpt lat="48.13629307336424" lon="2.5922273025602127"><ele>89.0</ele><time>2026-04-08T17:25:45Z</time></trkpt><trkpt lat="48.136306845735405" lon="2.592576171109982"><ele>89.0</ele><time>2026-04-08T17:25:46Z</time></trkpt><trkpt lat="48.13632089973021" lon="2.5929264335648132"><ele>89.0</ele><time>2026-04-08T17:25:46.999Z</time></trkpt><trkpt lat="48.136334910376576" lon="2.593282493062103"><ele>89.0</ele><time>2026-04-08T17:25:47.999Z</time></trkpt><trkpt lat="48.13634517739921" lon="2.5935668234432048"><ele>89.0</ele><time>2026-04-08T17:25:48.999Z</time></trkpt><trkpt lat="48.13636434758543" lon="2.593823538402377"><ele>89.0</ele><time>2026-04-08T17:25:49.999Z</time></trkpt><trkpt lat="48.1363773262452" lon="2.5941107544658397"><ele>89.0</ele><time>2026-04-08T17:25:50.999Z</time></trkpt><trkpt lat="48.13638767679735" lon="2.5944273325229656"><ele>89.0</ele><time>2026-04-08T17:25:51.999Z</time></trkpt><trkpt lat="48.136378833881366" lon="2.594688737728897"><ele>89.0</ele><time>2026-04-08T17:25:52.999Z</time></trkpt><trkpt lat="48.13638933777469" lon="2.594916185265264"><ele>89.2</ele><time>2026-04-08T17:25:53.999Z</time></trkpt><trkpt lat="48.136389899654205" lon="2.5951173097158016"><ele>89.4</ele><time>2026-04-08T17:25:54.999Z</time></trkpt><trkpt lat="48.136385015784384" lon="2.5953001884514295"><ele>89.6</ele><time>2026-04-08T17:25:55.999Z</time></trkpt><trkpt lat="48.13638154602778" lon="2.595444900363872"><ele>89.8</ele><time>2026-04-08T17:25:56.999Z</time></trkpt><trkpt lat="48.13637087277381" lon="2.5955748970542616"><ele>90.0</ele><time>2026-04-08T17:25:57.999Z</time></trkpt><trkpt lat="48.13635566728355" lon="2.5956906265817503"><ele>90.0</ele><time>2026-04-08T17:25:58.999Z</time></trkpt><trkpt lat="48.13643361176968" lon="2.5955804353631082"><ele>90.0</ele><time>2026-04-08T17:26:11.999Z</time></trkpt><trkpt lat="48.13640510771624" lon="2.5953996480408357"><ele>90.0</ele><time>2026-04-08T17:26:12.999Z</time></trkpt><trkpt lat="48.13641800011224" lon="2.5951795058917813"><ele>90.0</ele><time>2026-04-08T17:26:13.999Z</time></trkpt><trkpt lat="48.136402774597165" lon="2.5949817512951037"><ele>90.0</ele><time>2026-04-08T17:26:14.999Z</time></trkpt><trkpt lat="48.13638168788063" lon="2.5948885622106777"><ele>90.0</ele><time>2026-04-08T17:26:15.999Z</time></trkpt><trkpt lat="48.13623991461479" lon="2.5948552975548402"><ele>90.0</ele><time>2026-04-08T17:26:17.999Z</time></trkpt><trkpt lat="48.13611248605689" lon="2.59490493666411"><ele>90.0</ele><time>2026-04-08T17:26:18.999Z</time></trkpt><trkpt lat="48.1359226233444" lon="2.594969372849212"><ele>90.0</ele><time>2026-04-08T17:26:19.999Z</time></trkpt><trkpt lat="48.13571660887778" lon="2.595010722418117"><ele>90.0</ele><time>2026-04-08T17:26:20.999Z</time></trkpt><trkpt lat="48.135499664586895" lon="2.5950289475822013"><ele>90.0</ele><time>2026-04-08T17:26:21.999Z</time></trkpt><trkpt lat="48.1352724641562" lon="2.5950546460197983"><ele>90.0</ele><time>2026-04-08T17:26:22.999Z</time></trkpt><trkpt lat="48.13503445959124" lon="2.595098097767526"><ele>90.0</ele><time>2026-04-08T17:26:23.999Z</time></trkpt><trkpt lat="48.134783656564025" lon="2.595136100489299"><ele>90.5</ele><time>2026-04-08T17:26:24.999Z</time></trkpt><trkpt lat="48.13453293465469" lon="2.595168817354455"><ele>91.0</ele><time>2026-04-08T17:26:25.999Z</time></trkpt><trkpt lat="48.13426350145742" lon="2.5952084642875515"><ele>91.0</ele><time>2026-04-08T17:26:26.999Z</time></trkpt><trkpt lat="48.134002605441594" lon="2.595242691059039"><ele>91.0</ele><time>2026-04-08T17:26:27.999Z</time></trkpt><trkpt lat="48.133745689179335" lon="2.595274793927673"><ele>91.0</ele><time>2026-04-08T17:26:28.999Z</time></trkpt><trkpt lat="48.13349950675301" lon="2.5953130426538906"><ele>91.0</ele><time>2026-04-08T17:26:29.999Z</time></trkpt><trkpt lat="48.133263965365465" lon="2.59535176835856"><ele>91.33333333333333</ele><time>2026-04-08T17:26:30.999Z</time></trkpt><trkpt lat="48.133051123322375" lon="2.59538126960721"><ele>91.66666666666667</ele><time>2026-04-08T17:26:31.999Z</time></trkpt><trkpt lat="48.13285681244087" lon="2.595422410583695"><ele>92.0</ele><time>2026-04-08T17:26:32.999Z</time></trkpt><trkpt lat="48.13267663375548" lon="2.5954560810624057"><ele>92.0</ele><time>2026-04-08T17:26:33.999Z</time></trkpt><trkpt lat="48.13249355404838" lon="2.595475806981748"><ele>92.0</ele><time>2026-04-08T17:26:34.999Z</time></trkpt><trkpt lat="48.13230436847756" lon="2.595510809761713"><ele>92.0</ele><time>2026-04-08T17:26:35.999Z</time></trkpt><trkpt lat="48.13214748694178" lon="2.595536929809553"><ele>91.8</ele><time>2026-04-08T17:26:36.999Z</time></trkpt><trkpt lat="48.1320211563684" lon="2.5955494166228474"><ele>91.6</ele><time>2026-04-08T17:26:37.999Z</time></trkpt><trkpt lat="48.13191104831071" lon="2.595559746511181"><ele>91.39999999999999</ele><time>2026-04-08T17:26:38.999Z</time></trkpt><trkpt lat="48.13183695321191" lon="2.5955646711914366"><ele>91.19999999999999</ele><time>2026-04-08T17:26:39.999Z</time></trkpt><trkpt lat="48.13177281944483" lon="2.5956738074566266"><ele>91.0</ele><time>2026-04-08T17:26:41.999Z</time></trkpt><trkpt lat="48.13179044778206" lon="2.595804257614682"><ele>91.0</ele><time>2026-04-08T17:26:42.999Z</time></trkpt><trkpt lat="48.13180154299535" lon="2.5959463400297573"><ele>91.0</ele><time>2026-04-08T17:26:43.999Z</time></trkpt><trkpt lat="48.13181394272771" lon="2.596090358581231"><ele>91.0</ele><time>2026-04-08T17:26:44.998Z</time></trkpt><trkpt lat="48.13181728418272" lon="2.596237036008461"><ele>91.0</ele><time>2026-04-08T17:26:45.998Z</time></trkpt><trkpt lat="48.13181084330133" lon="2.596409736089481"><ele>91.0</ele><time>2026-04-08T17:26:46.998Z</time></trkpt><trkpt lat="48.13180472864238" lon="2.5965985354762546"><ele>91.33333333333333</ele><time>2026-04-08T17:26:47.998Z</time></trkpt><trkpt lat="48.131793299626096" lon="2.596840994999869"><ele>91.66666666666667</ele><time>2026-04-08T17:26:48.998Z</time></trkpt><trkpt lat="48.13178696083813" lon="2.597129139600266"><ele>92.0</ele><time>2026-04-08T17:26:49.998Z</time></trkpt><trkpt lat="48.13178765979998" lon="2.597446074926339"><ele>92.0</ele><time>2026-04-08T17:26:50.998Z</time></trkpt><trkpt lat="48.13177373576219" lon="2.597783447319297"><ele>92.0</ele><time>2026-04-08T17:26:51.998Z</time></trkpt><trkpt lat="48.131769382725196" lon="2.5981127258034022"><ele>92.0</ele><time>2026-04-08T17:26:52.998Z</time></trkpt><trkpt lat="48.13176180654289" lon="2.5984882814798707"><ele>92.0</ele><time>2026-04-08T17:26:53.998Z</time></trkpt><trkpt lat="48.13173537006997" lon="2.5988568512273242"><ele>92.0</ele><time>2026-04-08T17:26:54.998Z</time></trkpt><trkpt lat="48.13172797221591" lon="2.5992172076167983"><ele>92.0</ele><time>2026-04-08T17:26:55.998Z</time></trkpt><trkpt lat="48.13172417409463" lon="2.599541499824494"><ele>92.0</ele><time>2026-04-08T17:26:56.998Z</time></trkpt><trkpt lat="48.131709956832715" lon="2.5998449188109234"><ele>92.0</ele><time>2026-04-08T17:26:57.998Z</time></trkpt><trkpt lat="48.13169717385708" lon="2.6001160254316633"><ele>91.66666666666667</ele><time>2026-04-08T17:26:58.998Z</time></trkpt><trkpt lat="48.13168434444429" lon="2.6003990946860194"><ele>91.33333333333333</ele><time>2026-04-08T17:26:59.998Z</time></trkpt><trkpt lat="48.131683797935324" lon="2.600678631604636"><ele>91.0</ele><time>2026-04-08T17:27:00.998Z</time></trkpt><trkpt lat="48.13167226695893" lon="2.600915331702789"><ele>91.33333333333333</ele><time>2026-04-08T17:27:01.998Z</time></trkpt><trkpt lat="48.131659379024214" lon="2.6012148711437186"><ele>91.66666666666667</ele><time>2026-04-08T17:27:02.998Z</time></trkpt><trkpt lat="48.13162981544736" lon="2.6015695785477724"><ele>92.0</ele><time>2026-04-08T17:27:03.998Z</time></trkpt><trkpt lat="48.131622056506295" lon="2.6018688594129"><ele>92.0</ele><time>2026-04-08T17:27:04.998Z</time></trkpt><trkpt lat="48.13160526113772" lon="2.602111659073649"><ele>92.0</ele><time>2026-04-08T17:27:05.998Z</time></trkpt><trkpt lat="48.13159967906305" lon="2.602403882159649"><ele>92.0</ele><time>2026-04-08T17:27:06.998Z</time></trkpt><trkpt lat="48.131593730290945" lon="2.6027363070444336"><ele>91.5</ele><time>2026-04-08T17:27:07.998Z</time></trkpt><trkpt lat="48.13159808476009" lon="2.603093116259413"><ele>91.0</ele><time>2026-04-08T17:27:09Z</time></trkpt><trkpt lat="48.13159703583325" lon="2.603456107524341"><ele>91.5</ele><time>2026-04-08T17:27:10Z</time></trkpt><trkpt lat="48.13157031284466" lon="2.6038153967214654"><ele>92.0</ele><time>2026-04-08T17:27:11Z</time></trkpt><trkpt lat="48.13155990244214" lon="2.604159783056195"><ele>92.5</ele><time>2026-04-08T17:27:12Z</time></trkpt><trkpt lat="48.13155718827532" lon="2.6045098431641818"><ele>93.0</ele><time>2026-04-08T17:27:13Z</time></trkpt><trkpt lat="48.1315464363833" lon="2.6048348484258748"><ele>93.0</ele><time>2026-04-08T17:27:14Z</time></trkpt><trkpt lat="48.13156057883093" lon="2.605178002938314"><ele>93.0</ele><time>2026-04-08T17:27:15Z</time></trkpt><trkpt lat="48.131538872792866" lon="2.6055115241277957"><ele>91.66666666666667</ele><time>2026-04-08T17:27:16Z</time></trkpt><trkpt lat="48.131523388331566" lon="2.6058270643199437"><ele>90.33333333333334</ele><time>2026-04-08T17:27:17Z</time></trkpt><trkpt lat="48.131506911490156" lon="2.6061207990925963"><ele>89.0</ele><time>2026-04-08T17:27:18Z</time></trkpt><trkpt lat="48.13150597209458" lon="2.6064083315731392"><ele>89.0</ele><time>2026-04-08T17:27:19Z</time></trkpt><trkpt lat="48.13149130520425" lon="2.606715373454569"><ele>89.0</ele><time>2026-04-08T17:27:20Z</time></trkpt><trkpt lat="48.13149038315191" lon="2.606938741565518"><ele>89.0</ele><time>2026-04-08T17:27:21Z</time></trkpt><trkpt lat="48.131480835858135" lon="2.6071211505745904"><ele>88.80000000000001</ele><time>2026-04-08T17:27:22Z</time></trkpt><trkpt lat="48.131470823243596" lon="2.607254489839437"><ele>88.60000000000001</ele><time>2026-04-08T17:27:23Z</time></trkpt><trkpt lat="48.131468910148214" lon="2.607370105845194"><ele>88.4</ele><time>2026-04-08T17:27:24Z</time></trkpt><trkpt lat="48.131450421179245" lon="2.6075115855524427"><ele>88.2</ele><time>2026-04-08T17:27:26Z</time></trkpt><trkpt lat="48.13138824045296" lon="2.6076301411139577"><ele>88.0</ele><time>2026-04-08T17:27:27Z</time></trkpt><trkpt lat="48.13132540282579" lon="2.6077758218993337"><ele>87.66666666666666</ele><time>2026-04-08T17:27:28Z</time></trkpt><trkpt lat="48.13127072157719" lon="2.607962951697691"><ele>87.33333333333333</ele><time>2026-04-08T17:27:29Z</time></trkpt><trkpt lat="48.13120356239864" lon="2.6082240015685385"><ele>87.0</ele><time>2026-04-08T17:27:30Z</time></trkpt><trkpt lat="48.131125258723706" lon="2.608481775934022"><ele>87.0</ele><time>2026-04-08T17:27:31Z</time></trkpt><trkpt lat="48.13105978416242" lon="2.6087703856116553"><ele>87.0</ele><time>2026-04-08T17:27:32Z</time></trkpt><trkpt lat="48.13098131072512" lon="2.6090763068951106"><ele>87.0</ele><time>2026-04-08T17:27:33Z</time></trkpt><trkpt lat="48.13089899311619" lon="2.6093889867004068"><ele>87.0</ele><time>2026-04-08T17:27:34Z</time></trkpt><trkpt lat="48.13081286483497" lon="2.6096998431476623"><ele>87.0</ele><time>2026-04-08T17:27:35Z</time></trkpt><trkpt lat="48.13072739918308" lon="2.610023025544817"><ele>87.66666666666667</ele><time>2026-04-08T17:27:36Z</time></trkpt><trkpt lat="48.13064053162441" lon="2.610331636701737"><ele>88.33333333333334</ele><time>2026-04-08T17:27:37Z</time></trkpt><trkpt lat="48.13056219190437" lon="2.610601224738673"><ele>89.0</ele><time>2026-04-08T17:27:38Z</time></trkpt><trkpt lat="48.130494135382705" lon="2.610870813269564"><ele>89.0</ele><time>2026-04-08T17:27:39Z</time></trkpt><trkpt lat="48.130414403031224" lon="2.6111545249618198"><ele>89.0</ele><time>2026-04-08T17:27:40Z</time></trkpt><trkpt lat="48.130326311080644" lon="2.6114785394031936"><ele>89.0</ele><time>2026-04-08T17:27:41Z</time></trkpt><trkpt lat="48.13023615921352" lon="2.6117909375809543"><ele>89.66666666666667</ele><time>2026-04-08T17:27:42Z</time></trkpt><trkpt lat="48.130152683249285" lon="2.6120925025450594"><ele>90.33333333333333</ele><time>2026-04-08T17:27:43Z</time></trkpt><trkpt lat="48.1300823973" lon="2.6123752600432346"><ele>91.0</ele><time>2026-04-08T17:27:44Z</time></trkpt><trkpt lat="48.13001326000226" lon="2.612643521952531"><ele>91.0</ele><time>2026-04-08T17:27:45Z</time></trkpt><trkpt lat="48.12992729988196" lon="2.6129409099048475"><ele>91.0</ele><time>2026-04-08T17:27:46Z</time></trkpt><trkpt lat="48.12983655515586" lon="2.613258667753129"><ele>91.0</ele><time>2026-04-08T17:27:47Z</time></trkpt><trkpt lat="48.129753486884894" lon="2.6135629076120592"><ele>91.0</ele><time>2026-04-08T17:27:48Z</time></trkpt><trkpt lat="48.129675548799206" lon="2.61386545471034"><ele>91.0</ele><time>2026-04-08T17:27:49Z</time></trkpt><trkpt lat="48.12959866686533" lon="2.6141317750799784"><ele>91.0</ele><time>2026-04-08T17:27:50Z</time></trkpt><trkpt lat="48.129533760520275" lon="2.614354012911948"><ele>91.25</ele><time>2026-04-08T17:27:51Z</time></trkpt><trkpt lat="48.12948487984967" lon="2.61456334920748"><ele>91.5</ele><time>2026-04-08T17:27:51.999Z</time></trkpt><trkpt lat="48.12944075888012" lon="2.614728454963675"><ele>91.75</ele><time>2026-04-08T17:27:52.999Z</time></trkpt><trkpt lat="48.12939138631343" lon="2.61486117378076"><ele>92.0</ele><time>2026-04-08T17:27:53.999Z</time></trkpt><trkpt lat="48.12935654449286" lon="2.6149814406245824"><ele>92.0</ele><time>2026-04-08T17:27:54.999Z</time></trkpt><trkpt lat="48.129334325885054" lon="2.61508419931435"><ele>92.0</ele><time>2026-04-08T17:27:55.999Z</time></trkpt><trkpt lat="48.129355278388196" lon="2.6152654687113994"><ele>92.0</ele><time>2026-04-08T17:28:12.999Z</time></trkpt><trkpt lat="48.129409125937734" lon="2.6154279893193046"><ele>92.0</ele><time>2026-04-08T17:28:13.999Z</time></trkpt><trkpt lat="48.129471360552266" lon="2.6156044446460482"><ele>92.0</ele><time>2026-04-08T17:28:14.999Z</time></trkpt><trkpt lat="48.12953133946317" lon="2.6158137490083284"><ele>92.0</ele><time>2026-04-08T17:28:15.999Z</time></trkpt><trkpt lat="48.129599551665805" lon="2.615999192330777"><ele>92.0</ele><time>2026-04-08T17:28:16.999Z</time></trkpt><trkpt lat="48.12967845445296" lon="2.616173762704715"><ele>92.0</ele><time>2026-04-08T17:28:17.999Z</time></trkpt><trkpt lat="48.129744881245514" lon="2.6163229444672256"><ele>92.0</ele><time>2026-04-08T17:28:18.999Z</time></trkpt><trkpt lat="48.12980987495914" lon="2.6165346840687795"><ele>92.0</ele><time>2026-04-08T17:28:19.999Z</time></trkpt><trkpt lat="48.129897600802465" lon="2.6167837869163857"><ele>92.0</ele><time>2026-04-08T17:28:20.999Z</time></trkpt><trkpt lat="48.1299966326661" lon="2.6170725261486942"><ele>92.0</ele><time>2026-04-08T17:28:21.999Z</time></trkpt><trkpt lat="48.13009131610126" lon="2.617355817624684"><ele>92.33333333333334</ele><time>2026-04-08T17:28:22.999Z</time></trkpt><trkpt lat="48.13017165396299" lon="2.6175951548204517"><ele>92.66666666666667</ele><time>2026-04-08T17:28:23.999Z</time></trkpt><trkpt lat="48.130243990389914" lon="2.6178142120853667"><ele>93.0</ele><time>2026-04-08T17:28:24.999Z</time></trkpt><trkpt lat="48.13032180614648" lon="2.6180122637566816"><ele>93.33333333333333</ele><time>2026-04-08T17:28:25.999Z</time></trkpt><trkpt lat="48.13038622960029" lon="2.6182010392079906"><ele>93.66666666666666</ele><time>2026-04-08T17:28:26.999Z</time></trkpt><trkpt lat="48.13046201153197" lon="2.6184135352733033"><ele>94.0</ele><time>2026-04-08T17:28:27.999Z</time></trkpt><trkpt lat="48.130534338295575" lon="2.6186194569928647"><ele>94.0</ele><time>2026-04-08T17:28:28.999Z</time></trkpt><trkpt lat="48.13059739876953" lon="2.6188379403041258"><ele>94.0</ele><time>2026-04-08T17:28:29.999Z</time></trkpt><trkpt lat="48.130672767829914" lon="2.61907487496437"><ele>94.0</ele><time>2026-04-08T17:28:30.999Z</time></trkpt><trkpt lat="48.130751073025586" lon="2.6192991606949243"><ele>94.25</ele><time>2026-04-08T17:28:31.999Z</time></trkpt><trkpt lat="48.1308178200108" lon="2.6195071233027223"><ele>94.5</ele><time>2026-04-08T17:28:32.999Z</time></trkpt><trkpt lat="48.13088222589418" lon="2.6197184477438644"><ele>94.75</ele><time>2026-04-08T17:28:33.999Z</time></trkpt><trkpt lat="48.13093826067237" lon="2.619876607949147"><ele>95.0</ele><time>2026-04-08T17:28:34.999Z</time></trkpt><trkpt lat="48.13099156835067" lon="2.619999166822825"><ele>95.0</ele><time>2026-04-08T17:28:35.999Z</time></trkpt><trkpt lat="48.131023615758174" lon="2.620147710271521"><ele>95.0</ele><time>2026-04-08T17:28:36.999Z</time></trkpt><trkpt lat="48.131066841053894" lon="2.6202533066961298"><ele>95.0</ele><time>2026-04-08T17:28:37.999Z</time></trkpt><trkpt lat="48.13110846171403" lon="2.6203363466075342"><ele>95.0</ele><time>2026-04-08T17:28:38.999Z</time></trkpt><trkpt lat="48.131006569699544" lon="2.62048201439551"><ele>95.0</ele><time>2026-04-08T17:28:40.999Z</time></trkpt><trkpt lat="48.130897817662245" lon="2.6205548685426012"><ele>94.66666666666667</ele><time>2026-04-08T17:28:41.999Z</time></trkpt><trkpt lat="48.13075811934133" lon="2.6206754477646337"><ele>94.33333333333333</ele><time>2026-04-08T17:28:42.999Z</time></trkpt><trkpt lat="48.1305977118924" lon="2.6208546633988057"><ele>94.0</ele><time>2026-04-08T17:28:43.999Z</time></trkpt><trkpt lat="48.13042693756964" lon="2.6210391591503304"><ele>93.66666666666666</ele><time>2026-04-08T17:28:44.999Z</time></trkpt><trkpt lat="48.13024389798547" lon="2.6212348051369516"><ele>93.33333333333333</ele><time>2026-04-08T17:28:45.999Z</time></trkpt><trkpt lat="48.13006400153502" lon="2.6214144929314926"><ele>93.0</ele><time>2026-04-08T17:28:46.999Z</time></trkpt><trkpt lat="48.12987584996344" lon="2.621608121069698"><ele>92.66666666666667</ele><time>2026-04-08T17:28:47.998Z</time></trkpt><trkpt lat="48.12973302746042" lon="2.621761166888202"><ele>92.33333333333334</ele><time>2026-04-08T17:28:48.998Z</time></trkpt><trkpt lat="48.129566448834225" lon="2.6219318172257537"><ele>92.0</ele><time>2026-04-08T17:28:49.998Z</time></trkpt><trkpt lat="48.129367715035826" lon="2.622107021329673"><ele>92.0</ele><time>2026-04-08T17:28:50.998Z</time></trkpt><trkpt lat="48.12915449732417" lon="2.6222783262666747"><ele>92.0</ele><time>2026-04-08T17:28:51.998Z</time></trkpt><trkpt lat="48.128936645946546" lon="2.6224655971653186"><ele>92.5</ele><time>2026-04-08T17:28:52.998Z</time></trkpt><trkpt lat="48.128717365116195" lon="2.6226745805556106"><ele>93.0</ele><time>2026-04-08T17:28:53.998Z</time></trkpt><trkpt lat="48.1285476528557" lon="2.622818606734728"><ele>93.33333333333333</ele><time>2026-04-08T17:28:54.998Z</time></trkpt><trkpt lat="48.12838660579406" lon="2.62294477415074"><ele>93.66666666666666</ele><time>2026-04-08T17:28:55.998Z</time></trkpt><trkpt lat="48.12822459403692" lon="2.6230650404794464"><ele>94.0</ele><time>2026-04-08T17:28:56.998Z</time></trkpt><trkpt lat="48.128044224657806" lon="2.623186715215744"><ele>94.0</ele><time>2026-04-08T17:28:57.998Z</time></trkpt><trkpt lat="48.127845215811604" lon="2.6233242528936453"><ele>94.0</ele><time>2026-04-08T17:28:58.998Z</time></trkpt><trkpt lat="48.12762947537058" lon="2.62348407203271"><ele>94.0</ele><time>2026-04-08T17:28:59.998Z</time></trkpt><trkpt lat="48.127417689828484" lon="2.6236364475906853"><ele>94.0</ele><time>2026-04-08T17:29:00.998Z</time></trkpt><trkpt lat="48.127193372333764" lon="2.623804632255591"><ele>94.0</ele><time>2026-04-08T17:29:01.998Z</time></trkpt><trkpt lat="48.12696088626632" lon="2.6239708824622676"><ele>94.0</ele><time>2026-04-08T17:29:02.998Z</time></trkpt><trkpt lat="48.126726245731085" lon="2.62413254407084"><ele>93.5</ele><time>2026-04-08T17:29:03.998Z</time></trkpt><trkpt lat="48.126481854054006" lon="2.6242909833684136"><ele>93.0</ele><time>2026-04-08T17:29:04.998Z</time></trkpt><trkpt lat="48.12622522719586" lon="2.6244710136466893"><ele>93.0</ele><time>2026-04-08T17:29:05.998Z</time></trkpt><trkpt lat="48.12597005658497" lon="2.624639480127613"><ele>93.0</ele><time>2026-04-08T17:29:06.998Z</time></trkpt><trkpt lat="48.125709752384076" lon="2.624820308864036"><ele>92.5</ele><time>2026-04-08T17:29:07.998Z</time></trkpt><trkpt lat="48.12545183384008" lon="2.6250019810772147"><ele>92.0</ele><time>2026-04-08T17:29:08.998Z</time></trkpt><trkpt lat="48.12518485410506" lon="2.6251943756090186"><ele>92.0</ele><time>2026-04-08T17:29:09.998Z</time></trkpt><trkpt lat="48.12491387058546" lon="2.6253860437596344"><ele>92.0</ele><time>2026-04-08T17:29:10.998Z</time></trkpt><trkpt lat="48.12463663553267" lon="2.625585421893557"><ele>91.0</ele><time>2026-04-08T17:29:11.998Z</time></trkpt><trkpt lat="48.12436320596021" lon="2.625774114377172"><ele>90.0</ele><time>2026-04-08T17:29:12.998Z</time></trkpt><trkpt lat="48.12409362360779" lon="2.6259492969415783"><ele>89.5</ele><time>2026-04-08T17:29:13.998Z</time></trkpt><trkpt lat="48.123820999414235" lon="2.626150362666288"><ele>89.0</ele><time>2026-04-08T17:29:15Z</time></trkpt><trkpt lat="48.12355511371487" lon="2.6263432402938447"><ele>89.0</ele><time>2026-04-08T17:29:16Z</time></trkpt><trkpt lat="48.12331337102931" lon="2.6265230977624268"><ele>89.0</ele><time>2026-04-08T17:29:17Z</time></trkpt><trkpt lat="48.123078309305015" lon="2.6266845546402218"><ele>88.0</ele><time>2026-04-08T17:29:18Z</time></trkpt><trkpt lat="48.12285053600649" lon="2.626841571878208"><ele>87.0</ele><time>2026-04-08T17:29:19Z</time></trkpt><trkpt lat="48.12262666968428" lon="2.626996858893883"><ele>87.0</ele><time>2026-04-08T17:29:20Z</time></trkpt><trkpt lat="48.12240499240968" lon="2.6271466233301495"><ele>87.0</ele><time>2026-04-08T17:29:21Z</time></trkpt><trkpt lat="48.122172784805514" lon="2.627317764885575"><ele>88.5</ele><time>2026-04-08T17:29:22Z</time></trkpt><trkpt lat="48.1219390257175" lon="2.627486912370804"><ele>90.0</ele><time>2026-04-08T17:29:23Z</time></trkpt><trkpt lat="48.121743520183294" lon="2.6276239318450614"><ele>90.0</ele><time>2026-04-08T17:29:24Z</time></trkpt><trkpt lat="48.12158480783096" lon="2.6277357727942685"><ele>90.0</ele><time>2026-04-08T17:29:25Z</time></trkpt><trkpt lat="48.1214643695382" lon="2.627811382046038"><ele>90.0</ele><time>2026-04-08T17:29:26Z</time></trkpt><trkpt lat="48.121364222469836" lon="2.627882357416578"><ele>90.0</ele><time>2026-04-08T17:29:27Z</time></trkpt><trkpt lat="48.12125744900451" lon="2.6279601783230864"><ele>90.0</ele><time>2026-04-08T17:29:28Z</time></trkpt><trkpt lat="48.12113383354481" lon="2.628043286222905"><ele>90.0</ele><time>2026-04-08T17:29:29Z</time></trkpt><trkpt lat="48.120988820452624" lon="2.6281131663187103"><ele>90.0</ele><time>2026-04-08T17:29:30Z</time></trkpt><trkpt lat="48.120851296139875" lon="2.6281599955838613"><ele>90.0</ele><time>2026-04-08T17:29:31Z</time></trkpt><trkpt lat="48.1206971022001" lon="2.628222166510696"><ele>90.5</ele><time>2026-04-08T17:29:32Z</time></trkpt><trkpt lat="48.120557434997224" lon="2.628288077287641"><ele>91.0</ele><time>2026-04-08T17:29:33Z</time></trkpt><trkpt lat="48.12043227495032" lon="2.628356331794638"><ele>91.5</ele><time>2026-04-08T17:29:34Z</time></trkpt><trkpt lat="48.120313090405176" lon="2.628413419348398"><ele>92.0</ele><time>2026-04-08T17:29:35Z</time></trkpt><trkpt lat="48.120173158851486" lon="2.628474758987653"><ele>92.0</ele><time>2026-04-08T17:29:36Z</time></trkpt><trkpt lat="48.120024142968546" lon="2.628494992611582"><ele>92.0</ele><time>2026-04-08T17:29:37Z</time></trkpt><trkpt lat="48.11985505892706" lon="2.6285674958094236"><ele>92.0</ele><time>2026-04-08T17:29:38Z</time></trkpt><trkpt lat="48.11965130939792" lon="2.6286548635379656"><ele>91.5</ele><time>2026-04-08T17:29:39Z</time></trkpt><trkpt lat="48.11943358000051" lon="2.6287507478412016"><ele>91.0</ele><time>2026-04-08T17:29:40Z</time></trkpt><trkpt lat="48.119205096937705" lon="2.628872560178696"><ele>91.0</ele><time>2026-04-08T17:29:41Z</time></trkpt><trkpt lat="48.11901008208638" lon="2.6289601632363038"><ele>91.0</ele><time>2026-04-08T17:29:42Z</time></trkpt><trkpt lat="48.118853731419605" lon="2.6290048136827173"><ele>91.0</ele><time>2026-04-08T17:29:43Z</time></trkpt><trkpt lat="48.11868509272306" lon="2.62907738244722"><ele>91.0</ele><time>2026-04-08T17:29:44Z</time></trkpt><trkpt lat="48.118526273218755" lon="2.6291677525048223"><ele>91.0</ele><time>2026-04-08T17:29:45Z</time></trkpt><trkpt lat="48.11838414636813" lon="2.6292364479257873"><ele>91.0</ele><time>2026-04-08T17:29:46Z</time></trkpt><trkpt lat="48.11825586811134" lon="2.6292678513608"><ele>91.0</ele><time>2026-04-08T17:29:47Z</time></trkpt><trkpt lat="48.118146896957" lon="2.629338363629367"><ele>91.0</ele><time>2026-04-08T17:29:48Z</time></trkpt><trkpt lat="48.118070882471805" lon="2.629365233215528"><ele>91.0</ele><time>2026-04-08T17:29:49Z</time></trkpt><trkpt lat="48.1180080848269" lon="2.629399382852839"><ele>91.0</ele><time>2026-04-08T17:29:50Z</time></trkpt><trkpt lat="48.118027889725774" lon="2.6296231357358186"><ele>91.0</ele><time>2026-04-08T17:29:57Z</time></trkpt><trkpt lat="48.11804378209623" lon="2.629789096609231"><ele>91.0</ele><time>2026-04-08T17:29:59.999Z</time></trkpt><trkpt lat="48.118090795790174" lon="2.629669802796911"><ele>91.0</ele><time>2026-04-08T17:30:15.999Z</time></trkpt><trkpt lat="48.1180511981724" lon="2.629576099389189"><ele>91.0</ele><time>2026-04-08T17:30:17.999Z</time></trkpt><trkpt lat="48.118005337825174" lon="2.6294832306440306"><ele>91.0</ele><time>2026-04-08T17:30:19.999Z</time></trkpt><trkpt lat="48.1179176205647" lon="2.629445884857537"><ele>91.0</ele><time>2026-04-08T17:30:21.999Z</time></trkpt><trkpt lat="48.11783402244741" lon="2.629495426641108"><ele>91.0</ele><time>2026-04-08T17:30:22.999Z</time></trkpt><trkpt lat="48.1177218768112" lon="2.6295414161712927"><ele>91.0</ele><time>2026-04-08T17:30:23.999Z</time></trkpt><trkpt lat="48.117599350700935" lon="2.629585181127059"><ele>91.0</ele><time>2026-04-08T17:30:24.999Z</time></trkpt><trkpt lat="48.117483676265465" lon="2.6296348483871728"><ele>91.0</ele><time>2026-04-08T17:30:25.999Z</time></trkpt><trkpt lat="48.11735724799937" lon="2.629668202199191"><ele>91.0</ele><time>2026-04-08T17:30:26.999Z</time></trkpt><trkpt lat="48.11721511769546" lon="2.6297311910560945"><ele>91.0</ele><time>2026-04-08T17:30:27.999Z</time></trkpt><trkpt lat="48.117062672881474" lon="2.6298099592420128"><ele>90.66666666666666</ele><time>2026-04-08T17:30:28.999Z</time></trkpt><trkpt lat="48.116868574277206" lon="2.6298848441004137"><ele>90.33333333333333</ele><time>2026-04-08T17:30:29.999Z</time></trkpt><trkpt lat="48.11667066581521" lon="2.629969726769603"><ele>90.0</ele><time>2026-04-08T17:30:30.999Z</time></trkpt><trkpt lat="48.11650463261584" lon="2.630055461621647"><ele>90.0</ele><time>2026-04-08T17:30:31.999Z</time></trkpt><trkpt lat="48.11632768305097" lon="2.630135297231748"><ele>90.0</ele><time>2026-04-08T17:30:32.999Z</time></trkpt><trkpt lat="48.116116781757434" lon="2.630228816134859"><ele>90.0</ele><time>2026-04-08T17:30:33.999Z</time></trkpt><trkpt lat="48.11589149068568" lon="2.630320309959655"><ele>89.66666666666667</ele><time>2026-04-08T17:30:34.999Z</time></trkpt><trkpt lat="48.115683301857885" lon="2.6304114532292147"><ele>89.33333333333334</ele><time>2026-04-08T17:30:35.999Z</time></trkpt><trkpt lat="48.11548521053125" lon="2.630475607591859"><ele>89.0</ele><time>2026-04-08T17:30:36.999Z</time></trkpt><trkpt lat="48.115304178149316" lon="2.6305640647464603"><ele>89.0</ele><time>2026-04-08T17:30:37.999Z</time></trkpt><trkpt lat="48.1151243579811" lon="2.6306508711169996"><ele>89.0</ele><time>2026-04-08T17:30:38.999Z</time></trkpt><trkpt lat="48.11494925249768" lon="2.6307041711305166"><ele>89.0</ele><time>2026-04-08T17:30:39.999Z</time></trkpt><trkpt lat="48.11480714718222" lon="2.630786293812942"><ele>88.6</ele><time>2026-04-08T17:30:40.999Z</time></trkpt><trkpt lat="48.114687691828934" lon="2.6308388374819898"><ele>88.2</ele><time>2026-04-08T17:30:41.999Z</time></trkpt><trkpt lat="48.11456483188967" lon="2.6308939935788924"><ele>87.8</ele><time>2026-04-08T17:30:42.999Z</time></trkpt><trkpt lat="48.11448325166122" lon="2.6309262821651487"><ele>87.39999999999999</ele><time>2026-04-08T17:30:43.999Z</time></trkpt><trkpt lat="48.11439097346816" lon="2.6309636296629497"><ele>87.0</ele><time>2026-04-08T17:30:44.999Z</time></trkpt><trkpt lat="48.11431262034021" lon="2.630992216129171"><ele>87.0</ele><time>2026-04-08T17:30:45.999Z</time></trkpt><trkpt lat="48.11424287151789" lon="2.631023404074298"><ele>87.0</ele><time>2026-04-08T17:30:46.999Z</time></trkpt><trkpt lat="48.11414251320764" lon="2.6310513526552386"><ele>87.0</ele><time>2026-04-08T17:30:48.999Z</time></trkpt><trkpt lat="48.11407928167359" lon="2.6310465302962847"><ele>87.0</ele><time>2026-04-08T17:30:55.998Z</time></trkpt><trkpt lat="48.11404285375782" lon="2.6309509914304225"><ele>87.0</ele><time>2026-04-08T17:30:57.998Z</time></trkpt><trkpt lat="48.11401786610235" lon="2.630825651518528"><ele>87.0</ele><time>2026-04-08T17:30:58.998Z</time></trkpt><trkpt lat="48.113977867466836" lon="2.6306710057845453"><ele>87.0</ele><time>2026-04-08T17:30:59.998Z</time></trkpt><trkpt lat="48.11393377078585" lon="2.630473631032885"><ele>87.0</ele><time>2026-04-08T17:31:00.998Z</time></trkpt><trkpt lat="48.113889926701624" lon="2.6302983680900462"><ele>87.0</ele><time>2026-04-08T17:31:01.998Z</time></trkpt><trkpt lat="48.1138338212834" lon="2.6301003713926057"><ele>87.0</ele><time>2026-04-08T17:31:02.998Z</time></trkpt><trkpt lat="48.1137985637931" lon="2.6299044831701988"><ele>87.0</ele><time>2026-04-08T17:31:03.998Z</time></trkpt><trkpt lat="48.11372853778423" lon="2.6297138198797123"><ele>87.0</ele><time>2026-04-08T17:31:04.998Z</time></trkpt><trkpt lat="48.11368560698413" lon="2.6295182019657797"><ele>87.0</ele><time>2026-04-08T17:31:05.998Z</time></trkpt><trkpt lat="48.113634839230464" lon="2.62931787436309"><ele>87.0</ele><time>2026-04-08T17:31:06.998Z</time></trkpt><trkpt lat="48.11360039259336" lon="2.629113312889769"><ele>87.0</ele><time>2026-04-08T17:31:07.998Z</time></trkpt><trkpt lat="48.11355041956599" lon="2.6289007630620294"><ele>87.0</ele><time>2026-04-08T17:31:08.998Z</time></trkpt><trkpt lat="48.11348656548214" lon="2.62869491222059"><ele>87.0</ele><time>2026-04-08T17:31:09.998Z</time></trkpt><trkpt lat="48.113429775200736" lon="2.628475939566797"><ele>87.0</ele><time>2026-04-08T17:31:10.998Z</time></trkpt><trkpt lat="48.11337764064545" lon="2.6282699510539222"><ele>87.0</ele><time>2026-04-08T17:31:11.998Z</time></trkpt><trkpt lat="48.11332406122417" lon="2.6280537105558004"><ele>87.0</ele><time>2026-04-08T17:31:12.998Z</time></trkpt><trkpt lat="48.11326533532654" lon="2.627846312925295"><ele>86.75</ele><time>2026-04-08T17:31:13.998Z</time></trkpt><trkpt lat="48.113214542498035" lon="2.6276415349445243"><ele>86.5</ele><time>2026-04-08T17:31:14.998Z</time></trkpt><trkpt lat="48.113163465912535" lon="2.6274555730465763"><ele>86.25</ele><time>2026-04-08T17:31:15.998Z</time></trkpt><trkpt lat="48.11311364012582" lon="2.627267617984405"><ele>86.0</ele><time>2026-04-08T17:31:16.998Z</time></trkpt><trkpt lat="48.11306546227385" lon="2.627086985833876"><ele>86.0</ele><time>2026-04-08T17:31:17.998Z</time></trkpt><trkpt lat="48.113015857298016" lon="2.6269013200858566"><ele>86.0</ele><time>2026-04-08T17:31:18.998Z</time></trkpt><trkpt lat="48.112970570592395" lon="2.626717951500806"><ele>86.0</ele><time>2026-04-08T17:31:19.998Z</time></trkpt><trkpt lat="48.112924485032885" lon="2.626535044269582"><ele>86.0</ele><time>2026-04-08T17:31:21Z</time></trkpt><trkpt lat="48.112881679313716" lon="2.6263596636608857"><ele>86.0</ele><time>2026-04-08T17:31:22Z</time></trkpt><trkpt lat="48.112842522265865" lon="2.626196649601825"><ele>86.0</ele><time>2026-04-08T17:31:23Z</time></trkpt><trkpt lat="48.11280514134123" lon="2.6260499413827563"><ele>86.0</ele><time>2026-04-08T17:31:24Z</time></trkpt><trkpt lat="48.11276468339829" lon="2.625903253573813"><ele>86.0</ele><time>2026-04-08T17:31:25Z</time></trkpt><trkpt lat="48.11273007208604" lon="2.625767314034522"><ele>86.0</ele><time>2026-04-08T17:31:26Z</time></trkpt><trkpt lat="48.112697607797855" lon="2.625638080143298"><ele>85.83333333333334</ele><time>2026-04-08T17:31:27Z</time></trkpt><trkpt lat="48.11266401545065" lon="2.625519235294435"><ele>85.66666666666667</ele><time>2026-04-08T17:31:28Z</time></trkpt><trkpt lat="48.112630702875" lon="2.6254120073745475"><ele>85.5</ele><time>2026-04-08T17:31:29Z</time></trkpt><trkpt lat="48.11259327809001" lon="2.6253312309148242"><ele>85.33333333333333</ele><time>2026-04-08T17:31:30Z</time></trkpt><trkpt lat="48.1125339765121" lon="2.6251676464730407"><ele>85.16666666666666</ele><time>2026-04-08T17:31:32Z</time></trkpt><trkpt lat="48.11251508238463" lon="2.6250686961896683"><ele>85.0</ele><time>2026-04-08T17:31:33Z</time></trkpt><trkpt lat="48.112495441583434" lon="2.624965837263605"><ele>85.0</ele><time>2026-04-08T17:31:34Z</time></trkpt><trkpt lat="48.11247681550489" lon="2.6248682925554876"><ele>85.0</ele><time>2026-04-08T17:31:35Z</time></trkpt><trkpt lat="48.11244658876965" lon="2.624709995150299"><ele>85.0</ele><time>2026-04-08T17:31:37Z</time></trkpt><trkpt lat="48.112705297137346" lon="2.62459594886266"><ele>85.0</ele><time>2026-04-08T17:31:39Z</time></trkpt><trkpt lat="48.11277085304725" lon="2.6245803661206364"><ele>85.0</ele><time>2026-04-08T17:31:40Z</time></trkpt><trkpt lat="48.11283888610359" lon="2.6245717691157084"><ele>85.0</ele><time>2026-04-08T17:31:41Z</time></trkpt><trkpt lat="48.11292481954163" lon="2.62455961454723"><ele>85.0</ele><time>2026-04-08T17:31:42Z</time></trkpt><trkpt lat="48.1130197687769" lon="2.624543834498074"><ele>85.0</ele><time>2026-04-08T17:31:43Z</time></trkpt><trkpt lat="48.113115810015096" lon="2.6245420142985947"><ele>85.0</ele><time>2026-04-08T17:31:44Z</time></trkpt><trkpt lat="48.11322584189928" lon="2.6245056444083597"><ele>84.2</ele><time>2026-04-08T17:31:45Z</time></trkpt><trkpt lat="48.11333388678079" lon="2.62447729915503"><ele>83.4</ele><time>2026-04-08T17:31:46Z</time></trkpt><trkpt lat="48.11342994756005" lon="2.6244671690986596"><ele>82.6</ele><time>2026-04-08T17:31:47Z</time></trkpt><trkpt lat="48.11350483830625" lon="2.624449510039379"><ele>81.8</ele><time>2026-04-08T17:31:48Z</time></trkpt><trkpt lat="48.11364252378276" lon="2.6244108440378007"><ele>81.0</ele><time>2026-04-08T17:31:50Z</time></trkpt><trkpt lat="48.11373931369374" lon="2.624392793712013"><ele>81.0</ele><time>2026-04-08T17:31:51Z</time></trkpt><trkpt lat="48.113846397409695" lon="2.624373665714633"><ele>81.0</ele><time>2026-04-08T17:31:52Z</time></trkpt><trkpt lat="48.11394480114394" lon="2.624361039268746"><ele>81.0</ele><time>2026-04-08T17:31:53Z</time></trkpt><trkpt lat="48.11405609017847" lon="2.6243398058519936"><ele>81.0</ele><time>2026-04-08T17:31:54Z</time></trkpt><trkpt lat="48.11418386259924" lon="2.6243092276553455"><ele>81.0</ele><time>2026-04-08T17:31:55Z</time></trkpt><trkpt lat="48.11433481139267" lon="2.624283243973455"><ele>81.33333333333333</ele><time>2026-04-08T17:31:56Z</time></trkpt><trkpt lat="48.11449381116546" lon="2.6242521664908893"><ele>81.66666666666666</ele><time>2026-04-08T17:31:57Z</time></trkpt><trkpt lat="48.11465075393077" lon="2.6242198762947715"><ele>82.0</ele><time>2026-04-08T17:31:58Z</time></trkpt><trkpt lat="48.114811249719224" lon="2.6241912100774396"><ele>83.0</ele><time>2026-04-08T17:31:59Z</time></trkpt><trkpt lat="48.1149852202279" lon="2.624163344004455"><ele>84.0</ele><time>2026-04-08T17:32:00Z</time></trkpt><trkpt lat="48.115153064458426" lon="2.6241345878228346"><ele>85.0</ele><time>2026-04-08T17:32:01Z</time></trkpt><trkpt lat="48.11534356520705" lon="2.624094951738684"><ele>85.0</ele><time>2026-04-08T17:32:02Z</time></trkpt><trkpt lat="48.115531678658975" lon="2.6240174429826633"><ele>85.0</ele><time>2026-04-08T17:32:03Z</time></trkpt><trkpt lat="48.115718212965064" lon="2.6240110739858538"><ele>85.0</ele><time>2026-04-08T17:32:03.999Z</time></trkpt><trkpt lat="48.115921433125784" lon="2.623968727574707"><ele>85.66666666666666</ele><time>2026-04-08T17:32:04.999Z</time></trkpt><trkpt lat="48.11612089447945" lon="2.6239458687215813"><ele>86.33333333333333</ele><time>2026-04-08T17:32:05.999Z</time></trkpt><trkpt lat="48.116279409268614" lon="2.6239278610359977"><ele>87.0</ele><time>2026-04-08T17:32:06.999Z</time></trkpt><trkpt lat="48.1164295823587" lon="2.623909031865369"><ele>87.0</ele><time>2026-04-08T17:32:07.999Z</time></trkpt><trkpt lat="48.11658566399436" lon="2.62387261826542"><ele>87.0</ele><time>2026-04-08T17:32:08.999Z</time></trkpt><trkpt lat="48.11669483228509" lon="2.623856033598117"><ele>87.0</ele><time>2026-04-08T17:32:09.999Z</time></trkpt><trkpt lat="48.11678060344801" lon="2.6238496274536067"><ele>87.0</ele><time>2026-04-08T17:32:10.999Z</time></trkpt><trkpt lat="48.1168462998727" lon="2.6238431403987432"><ele>87.0</ele><time>2026-04-08T17:32:11.999Z</time></trkpt><trkpt lat="48.11690874136053" lon="2.6238296320635173"><ele>87.0</ele><time>2026-04-08T17:32:12.999Z</time></trkpt><trkpt lat="48.11698273059491" lon="2.623820570652"><ele>87.0</ele><time>2026-04-08T17:32:14.999Z</time></trkpt><trkpt lat="48.117045570763665" lon="2.6238042125066587"><ele>87.0</ele><time>2026-04-08T17:32:19.999Z</time></trkpt><trkpt lat="48.11711127348731" lon="2.62378349054497"><ele>87.0</ele><time>2026-04-08T17:32:21.999Z</time></trkpt><trkpt lat="48.117177863819926" lon="2.6237736313250517"><ele>87.0</ele><time>2026-04-08T17:32:25.999Z</time></trkpt><trkpt lat="48.11725494311563" lon="2.6237677942012354"><ele>87.0</ele><time>2026-04-08T17:32:30.999Z</time></trkpt><trkpt lat="48.117330676469614" lon="2.623744778168567"><ele>87.0</ele><time>2026-04-08T17:32:32.999Z</time></trkpt><trkpt lat="48.11744572574308" lon="2.6237357905015886"><ele>86.75</ele><time>2026-04-08T17:32:34.999Z</time></trkpt><trkpt lat="48.11755746625878" lon="2.623708045657135"><ele>86.5</ele><time>2026-04-08T17:32:35.999Z</time></trkpt><trkpt lat="48.11768393742905" lon="2.623691109317722"><ele>86.25</ele><time>2026-04-08T17:32:36.999Z</time></trkpt><trkpt lat="48.11786941222879" lon="2.6236602555645945"><ele>86.0</ele><time>2026-04-08T17:32:37.999Z</time></trkpt><trkpt lat="48.118064614240666" lon="2.623615296298142"><ele>84.66666666666667</ele><time>2026-04-08T17:32:38.999Z</time></trkpt><trkpt lat="48.118254532824594" lon="2.623583286464184"><ele>83.33333333333333</ele><time>2026-04-08T17:32:39.999Z</time></trkpt><trkpt lat="48.11845794017413" lon="2.6235411188155826"><ele>82.0</ele><time>2026-04-08T17:32:40.999Z</time></trkpt><trkpt lat="48.11866624215885" lon="2.623506453122744"><ele>82.0</ele><time>2026-04-08T17:32:41.999Z</time></trkpt><trkpt lat="48.118874280969564" lon="2.623473784888591"><ele>82.0</ele><time>2026-04-08T17:32:42.999Z</time></trkpt><trkpt lat="48.11905501898497" lon="2.62343357643857"><ele>82.0</ele><time>2026-04-08T17:32:43.999Z</time></trkpt><trkpt lat="48.11922942891742" lon="2.6233820311330955"><ele>82.75</ele><time>2026-04-08T17:32:44.999Z</time></trkpt><trkpt lat="48.11938253790733" lon="2.623360699797531"><ele>83.5</ele><time>2026-04-08T17:32:45.999Z</time></trkpt><trkpt lat="48.119505494571996" lon="2.6233332512226344"><ele>84.25</ele><time>2026-04-08T17:32:46.999Z</time></trkpt><trkpt lat="48.11961153891199" lon="2.6233200499881413"><ele>85.0</ele><time>2026-04-08T17:32:47.999Z</time></trkpt><trkpt lat="48.11966027088796" lon="2.623251609282553"><ele>85.0</ele><time>2026-04-08T17:32:49.999Z</time></trkpt><trkpt lat="48.11963915635156" lon="2.6231598305709753"><ele>85.0</ele><time>2026-04-08T17:32:50.999Z</time></trkpt><trkpt lat="48.11959103569139" lon="2.6230186950599945"><ele>85.0</ele><time>2026-04-08T17:32:51.999Z</time></trkpt><trkpt lat="48.11950684715817" lon="2.6227838123817446"><ele>85.0</ele><time>2026-04-08T17:32:52.999Z</time></trkpt><trkpt lat="48.1194114086891" lon="2.6225357625973182"><ele>84.66666666666666</ele><time>2026-04-08T17:32:53.999Z</time></trkpt><trkpt lat="48.119313539153346" lon="2.6222185478663484"><ele>84.33333333333333</ele><time>2026-04-08T17:32:54.999Z</time></trkpt><trkpt lat="48.119222010071795" lon="2.621944231540271"><ele>84.0</ele><time>2026-04-08T17:32:55.999Z</time></trkpt><trkpt lat="48.119134731023244" lon="2.621678565050258"><ele>83.0</ele><time>2026-04-08T17:32:56.999Z</time></trkpt><trkpt lat="48.11903926855608" lon="2.6213864324404823"><ele>82.0</ele><time>2026-04-08T17:32:57.998Z</time></trkpt><trkpt lat="48.11896283116685" lon="2.621139362353469"><ele>81.0</ele><time>2026-04-08T17:32:58.998Z</time></trkpt><trkpt lat="48.118893909611245" lon="2.6209156061828622"><ele>81.0</ele><time>2026-04-08T17:32:59.998Z</time></trkpt><trkpt lat="48.118817400802634" lon="2.6206873304926868"><ele>81.0</ele><time>2026-04-08T17:33:00.998Z</time></trkpt><trkpt lat="48.11875563501816" lon="2.6204918387847975"><ele>81.0</ele><time>2026-04-08T17:33:01.998Z</time></trkpt><trkpt lat="48.11870093752437" lon="2.6203405124142973"><ele>81.0</ele><time>2026-04-08T17:33:02.998Z</time></trkpt><trkpt lat="48.11865289853249" lon="2.6202213397472263"><ele>81.4</ele><time>2026-04-08T17:33:03.998Z</time></trkpt><trkpt lat="48.11859466802063" lon="2.6201439029122757"><ele>81.8</ele><time>2026-04-08T17:33:04.998Z</time></trkpt><trkpt lat="48.118533743443535" lon="2.6201140475206346"><ele>82.2</ele><time>2026-04-08T17:33:05.998Z</time></trkpt><trkpt lat="48.11840653439567" lon="2.6201333281172925"><ele>82.60000000000001</ele><time>2026-04-08T17:33:07.998Z</time></trkpt><trkpt lat="48.11829280045969" lon="2.6202187539865167"><ele>83.0</ele><time>2026-04-08T17:33:08.998Z</time></trkpt><trkpt lat="48.11816002758774" lon="2.620313150243259"><ele>83.0</ele><time>2026-04-08T17:33:09.998Z</time></trkpt><trkpt lat="48.117999305958634" lon="2.6204319647009124"><ele>83.0</ele><time>2026-04-08T17:33:10.998Z</time></trkpt><trkpt lat="48.11781638105173" lon="2.620540303341382"><ele>83.0</ele><time>2026-04-08T17:33:11.998Z</time></trkpt><trkpt lat="48.11766000313909" lon="2.6206313096060785"><ele>83.0</ele><time>2026-04-08T17:33:12.998Z</time></trkpt><trkpt lat="48.11752295469123" lon="2.6207196552626124"><ele>83.0</ele><time>2026-04-08T17:33:13.998Z</time></trkpt><trkpt lat="48.1173987500084" lon="2.620792765411847"><ele>83.0</ele><time>2026-04-08T17:33:14.998Z</time></trkpt><trkpt lat="48.11728581819562" lon="2.620862311147219"><ele>83.0</ele><time>2026-04-08T17:33:15.998Z</time></trkpt><trkpt lat="48.1172038638549" lon="2.6209090119324365"><ele>83.0</ele><time>2026-04-08T17:33:16.998Z</time></trkpt><trkpt lat="48.11713648744464" lon="2.6209590475453277"><ele>83.0</ele><time>2026-04-08T17:33:17.998Z</time></trkpt><trkpt lat="48.117063170690756" lon="2.6209913684401176"><ele>83.0</ele><time>2026-04-08T17:33:19.998Z</time></trkpt><trkpt lat="48.11713806876236" lon="2.621019167321934"><ele>83.0</ele><time>2026-04-08T17:34:14.999Z</time></trkpt><trkpt lat="48.11729198232756" lon="2.620914134794526"><ele>83.0</ele><time>2026-04-08T17:34:16.999Z</time></trkpt><trkpt lat="48.117422926146304" lon="2.620802425433219"><ele>83.0</ele><time>2026-04-08T17:34:17.999Z</time></trkpt><trkpt lat="48.1175776826919" lon="2.620712263793978"><ele>83.0</ele><time>2026-04-08T17:34:18.999Z</time></trkpt><trkpt lat="48.11773689280667" lon="2.62061080173564"><ele>83.0</ele><time>2026-04-08T17:34:19.999Z</time></trkpt><trkpt lat="48.11786724669266" lon="2.6205287971134346"><ele>83.0</ele><time>2026-04-08T17:34:20.999Z</time></trkpt><trkpt lat="48.11798282537476" lon="2.6204498271879233"><ele>83.0</ele><time>2026-04-08T17:34:21.999Z</time></trkpt><trkpt lat="48.11808883643851" lon="2.620367301667799"><ele>83.0</ele><time>2026-04-08T17:34:22.999Z</time></trkpt><trkpt lat="48.1181860169961" lon="2.6203141442119313"><ele>83.0</ele><time>2026-04-08T17:34:23.999Z</time></trkpt><trkpt lat="48.1182753316452" lon="2.6202541050135055"><ele>83.0</ele><time>2026-04-08T17:34:24.999Z</time></trkpt><trkpt lat="48.11834807585819" lon="2.6201995670111797"><ele>83.0</ele><time>2026-04-08T17:34:25.999Z</time></trkpt><trkpt lat="48.11840972475319" lon="2.6201512823641355"><ele>83.0</ele><time>2026-04-08T17:34:26.999Z</time></trkpt><trkpt lat="48.1184942784314" lon="2.620135312871152"><ele>83.0</ele><time>2026-04-08T17:34:28.999Z</time></trkpt><trkpt lat="48.11856639089642" lon="2.6201481287678567"><ele>83.0</ele><time>2026-04-08T17:34:34.999Z</time></trkpt><trkpt lat="48.118673745699006" lon="2.6202331267398757"><ele>83.0</ele><time>2026-04-08T17:34:36.999Z</time></trkpt><trkpt lat="48.11873426017236" lon="2.6201457729616275"><ele>83.0</ele><time>2026-04-08T17:34:38.999Z</time></trkpt><trkpt lat="48.11872962810574" lon="2.619993333207074"><ele>83.0</ele><time>2026-04-08T17:34:40.999Z</time></trkpt><trkpt lat="48.11868617034164" lon="2.619856671327333"><ele>83.0</ele><time>2026-04-08T17:34:42.999Z</time></trkpt><trkpt lat="48.11863028993429" lon="2.6197835607240405"><ele>83.0</ele><time>2026-04-08T17:34:44.999Z</time></trkpt><trkpt lat="48.11852792213748" lon="2.6198465683886516"><ele>83.0</ele><time>2026-04-08T17:34:46.999Z</time></trkpt><trkpt lat="48.11850895548482" lon="2.619961600489858"><ele>83.0</ele><time>2026-04-08T17:34:47.999Z</time></trkpt><trkpt lat="48.11853361140695" lon="2.620083264670706"><ele>83.0</ele><time>2026-04-08T17:34:48.999Z</time></trkpt><trkpt lat="48.11860029975881" lon="2.6201988558898117"><ele>83.0</ele><time>2026-04-08T17:34:49.999Z</time></trkpt><trkpt lat="48.11869659061552" lon="2.6203496743751686"><ele>83.0</ele><time>2026-04-08T17:34:50.999Z</time></trkpt><trkpt lat="48.118782964256106" lon="2.6205776519230555"><ele>83.0</ele><time>2026-04-08T17:34:51.999Z</time></trkpt><trkpt lat="48.1188579713568" lon="2.6208368873857233"><ele>83.25</ele><time>2026-04-08T17:34:52.999Z</time></trkpt><trkpt lat="48.118910519511154" lon="2.6210578539821854"><ele>83.5</ele><time>2026-04-08T17:34:53.999Z</time></trkpt><trkpt lat="48.11896948012708" lon="2.621228545205011"><ele>83.75</ele><time>2026-04-08T17:34:54.999Z</time></trkpt><trkpt lat="48.11903304484302" lon="2.6214023115272234"><ele>84.0</ele><time>2026-04-08T17:34:55.999Z</time></trkpt><trkpt lat="48.119108653798875" lon="2.621627917271837"><ele>84.0</ele><time>2026-04-08T17:34:56.999Z</time></trkpt><trkpt lat="48.11919694461741" lon="2.6218977109924007"><ele>84.0</ele><time>2026-04-08T17:34:57.999Z</time></trkpt><trkpt lat="48.11929574292285" lon="2.62218799612683"><ele>84.0</ele><time>2026-04-08T17:34:58.999Z</time></trkpt><trkpt lat="48.11939853826927" lon="2.622494495091058"><ele>84.0</ele><time>2026-04-08T17:34:59.999Z</time></trkpt><trkpt lat="48.119506226882585" lon="2.622810925307752"><ele>84.0</ele><time>2026-04-08T17:35:00.999Z</time></trkpt><trkpt lat="48.119604627455445" lon="2.623112523667999"><ele>84.33333333333333</ele><time>2026-04-08T17:35:01.999Z</time></trkpt><trkpt lat="48.11970260008475" lon="2.6234002338725695"><ele>84.66666666666666</ele><time>2026-04-08T17:35:02.999Z</time></trkpt><trkpt lat="48.11980797051757" lon="2.6237122399637745"><ele>85.0</ele><time>2026-04-08T17:35:03.998Z</time></trkpt><trkpt lat="48.11991953513499" lon="2.6240500413648205"><ele>86.0</ele><time>2026-04-08T17:35:04.998Z</time></trkpt><trkpt lat="48.120029540654286" lon="2.6243993740301"><ele>87.0</ele><time>2026-04-08T17:35:05.998Z</time></trkpt><trkpt lat="48.12014428978694" lon="2.6247626277051443"><ele>87.5</ele><time>2026-04-08T17:35:06.998Z</time></trkpt><trkpt lat="48.12026279453376" lon="2.625125915143453"><ele>88.0</ele><time>2026-04-08T17:35:07.998Z</time></trkpt><trkpt lat="48.12038522728623" lon="2.6255011604000895"><ele>89.0</ele><time>2026-04-08T17:35:08.998Z</time></trkpt><trkpt lat="48.12050677647164" lon="2.625874910029347"><ele>90.0</ele><time>2026-04-08T17:35:09.998Z</time></trkpt><trkpt lat="48.120612447264804" lon="2.626221290697897"><ele>90.0</ele><time>2026-04-08T17:35:10.998Z</time></trkpt><trkpt lat="48.12071382022052" lon="2.626529773780149"><ele>90.0</ele><time>2026-04-08T17:35:11.998Z</time></trkpt><trkpt lat="48.12080805316195" lon="2.6268076436274326"><ele>90.0</ele><time>2026-04-08T17:35:12.998Z</time></trkpt><trkpt lat="48.120894266151105" lon="2.627072828341755"><ele>90.33333333333333</ele><time>2026-04-08T17:35:13.998Z</time></trkpt><trkpt lat="48.120976274360174" lon="2.6273254041226877"><ele>90.66666666666666</ele><time>2026-04-08T17:35:14.998Z</time></trkpt><trkpt lat="48.121047474723376" lon="2.6275543850430108"><ele>91.0</ele><time>2026-04-08T17:35:15.998Z</time></trkpt><trkpt lat="48.12112001090256" lon="2.627760351759535"><ele>90.66666666666666</ele><time>2026-04-08T17:35:16.998Z</time></trkpt><trkpt lat="48.1212061797173" lon="2.6279970953706866"><ele>90.33333333333333</ele><time>2026-04-08T17:35:17.998Z</time></trkpt><trkpt lat="48.121310288877844" lon="2.6282720300994713"><ele>90.0</ele><time>2026-04-08T17:35:18.998Z</time></trkpt><trkpt lat="48.12141086278669" lon="2.6285178999296943"><ele>91.0</ele><time>2026-04-08T17:35:19.998Z</time></trkpt><trkpt lat="48.12154447818894" lon="2.628827032232103"><ele>92.0</ele><time>2026-04-08T17:35:20.998Z</time></trkpt><trkpt lat="48.12168017252271" lon="2.629147039392832"><ele>92.0</ele><time>2026-04-08T17:35:21.998Z</time></trkpt><trkpt lat="48.121815627114366" lon="2.629472417361808"><ele>92.0</ele><time>2026-04-08T17:35:22.998Z</time></trkpt><trkpt lat="48.1219609614043" lon="2.629802161883557"><ele>92.0</ele><time>2026-04-08T17:35:23.998Z</time></trkpt><trkpt lat="48.12210829623877" lon="2.6301369702955153"><ele>92.0</ele><time>2026-04-08T17:35:24.998Z</time></trkpt><trkpt lat="48.122267038172794" lon="2.630493064744294"><ele>92.0</ele><time>2026-04-08T17:35:25.998Z</time></trkpt><trkpt lat="48.12241865004623" lon="2.6308362104833956"><ele>92.0</ele><time>2026-04-08T17:35:26.998Z</time></trkpt><trkpt lat="48.12257345086137" lon="2.6311838506671394"><ele>92.0</ele><time>2026-04-08T17:35:27.998Z</time></trkpt><trkpt lat="48.122718455942355" lon="2.6315244453891835"><ele>92.0</ele><time>2026-04-08T17:35:28.998Z</time></trkpt><trkpt lat="48.12285887609159" lon="2.631871996714599"><ele>91.5</ele><time>2026-04-08T17:35:29.998Z</time></trkpt><trkpt lat="48.122965764793825" lon="2.6321873446756494"><ele>91.0</ele><time>2026-04-08T17:35:30.998Z</time></trkpt><trkpt lat="48.12309159328593" lon="2.632477972717588"><ele>91.0</ele><time>2026-04-08T17:35:31.998Z</time></trkpt><trkpt lat="48.12324791751009" lon="2.632795508682998"><ele>91.0</ele><time>2026-04-08T17:35:32.999Z</time></trkpt><trkpt lat="48.12338074209857" lon="2.6331058366394573"><ele>91.5</ele><time>2026-04-08T17:35:33.999Z</time></trkpt><trkpt lat="48.12350941200273" lon="2.6333915827784478"><ele>92.0</ele><time>2026-04-08T17:35:34.999Z</time></trkpt><trkpt lat="48.12363630574391" lon="2.6336982156587143"><ele>92.0</ele><time>2026-04-08T17:35:35.999Z</time></trkpt><trkpt lat="48.12377429866653" lon="2.634032581656218"><ele>92.0</ele><time>2026-04-08T17:35:36.999Z</time></trkpt><trkpt lat="48.123919294914025" lon="2.6343775604500412"><ele>93.0</ele><time>2026-04-08T17:35:37.999Z</time></trkpt><trkpt lat="48.12407331865251" lon="2.6347246899045738"><ele>94.0</ele><time>2026-04-08T17:35:38.999Z</time></trkpt><trkpt lat="48.124201105288435" lon="2.635048893627776"><ele>93.66666666666666</ele><time>2026-04-08T17:35:39.999Z</time></trkpt><trkpt lat="48.124322456468605" lon="2.63533140309352"><ele>93.33333333333333</ele><time>2026-04-08T17:35:40.999Z</time></trkpt><trkpt lat="48.12444240398901" lon="2.6355735337174977"><ele>93.0</ele><time>2026-04-08T17:35:41.999Z</time></trkpt><trkpt lat="48.1245461105161" lon="2.635784879112632"><ele>93.0</ele><time>2026-04-08T17:35:42.999Z</time></trkpt><trkpt lat="48.12462422717567" lon="2.6359882134703074"><ele>93.0</ele><time>2026-04-08T17:35:43.999Z</time></trkpt><trkpt lat="48.12468612812019" lon="2.6361501552528517"><ele>93.0</ele><time>2026-04-08T17:35:45Z</time></trkpt><trkpt lat="48.12475000844327" lon="2.636291885372562"><ele>93.0</ele><time>2026-04-08T17:35:46Z</time></trkpt><trkpt lat="48.12480458710081" lon="2.6364264723471265"><ele>93.2</ele><time>2026-04-08T17:35:47Z</time></trkpt><trkpt lat="48.12485751324304" lon="2.6365504320196775"><ele>93.4</ele><time>2026-04-08T17:35:48Z</time></trkpt><trkpt lat="48.124906352310205" lon="2.6366564518499973"><ele>93.60000000000001</ele><time>2026-04-08T17:35:49Z</time></trkpt><trkpt lat="48.124974553379026" lon="2.6367105175102483"><ele>93.80000000000001</ele><time>2026-04-08T17:35:50Z</time></trkpt><trkpt lat="48.125045438801614" lon="2.6366675436961926"><ele>94.0</ele><time>2026-04-08T17:35:50.999Z</time></trkpt><trkpt lat="48.12515748095238" lon="2.6365876167473137"><ele>94.0</ele><time>2026-04-08T17:35:51.999Z</time></trkpt><trkpt lat="48.125292485301166" lon="2.6364574586504967"><ele>94.0</ele><time>2026-04-08T17:35:52.999Z</time></trkpt><trkpt lat="48.125416629689425" lon="2.6363030077430514"><ele>94.0</ele><time>2026-04-08T17:35:53.999Z</time></trkpt><trkpt lat="48.12560850996072" lon="2.636168001707401"><ele>93.66666666666666</ele><time>2026-04-08T17:35:54.999Z</time></trkpt><trkpt lat="48.12580890580297" lon="2.6360257303690804"><ele>93.33333333333333</ele><time>2026-04-08T17:35:55.999Z</time></trkpt><trkpt lat="48.125994974099505" lon="2.635877546301489"><ele>93.0</ele><time>2026-04-08T17:35:56.999Z</time></trkpt><trkpt lat="48.12615656781164" lon="2.6357537808573053"><ele>93.0</ele><time>2026-04-08T17:35:57.999Z</time></trkpt><trkpt lat="48.126301498995524" lon="2.635650776733037"><ele>93.0</ele><time>2026-04-08T17:35:58.999Z</time></trkpt><trkpt lat="48.1264220462524" lon="2.635563737701257"><ele>93.0</ele><time>2026-04-08T17:35:59.999Z</time></trkpt><trkpt lat="48.126525062456004" lon="2.63548879970703"><ele>93.0</ele><time>2026-04-08T17:36:00.999Z</time></trkpt><trkpt lat="48.12662170579914" lon="2.63534944972997"><ele>92.83333333333333</ele><time>2026-04-08T17:36:01.999Z</time></trkpt><trkpt lat="48.12668728368635" lon="2.635227156035564"><ele>92.66666666666667</ele><time>2026-04-08T17:36:02.999Z</time></trkpt><trkpt lat="48.12675190141742" lon="2.635133963857675"><ele>92.5</ele><time>2026-04-08T17:36:03.999Z</time></trkpt><trkpt lat="48.12682957999702" lon="2.6350975195028967"><ele>92.33333333333334</ele><time>2026-04-08T17:36:04.999Z</time></trkpt><trkpt lat="48.12687346975209" lon="2.63500706112522"><ele>92.16666666666667</ele><time>2026-04-08T17:36:05.999Z</time></trkpt><trkpt lat="48.126863500137716" lon="2.6348754113035366"><ele>92.0</ele><time>2026-04-08T17:36:06.999Z</time></trkpt><trkpt lat="48.12679751399762" lon="2.634703948499809"><ele>92.0</ele><time>2026-04-08T17:36:07.999Z</time></trkpt><trkpt lat="48.126714765289314" lon="2.6344841381085438"><ele>92.0</ele><time>2026-04-08T17:36:08.999Z</time></trkpt><trkpt lat="48.126666563720796" lon="2.634254157724073"><ele>92.0</ele><time>2026-04-08T17:36:09.999Z</time></trkpt><trkpt lat="48.12661931141711" lon="2.6340614592406584"><ele>92.0</ele><time>2026-04-08T17:36:10.999Z</time></trkpt><trkpt lat="48.12660961043496" lon="2.633937457776043"><ele>92.0</ele><time>2026-04-08T17:36:11.999Z</time></trkpt><trkpt lat="48.12669462839539" lon="2.6338530162237253"><ele>92.0</ele><time>2026-04-08T17:36:13.999Z</time></trkpt><trkpt lat="48.1267697729523" lon="2.633794723669447"><ele>92.0</ele><time>2026-04-08T17:36:14.999Z</time></trkpt><trkpt lat="48.12689230251057" lon="2.6336978368339112"><ele>92.0</ele><time>2026-04-08T17:36:15.999Z</time></trkpt><trkpt lat="48.12702737089319" lon="2.633551428542151"><ele>92.0</ele><time>2026-04-08T17:36:16.999Z</time></trkpt><trkpt lat="48.12719167483702" lon="2.63340428705819"><ele>92.0</ele><time>2026-04-08T17:36:17.999Z</time></trkpt><trkpt lat="48.12736951330866" lon="2.6332462707219637"><ele>92.0</ele><time>2026-04-08T17:36:18.999Z</time></trkpt><trkpt lat="48.1275581443477" lon="2.6330817143053182"><ele>92.0</ele><time>2026-04-08T17:36:19.999Z</time></trkpt><trkpt lat="48.12774841441006" lon="2.632895690549034"><ele>92.0</ele><time>2026-04-08T17:36:20.999Z</time></trkpt><trkpt lat="48.127941177444825" lon="2.632724208753099"><ele>92.0</ele><time>2026-04-08T17:36:21.999Z</time></trkpt><trkpt lat="48.12811646371779" lon="2.6325385224119118"><ele>92.0</ele><time>2026-04-08T17:36:22.999Z</time></trkpt><trkpt lat="48.1282930512016" lon="2.6323703572397332"><ele>92.0</ele><time>2026-04-08T17:36:23.999Z</time></trkpt><trkpt lat="48.12844592074181" lon="2.632209760781787"><ele>92.33333333333334</ele><time>2026-04-08T17:36:24.999Z</time></trkpt><trkpt lat="48.128587974945106" lon="2.6320845753581286"><ele>92.66666666666667</ele><time>2026-04-08T17:36:25.999Z</time></trkpt><trkpt lat="48.12873245929545" lon="2.631956008219209"><ele>93.0</ele><time>2026-04-08T17:36:26.999Z</time></trkpt><trkpt lat="48.12887702128454" lon="2.6318174171005477"><ele>93.0</ele><time>2026-04-08T17:36:27.999Z</time></trkpt><trkpt lat="48.12899431210862" lon="2.6316973442652754"><ele>93.0</ele><time>2026-04-08T17:36:28.999Z</time></trkpt><trkpt lat="48.12909254337183" lon="2.631601236965005"><ele>93.0</ele><time>2026-04-08T17:36:29.999Z</time></trkpt><trkpt lat="48.12918308762301" lon="2.6315003618316433"><ele>93.0</ele><time>2026-04-08T17:36:30.999Z</time></trkpt><trkpt lat="48.12928270113874" lon="2.631400733434913"><ele>94.0</ele><time>2026-04-08T17:36:31.999Z</time></trkpt><trkpt lat="48.129429363523215" lon="2.631268653671546"><ele>95.0</ele><time>2026-04-08T17:36:32.999Z</time></trkpt><trkpt lat="48.12958739091231" lon="2.6311211676735202"><ele>96.0</ele><time>2026-04-08T17:36:33.999Z</time></trkpt><trkpt lat="48.129730484905814" lon="2.6309627978612187"><ele>96.0</ele><time>2026-04-08T17:36:34.999Z</time></trkpt><trkpt lat="48.1298393564471" lon="2.6308147464637646"><ele>96.0</ele><time>2026-04-08T17:36:35.999Z</time></trkpt><trkpt lat="48.12993885835761" lon="2.6306856218140235"><ele>96.0</ele><time>2026-04-08T17:36:36.999Z</time></trkpt><trkpt lat="48.13001885124615" lon="2.6306204022697033"><ele>96.0</ele><time>2026-04-08T17:36:37.999Z</time></trkpt><trkpt lat="48.13011533908185" lon="2.630632914574489"><ele>96.4</ele><time>2026-04-08T17:36:39.999Z</time></trkpt><trkpt lat="48.13016674015372" lon="2.630724449194569"><ele>96.8</ele><time>2026-04-08T17:36:40.999Z</time></trkpt><trkpt lat="48.130210949947234" lon="2.6308717101901773"><ele>97.2</ele><time>2026-04-08T17:36:41.999Z</time></trkpt><trkpt lat="48.13027232240139" lon="2.631041994577668"><ele>97.60000000000001</ele><time>2026-04-08T17:36:42.999Z</time></trkpt><trkpt lat="48.13033385198554" lon="2.631148647159025"><ele>98.0</ele><time>2026-04-08T17:36:43.999Z</time></trkpt><trkpt lat="48.13039568815833" lon="2.631277939974148"><ele>98.25</ele><time>2026-04-08T17:36:44.999Z</time></trkpt><trkpt lat="48.13042145482407" lon="2.6314003088062514"><ele>98.5</ele><time>2026-04-08T17:36:45.999Z</time></trkpt><trkpt lat="48.13049392627694" lon="2.6315477390922055"><ele>98.75</ele><time>2026-04-08T17:36:46.999Z</time></trkpt><trkpt lat="48.130579815438296" lon="2.631686484175393"><ele>99.0</ele><time>2026-04-08T17:36:47.999Z</time></trkpt><trkpt lat="48.1306673024198" lon="2.631816842262479"><ele>98.4</ele><time>2026-04-08T17:36:48.999Z</time></trkpt><trkpt lat="48.13073033392721" lon="2.6319447561547915"><ele>97.80000000000001</ele><time>2026-04-08T17:36:49.999Z</time></trkpt><trkpt lat="48.130778327241266" lon="2.6320480270552955"><ele>97.19999999999999</ele><time>2026-04-08T17:36:50.999Z</time></trkpt><trkpt lat="48.13083384366983" lon="2.6321715389971403"><ele>96.6</ele><time>2026-04-08T17:36:52.999Z</time></trkpt><trkpt lat="48.130915967719176" lon="2.63219216481321"><ele>96.0</ele><time>2026-04-08T17:36:54.999Z</time></trkpt><trkpt lat="48.13098759317909" lon="2.6321196364706614"><ele>96.0</ele><time>2026-04-08T17:36:56.998Z</time></trkpt><trkpt lat="48.131055546976185" lon="2.632031224342893"><ele>96.0</ele><time>2026-04-08T17:36:57.998Z</time></trkpt><trkpt lat="48.13115268038028" lon="2.6319205106789667"><ele>96.0</ele><time>2026-04-08T17:36:58.998Z</time></trkpt><trkpt lat="48.13123339334955" lon="2.6318238910318135"><ele>96.0</ele><time>2026-04-08T17:36:59.998Z</time></trkpt><trkpt lat="48.131332716894214" lon="2.631712485050534"><ele>96.0</ele><time>2026-04-08T17:37:00.998Z</time></trkpt><trkpt lat="48.13142569227426" lon="2.631594501515821"><ele>96.0</ele><time>2026-04-08T17:37:01.998Z</time></trkpt><trkpt lat="48.13148671897337" lon="2.631552586243593"><ele>96.0</ele><time>2026-04-08T17:37:02.998Z</time></trkpt><trkpt lat="48.13155472267058" lon="2.6315935034709534"><ele>96.0</ele><time>2026-04-08T17:37:04.998Z</time></trkpt><trkpt lat="48.13160967110051" lon="2.6316840103403867"><ele>96.0</ele><time>2026-04-08T17:37:05.998Z</time></trkpt><trkpt lat="48.13166679839776" lon="2.631834407207329"><ele>96.0</ele><time>2026-04-08T17:37:06.998Z</time></trkpt><trkpt lat="48.131734476102984" lon="2.632017392010049"><ele>95.8</ele><time>2026-04-08T17:37:07.998Z</time></trkpt><trkpt lat="48.13179682660539" lon="2.632167261127252"><ele>95.6</ele><time>2026-04-08T17:37:08.998Z</time></trkpt><trkpt lat="48.13183439632073" lon="2.632273122075689"><ele>95.4</ele><time>2026-04-08T17:37:09.998Z</time></trkpt><trkpt lat="48.131896222626686" lon="2.6323596551370643"><ele>95.2</ele><time>2026-04-08T17:37:11.998Z</time></trkpt><trkpt lat="48.13200382460682" lon="2.6322282626113473"><ele>95.0</ele><time>2026-04-08T17:37:13.998Z</time></trkpt><trkpt lat="48.132118033661136" lon="2.6321146316156434"><ele>95.0</ele><time>2026-04-08T17:37:14.998Z</time></trkpt><trkpt lat="48.13226325830296" lon="2.6319884493263555"><ele>95.0</ele><time>2026-04-08T17:37:15.998Z</time></trkpt><trkpt lat="48.13242877587429" lon="2.6318416134126617"><ele>95.0</ele><time>2026-04-08T17:37:16.998Z</time></trkpt><trkpt lat="48.13260376197963" lon="2.631681471803965"><ele>95.33333333333334</ele><time>2026-04-08T17:37:17.998Z</time></trkpt><trkpt lat="48.13279045404417" lon="2.6315136933218577"><ele>95.66666666666667</ele><time>2026-04-08T17:37:18.998Z</time></trkpt><trkpt lat="48.13296518895674" lon="2.6313618830945362"><ele>96.0</ele><time>2026-04-08T17:37:19.998Z</time></trkpt><trkpt lat="48.13312660691338" lon="2.6312200579450136"><ele>96.33333333333334</ele><time>2026-04-08T17:37:20.998Z</time></trkpt><trkpt lat="48.13328200861926" lon="2.631073101887501"><ele>96.66666666666667</ele><time>2026-04-08T17:37:21.998Z</time></trkpt><trkpt lat="48.13342206696468" lon="2.6309612913912286"><ele>97.0</ele><time>2026-04-08T17:37:22.998Z</time></trkpt><trkpt lat="48.13353619837635" lon="2.6308484492806006"><ele>97.0</ele><time>2026-04-08T17:37:23.998Z</time></trkpt><trkpt lat="48.133636336569424" lon="2.630746632313094"><ele>97.0</ele><time>2026-04-08T17:37:24.998Z</time></trkpt><trkpt lat="48.13371563652159" lon="2.6306636564426116"><ele>97.0</ele><time>2026-04-08T17:37:25.998Z</time></trkpt><trkpt lat="48.1337863139824" lon="2.6306040814864162"><ele>97.0</ele><time>2026-04-08T17:37:26.998Z</time></trkpt><trkpt lat="48.13387759612164" lon="2.630510564828472"><ele>97.0</ele><time>2026-04-08T17:37:28.998Z</time></trkpt><trkpt lat="48.13394307824306" lon="2.630471353925467"><ele>97.0</ele><time>2026-04-08T17:37:30.998Z</time></trkpt><trkpt lat="48.1340254635487" lon="2.6304290991309442"><ele>97.0</ele><time>2026-04-08T17:37:31.998Z</time></trkpt><trkpt lat="48.134141734612015" lon="2.6303637024749897"><ele>97.0</ele><time>2026-04-08T17:37:32.998Z</time></trkpt><trkpt lat="48.13425402369501" lon="2.630349263282357"><ele>97.0</ele><time>2026-04-08T17:37:33.998Z</time></trkpt><trkpt lat="48.13439122004452" lon="2.6302744184442357"><ele>98.25</ele><time>2026-04-08T17:37:34.998Z</time></trkpt><trkpt lat="48.13449321176025" lon="2.6302295827010003"><ele>99.5</ele><time>2026-04-08T17:37:35.998Z</time></trkpt><trkpt lat="48.13462946238003" lon="2.6301443819429062"><ele>100.75</ele><time>2026-04-08T17:37:36.998Z</time></trkpt><trkpt lat="48.13477463878747" lon="2.6301012446308025"><ele>102.0</ele><time>2026-04-08T17:37:37.998Z</time></trkpt><trkpt lat="48.13487957578062" lon="2.6300307571896"><ele>101.75</ele><time>2026-04-08T17:37:39Z</time></trkpt><trkpt lat="48.13498128768645" lon="2.629977209906357"><ele>101.5</ele><time>2026-04-08T17:37:40Z</time></trkpt><trkpt lat="48.13509334399764" lon="2.629934749516089"><ele>101.25</ele><time>2026-04-08T17:37:41Z</time></trkpt><trkpt lat="48.13520406633089" lon="2.6298712048832225"><ele>101.0</ele><time>2026-04-08T17:37:42Z</time></trkpt><trkpt lat="48.13531706553304" lon="2.6298176390391403"><ele>101.0</ele><time>2026-04-08T17:37:43Z</time></trkpt><trkpt lat="48.13542092962691" lon="2.6297700062897134"><ele>101.0</ele><time>2026-04-08T17:37:44Z</time></trkpt><trkpt lat="48.135556265267965" lon="2.6297286288213377"><ele>101.0</ele><time>2026-04-08T17:37:45Z</time></trkpt><trkpt lat="48.1356537883607" lon="2.62965548430004"><ele>101.0</ele><time>2026-04-08T17:37:46Z</time></trkpt><trkpt lat="48.13574186769334" lon="2.62961433890485"><ele>101.0</ele><time>2026-04-08T17:37:47Z</time></trkpt><trkpt lat="48.13586660400154" lon="2.629564811736879"><ele>100.5</ele><time>2026-04-08T17:37:48Z</time></trkpt><trkpt lat="48.136020773335346" lon="2.629487552685499"><ele>100.0</ele><time>2026-04-08T17:37:49Z</time></trkpt><trkpt lat="48.13616933882843" lon="2.62943603182461"><ele>99.5</ele><time>2026-04-08T17:37:50Z</time></trkpt><trkpt lat="48.13628785215375" lon="2.6293882758685445"><ele>99.0</ele><time>2026-04-08T17:37:51Z</time></trkpt><trkpt lat="48.13638486649015" lon="2.6293367562422083"><ele>98.80000000000001</ele><time>2026-04-08T17:37:52Z</time></trkpt><trkpt lat="48.13648693362919" lon="2.6292932172549444"><ele>98.60000000000001</ele><time>2026-04-08T17:37:53Z</time></trkpt><trkpt lat="48.136591751836434" lon="2.629266404108763"><ele>98.4</ele><time>2026-04-08T17:37:54Z</time></trkpt><trkpt lat="48.136682292302986" lon="2.6292077395816627"><ele>98.2</ele><time>2026-04-08T17:37:55Z</time></trkpt><trkpt lat="48.136744877740114" lon="2.6291329563064285"><ele>98.0</ele><time>2026-04-08T17:37:56Z</time></trkpt><trkpt lat="48.13675956823744" lon="2.629035539168145"><ele>98.0</ele><time>2026-04-08T17:37:57Z</time></trkpt><trkpt lat="48.13678702579668" lon="2.6288238395566426"><ele>98.0</ele><time>2026-04-08T17:37:58Z</time></trkpt><trkpt lat="48.136836178171706" lon="2.6286043984402423"><ele>98.0</ele><time>2026-04-08T17:37:59Z</time></trkpt><trkpt lat="48.13687094088868" lon="2.628407358189644"><ele>98.0</ele><time>2026-04-08T17:38:00Z</time></trkpt><trkpt lat="48.13690629488023" lon="2.62826781959891"><ele>97.83333333333333</ele><time>2026-04-08T17:38:01Z</time></trkpt><trkpt lat="48.136927284672694" lon="2.628154364038024"><ele>97.66666666666666</ele><time>2026-04-08T17:38:02Z</time></trkpt><trkpt lat="48.13694958686239" lon="2.6280509564894605"><ele>97.5</ele><time>2026-04-08T17:38:03Z</time></trkpt><trkpt lat="48.137013296678376" lon="2.6280158029761527"><ele>97.33333333333334</ele><time>2026-04-08T17:38:09Z</time></trkpt><trkpt lat="48.136944995049134" lon="2.628145619327155"><ele>97.16666666666667</ele><time>2026-04-08T17:38:27.999Z</time></trkpt><trkpt lat="48.136896462064584" lon="2.6282913550125335"><ele>97.0</ele><time>2026-04-08T17:38:28.999Z</time></trkpt><trkpt lat="48.13686651895098" lon="2.628463484629036"><ele>97.25</ele><time>2026-04-08T17:38:29.999Z</time></trkpt><trkpt lat="48.13681389231424" lon="2.6286595067338454"><ele>97.5</ele><time>2026-04-08T17:38:30.999Z</time></trkpt><trkpt lat="48.136754213615816" lon="2.6288846060672486"><ele>97.75</ele><time>2026-04-08T17:38:31.999Z</time></trkpt><trkpt lat="48.1367291832073" lon="2.629066690502549"><ele>98.0</ele><time>2026-04-08T17:38:32.999Z</time></trkpt><trkpt lat="48.136706736811206" lon="2.629177999836432"><ele>98.0</ele><time>2026-04-08T17:38:33.999Z</time></trkpt><trkpt lat="48.13663993072" lon="2.629243813722875"><ele>98.0</ele><time>2026-04-08T17:38:34.999Z</time></trkpt><trkpt lat="48.13657120998581" lon="2.6292520011879974"><ele>98.0</ele><time>2026-04-08T17:38:35.999Z</time></trkpt><trkpt lat="48.13644342933655" lon="2.62928941390597"><ele>98.0</ele><time>2026-04-08T17:38:36.999Z</time></trkpt><trkpt lat="48.13627340054413" lon="2.6293428693196517"><ele>98.0</ele><time>2026-04-08T17:38:37.999Z</time></trkpt><trkpt lat="48.13609013292986" lon="2.6294400802687714"><ele>98.0</ele><time>2026-04-08T17:38:38.999Z</time></trkpt><trkpt lat="48.13590714564441" lon="2.629515817048829"><ele>98.0</ele><time>2026-04-08T17:38:39.999Z</time></trkpt><trkpt lat="48.13574519295695" lon="2.629602189678356"><ele>99.0</ele><time>2026-04-08T17:38:40.999Z</time></trkpt><trkpt lat="48.13558471823688" lon="2.6296770531268296"><ele>100.0</ele><time>2026-04-08T17:38:41.999Z</time></trkpt><trkpt lat="48.135431942062255" lon="2.6297430841078615"><ele>101.0</ele><time>2026-04-08T17:38:42.999Z</time></trkpt><trkpt lat="48.13530686733926" lon="2.62979196774668"><ele>100.99999999999999</ele><time>2026-04-08T17:38:43.999Z</time></trkpt><trkpt lat="48.135217723191545" lon="2.62985348405556"><ele>101.0</ele><time>2026-04-08T17:38:44.999Z</time></trkpt><trkpt lat="48.135146910190876" lon="2.6298943140422937"><ele>101.0</ele><time>2026-04-08T17:38:45.999Z</time></trkpt><trkpt lat="48.135083142713725" lon="2.6299180508453173"><ele>101.0</ele><time>2026-04-08T17:38:46.999Z</time></trkpt><trkpt lat="48.13500296017" lon="2.6299417380303782"><ele>100.99999999999999</ele><time>2026-04-08T17:38:47.999Z</time></trkpt><trkpt lat="48.134915522879155" lon="2.629966700387443"><ele>101.0</ele><time>2026-04-08T17:38:48.999Z</time></trkpt><trkpt lat="48.134834418073744" lon="2.6299785555662027"><ele>101.19999999999999</ele><time>2026-04-08T17:38:49.999Z</time></trkpt><trkpt lat="48.13473803003452" lon="2.6300447442743917"><ele>101.39999999999999</ele><time>2026-04-08T17:38:50.999Z</time></trkpt><trkpt lat="48.13465297373512" lon="2.6300977601390874"><ele>101.6</ele><time>2026-04-08T17:38:51.999Z</time></trkpt><trkpt lat="48.134554428566005" lon="2.6301496459798788"><ele>101.8</ele><time>2026-04-08T17:38:52.999Z</time></trkpt><trkpt lat="48.134472469163256" lon="2.6301917619251434"><ele>102.0</ele><time>2026-04-08T17:38:53.999Z</time></trkpt><trkpt lat="48.134396966306014" lon="2.6302534249835703"><ele>102.0</ele><time>2026-04-08T17:38:54.999Z</time></trkpt><trkpt lat="48.13432001308177" lon="2.6302928180826872"><ele>102.0</ele><time>2026-04-08T17:38:55.999Z</time></trkpt><trkpt lat="48.13424888407628" lon="2.6303223700921468"><ele>102.0</ele><time>2026-04-08T17:38:56.999Z</time></trkpt><trkpt lat="48.13417000173533" lon="2.63035666734451"><ele>102.0</ele><time>2026-04-08T17:38:57.999Z</time></trkpt><trkpt lat="48.134037991941106" lon="2.6304104771962185"><ele>102.0</ele><time>2026-04-08T17:38:59.999Z</time></trkpt><trkpt lat="48.133966316597444" lon="2.6304470694757667"><ele>101.28571428571429</ele><time>2026-04-08T17:39:00.999Z</time></trkpt><trkpt lat="48.1338981311539" lon="2.63045251929353"><ele>100.57142857142858</ele><time>2026-04-08T17:39:04.999Z</time></trkpt><trkpt lat="48.13395782470222" lon="2.6304928999452777"><ele>99.85714285714286</ele><time>2026-04-08T17:39:13.999Z</time></trkpt><trkpt lat="48.13395354928006" lon="2.6305909880261384"><ele>99.14285714285714</ele><time>2026-04-08T17:41:04.999Z</time></trkpt><trkpt lat="48.133975903622215" lon="2.6306837351284598"><ele>98.42857142857143</ele><time>2026-04-08T17:41:12.999Z</time></trkpt><trkpt lat="48.133991320768736" lon="2.6307774075973405"><ele>97.71428571428571</ele><time>2026-04-08T17:41:20.999Z</time></trkpt><trkpt lat="48.13396593641806" lon="2.630687769790608"><ele>97.0</ele><time>2026-04-08T17:41:39.998Z</time></trkpt><trkpt lat="48.13393706783482" lon="2.6305934858460356"><ele>97.00000000000001</ele><time>2026-04-08T17:41:49.998Z</time></trkpt><trkpt lat="48.133967886018155" lon="2.6306825152629747"><ele>97.0</ele><time>2026-04-08T17:45:32.999Z</time></trkpt><trkpt lat="48.13399605496463" lon="2.6307863609445237"><ele>97.0</ele><time>2026-04-08T17:45:39.999Z</time></trkpt><trkpt lat="48.133970642181545" lon="2.6306911611909563"><ele>97.0</ele><time>2026-04-08T17:46:00.998Z</time></trkpt><trkpt lat="48.13393795542851" lon="2.630596778576837"><ele>97.00000000000001</ele><time>2026-04-08T17:46:07.999Z</time></trkpt><trkpt lat="48.1339362357067" lon="2.6305009189577597"><ele>97.0</ele><time>2026-04-08T17:46:17Z</time></trkpt><trkpt lat="48.13385776851405" lon="2.6303805954314616"><ele>97.0</ele><time>2026-04-08T17:54:12.999Z</time></trkpt><trkpt lat="48.133788003141724" lon="2.6302507954480587"><ele>97.0</ele><time>2026-04-08T17:54:13.999Z</time></trkpt><trkpt lat="48.13371560715085" lon="2.6300554509901883"><ele>97.0</ele><time>2026-04-08T17:54:14.999Z</time></trkpt><trkpt lat="48.1336506533233" lon="2.629862672963114"><ele>97.0</ele><time>2026-04-08T17:54:15.999Z</time></trkpt><trkpt lat="48.13357411832335" lon="2.6296424977002397"><ele>98.0</ele><time>2026-04-08T17:54:16.999Z</time></trkpt><trkpt lat="48.1334782674274" lon="2.629427304859391"><ele>99.0</ele><time>2026-04-08T17:54:17.999Z</time></trkpt><trkpt lat="48.13338571008344" lon="2.6292646585407216"><ele>100.0</ele><time>2026-04-08T17:54:18.999Z</time></trkpt><trkpt lat="48.133292697363096" lon="2.629076348346016"><ele>98.66666666666667</ele><time>2026-04-08T17:54:19.999Z</time></trkpt><trkpt lat="48.1331950596132" lon="2.6288664758361997"><ele>97.33333333333334</ele><time>2026-04-08T17:54:20.999Z</time></trkpt><trkpt lat="48.13312459955617" lon="2.6286856435200026"><ele>96.0</ele><time>2026-04-08T17:54:21.999Z</time></trkpt><trkpt lat="48.13304155598476" lon="2.628499451066235"><ele>96.0</ele><time>2026-04-08T17:54:22.999Z</time></trkpt><trkpt lat="48.13295368498083" lon="2.6283018333308834"><ele>96.0</ele><time>2026-04-08T17:54:23.999Z</time></trkpt><trkpt lat="48.132895070241744" lon="2.6281478640143168"><ele>96.0</ele><time>2026-04-08T17:54:24.999Z</time></trkpt><trkpt lat="48.13281172065048" lon="2.62804318664028"><ele>96.0</ele><time>2026-04-08T17:54:25.999Z</time></trkpt><trkpt lat="48.13277358746138" lon="2.627915801136417"><ele>96.6</ele><time>2026-04-08T17:54:27.001Z</time></trkpt><trkpt lat="48.13272608923966" lon="2.627784738766001"><ele>97.19999999999999</ele><time>2026-04-08T17:54:28.001Z</time></trkpt><trkpt lat="48.132668112535164" lon="2.6276533250777234"><ele>97.80000000000001</ele><time>2026-04-08T17:54:29.001Z</time></trkpt><trkpt lat="48.132588801917315" lon="2.6275542066654203"><ele>98.4</ele><time>2026-04-08T17:54:30.001Z</time></trkpt><trkpt lat="48.13250376979424" lon="2.6275099700240636"><ele>99.0</ele><time>2026-04-08T17:54:31.001Z</time></trkpt><trkpt lat="48.13243220401214" lon="2.6274346960639514"><ele>98.0</ele><time>2026-04-08T17:54:32.001Z</time></trkpt><trkpt lat="48.13237166669426" lon="2.6272774234251766"><ele>97.0</ele><time>2026-04-08T17:54:33.001Z</time></trkpt><trkpt lat="48.132279326825966" lon="2.62707902735417"><ele>96.0</ele><time>2026-04-08T17:54:34.001Z</time></trkpt><trkpt lat="48.13216917768213" lon="2.6268375035077285"><ele>96.0</ele><time>2026-04-08T17:54:35.001Z</time></trkpt><trkpt lat="48.13207505188452" lon="2.6266392169105397"><ele>96.0</ele><time>2026-04-08T17:54:36.001Z</time></trkpt><trkpt lat="48.13198510998287" lon="2.6264625383352587"><ele>96.0</ele><time>2026-04-08T17:54:37.001Z</time></trkpt><trkpt lat="48.131931465130016" lon="2.6263130032926405"><ele>96.0</ele><time>2026-04-08T17:54:38.001Z</time></trkpt><trkpt lat="48.13186035357215" lon="2.6261953954725077"><ele>96.0</ele><time>2026-04-08T17:54:39.001Z</time></trkpt><trkpt lat="48.13180294615884" lon="2.6261122461222106"><ele>96.0</ele><time>2026-04-08T17:54:40.001Z</time></trkpt><trkpt lat="48.13172227580838" lon="2.626025815736088"><ele>96.0</ele><time>2026-04-08T17:54:41.001Z</time></trkpt><trkpt lat="48.131695831907045" lon="2.6258766825607136"><ele>96.0</ele><time>2026-04-08T17:54:42.001Z</time></trkpt><trkpt lat="48.13157237372842" lon="2.6257218426111764"><ele>96.0</ele><time>2026-04-08T17:54:43.001Z</time></trkpt><trkpt lat="48.131481803580165" lon="2.6255371060986894"><ele>95.6</ele><time>2026-04-08T17:54:44.001Z</time></trkpt><trkpt lat="48.13139624050629" lon="2.625376666986"><ele>95.19999999999999</ele><time>2026-04-08T17:54:45.001Z</time></trkpt><trkpt lat="48.131323229074944" lon="2.6252522368252653"><ele>94.80000000000001</ele><time>2026-04-08T17:54:46Z</time></trkpt><trkpt lat="48.13127240715523" lon="2.6251647803179816"><ele>94.4</ele><time>2026-04-08T17:54:47Z</time></trkpt><trkpt lat="48.13120589260464" lon="2.625045557227591"><ele>94.0</ele><time>2026-04-08T17:54:49Z</time></trkpt><trkpt lat="48.13126122611641" lon="2.6251465153668936"><ele>94.0</ele><time>2026-04-08T17:55:01Z</time></trkpt><trkpt lat="48.13131255956866" lon="2.625259905381235"><ele>94.0</ele><time>2026-04-08T17:55:03Z</time></trkpt><trkpt lat="48.13136457358146" lon="2.625118212266754"><ele>94.0</ele><time>2026-04-08T17:55:09Z</time></trkpt><trkpt lat="48.131440473257875" lon="2.6250621431877854"><ele>94.0</ele><time>2026-04-08T17:55:10Z</time></trkpt><trkpt lat="48.131561555251416" lon="2.624915414021425"><ele>94.0</ele><time>2026-04-08T17:55:11Z</time></trkpt><trkpt lat="48.13165295934989" lon="2.6248397157714582"><ele>94.5</ele><time>2026-04-08T17:55:12Z</time></trkpt><trkpt lat="48.131739199127395" lon="2.6247640680498776"><ele>95.0</ele><time>2026-04-08T17:55:13Z</time></trkpt><trkpt lat="48.13180853147387" lon="2.624679937091615"><ele>95.5</ele><time>2026-04-08T17:55:14Z</time></trkpt><trkpt lat="48.13187186084243" lon="2.624629130870529"><ele>96.0</ele><time>2026-04-08T17:55:15Z</time></trkpt><trkpt lat="48.13195624668389" lon="2.6245517601807005"><ele>96.50000000000001</ele><time>2026-04-08T17:55:17Z</time></trkpt><trkpt lat="48.131909685412964" lon="2.624617350811751"><ele>97.0</ele><time>2026-04-08T17:55:33Z</time></trkpt><trkpt lat="48.13184259171063" lon="2.624676926040227"><ele>97.0</ele><time>2026-04-08T17:55:34Z</time></trkpt><trkpt lat="48.13174331017886" lon="2.624763676426931"><ele>97.0</ele><time>2026-04-08T17:55:34.999Z</time></trkpt><trkpt lat="48.131660254687375" lon="2.62487383860937"><ele>97.0</ele><time>2026-04-08T17:55:35.999Z</time></trkpt><trkpt lat="48.131549089890704" lon="2.62496104219072"><ele>97.0</ele><time>2026-04-08T17:55:36.999Z</time></trkpt><trkpt lat="48.13138588668683" lon="2.6251191438118773"><ele>96.25</ele><time>2026-04-08T17:55:37.999Z</time></trkpt><trkpt lat="48.1313032298673" lon="2.625169959823256"><ele>95.5</ele><time>2026-04-08T17:55:39.999Z</time></trkpt><trkpt lat="48.13120969255124" lon="2.6250343011702313"><ele>94.75</ele><time>2026-04-08T17:55:41.999Z</time></trkpt><trkpt lat="48.13113306624105" lon="2.62488482533764"><ele>94.0</ele><time>2026-04-08T17:55:42.999Z</time></trkpt><trkpt lat="48.13103245100507" lon="2.6247031018834353"><ele>94.0</ele><time>2026-04-08T17:55:43.999Z</time></trkpt><trkpt lat="48.13093959070071" lon="2.624500528935909"><ele>94.0</ele><time>2026-04-08T17:55:44.999Z</time></trkpt><trkpt lat="48.130859346745815" lon="2.6243570085443584"><ele>94.0</ele><time>2026-04-08T17:55:45.999Z</time></trkpt><trkpt lat="48.130795640684234" lon="2.624226905987767"><ele>94.0</ele><time>2026-04-08T17:55:46.999Z</time></trkpt><trkpt lat="48.13073802613698" lon="2.6241195108239443"><ele>93.75</ele><time>2026-04-08T17:55:47.999Z</time></trkpt><trkpt lat="48.130689335088476" lon="2.624033581793444"><ele>93.5</ele><time>2026-04-08T17:55:48.999Z</time></trkpt><trkpt lat="48.1306255433534" lon="2.623891505668572"><ele>93.25</ele><time>2026-04-08T17:55:49.999Z</time></trkpt><trkpt lat="48.130528719857296" lon="2.6237000153993084"><ele>93.0</ele><time>2026-04-08T17:55:50.999Z</time></trkpt><trkpt lat="48.13040056667898" lon="2.62347386802497"><ele>93.0</ele><time>2026-04-08T17:55:51.999Z</time></trkpt><trkpt lat="48.13026454786768" lon="2.6232219747504657"><ele>93.0</ele><time>2026-04-08T17:55:52.999Z</time></trkpt><trkpt lat="48.130126131354295" lon="2.6229738714390334"><ele>93.0</ele><time>2026-04-08T17:55:53.999Z</time></trkpt><trkpt lat="48.13001241717908" lon="2.6227513311160706"><ele>92.75</ele><time>2026-04-08T17:55:54.999Z</time></trkpt><trkpt lat="48.129911022279124" lon="2.622549874227429"><ele>92.5</ele><time>2026-04-08T17:55:55.999Z</time></trkpt><trkpt lat="48.12982334570966" lon="2.622389360650014"><ele>92.25</ele><time>2026-04-08T17:55:56.999Z</time></trkpt><trkpt lat="48.12974710947313" lon="2.6222544119115003"><ele>92.0</ele><time>2026-04-08T17:55:57.999Z</time></trkpt><trkpt lat="48.129696937474996" lon="2.62215039447154"><ele>92.0</ele><time>2026-04-08T17:55:58.999Z</time></trkpt><trkpt lat="48.12965102367357" lon="2.6220611499046287"><ele>92.0</ele><time>2026-04-08T17:55:59.999Z</time></trkpt><trkpt lat="48.12960214657891" lon="2.6219557190711504"><ele>92.0</ele><time>2026-04-08T17:56:01.999Z</time></trkpt><trkpt lat="48.129667398988154" lon="2.6218161356262923"><ele>92.0</ele><time>2026-04-08T17:56:04.999Z</time></trkpt><trkpt lat="48.12975637465152" lon="2.621736775483905"><ele>92.0</ele><time>2026-04-08T17:56:05.999Z</time></trkpt><trkpt lat="48.12986665864725" lon="2.6216169288000857"><ele>92.33333333333334</ele><time>2026-04-08T17:56:06.999Z</time></trkpt><trkpt lat="48.13001032709434" lon="2.6214738758244645"><ele>92.66666666666667</ele><time>2026-04-08T17:56:07.999Z</time></trkpt><trkpt lat="48.13018952936544" lon="2.621312242068641"><ele>93.0</ele><time>2026-04-08T17:56:08.999Z</time></trkpt><trkpt lat="48.13038507984357" lon="2.621150189395631"><ele>93.33333333333333</ele><time>2026-04-08T17:56:09.999Z</time></trkpt><trkpt lat="48.1305533146906" lon="2.62096112784971"><ele>93.66666666666666</ele><time>2026-04-08T17:56:10.999Z</time></trkpt><trkpt lat="48.13070144144078" lon="2.6207989317464384"><ele>94.0</ele><time>2026-04-08T17:56:11.999Z</time></trkpt><trkpt lat="48.13083008055685" lon="2.6206723783045995"><ele>94.75</ele><time>2026-04-08T17:56:12.999Z</time></trkpt><trkpt lat="48.13093369495073" lon="2.620546824859257"><ele>95.5</ele><time>2026-04-08T17:56:13.999Z</time></trkpt><trkpt lat="48.1310365053799" lon="2.6204573489791065"><ele>96.25</ele><time>2026-04-08T17:56:14.999Z</time></trkpt><trkpt lat="48.13113151046854" lon="2.6203823116307468"><ele>97.0</ele><time>2026-04-08T17:56:15.999Z</time></trkpt><trkpt lat="48.13125208993615" lon="2.6203368832090446"><ele>97.0</ele><time>2026-04-08T17:56:16.999Z</time></trkpt><trkpt lat="48.13137056795991" lon="2.6203196033862017"><ele>97.0</ele><time>2026-04-08T17:56:17.999Z</time></trkpt><trkpt lat="48.131500011944354" lon="2.6202992494604085"><ele>97.0</ele><time>2026-04-08T17:56:18.999Z</time></trkpt><trkpt lat="48.1316246182174" lon="2.620272248483024"><ele>97.0</ele><time>2026-04-08T17:56:19.999Z</time></trkpt><trkpt lat="48.131755715830806" lon="2.620239467094596"><ele>96.33333333333334</ele><time>2026-04-08T17:56:20.999Z</time></trkpt><trkpt lat="48.13191717309965" lon="2.6202013266860003"><ele>95.66666666666667</ele><time>2026-04-08T17:56:21.999Z</time></trkpt><trkpt lat="48.132103657379574" lon="2.6201678215082573"><ele>95.0</ele><time>2026-04-08T17:56:22.999Z</time></trkpt><trkpt lat="48.13231589027013" lon="2.6201246705421855"><ele>94.5</ele><time>2026-04-08T17:56:23.999Z</time></trkpt><trkpt lat="48.13257807776796" lon="2.620067423894393"><ele>94.0</ele><time>2026-04-08T17:56:24.999Z</time></trkpt><trkpt lat="48.132832021876716" lon="2.6200131730532905"><ele>94.0</ele><time>2026-04-08T17:56:25.999Z</time></trkpt><trkpt lat="48.13305798474648" lon="2.6199557793555885"><ele>94.0</ele><time>2026-04-08T17:56:26.999Z</time></trkpt><trkpt lat="48.13328425434275" lon="2.619904038712956"><ele>94.5</ele><time>2026-04-08T17:56:27.999Z</time></trkpt><trkpt lat="48.13352269823676" lon="2.61984267518277"><ele>95.0</ele><time>2026-04-08T17:56:28.999Z</time></trkpt><trkpt lat="48.13374253204539" lon="2.619794046990375"><ele>95.0</ele><time>2026-04-08T17:56:29.999Z</time></trkpt><trkpt lat="48.13395290502958" lon="2.6197605749995323"><ele>95.0</ele><time>2026-04-08T17:56:30.999Z</time></trkpt><trkpt lat="48.1341659803773" lon="2.619714910464461"><ele>95.0</ele><time>2026-04-08T17:56:31.999Z</time></trkpt><trkpt lat="48.1343824547429" lon="2.6196561247357777"><ele>95.0</ele><time>2026-04-08T17:56:33.001Z</time></trkpt><trkpt lat="48.13458323546018" lon="2.619626499594221"><ele>95.0</ele><time>2026-04-08T17:56:34.001Z</time></trkpt><trkpt lat="48.134756358613586" lon="2.619588995619258"><ele>95.0</ele><time>2026-04-08T17:56:35.001Z</time></trkpt><trkpt lat="48.13491917283865" lon="2.6195496176385222"><ele>95.0</ele><time>2026-04-08T17:56:36.001Z</time></trkpt><trkpt lat="48.13506485717448" lon="2.6195150663199924"><ele>95.0</ele><time>2026-04-08T17:56:37.001Z</time></trkpt><trkpt lat="48.135203834090134" lon="2.6194855900217746"><ele>95.0</ele><time>2026-04-08T17:56:38.001Z</time></trkpt><trkpt lat="48.13536081249485" lon="2.619451223066582"><ele>95.0</ele><time>2026-04-08T17:56:39.001Z</time></trkpt><trkpt lat="48.13554643512849" lon="2.6194169269798553"><ele>94.66666666666667</ele><time>2026-04-08T17:56:40.001Z</time></trkpt><trkpt lat="48.13575228831662" lon="2.6193740836898325"><ele>94.33333333333333</ele><time>2026-04-08T17:56:41.001Z</time></trkpt><trkpt lat="48.135926574983756" lon="2.6193354341109827"><ele>94.0</ele><time>2026-04-08T17:56:42.001Z</time></trkpt><trkpt lat="48.13606507123367" lon="2.6193038620505833"><ele>94.0</ele><time>2026-04-08T17:56:43.001Z</time></trkpt><trkpt lat="48.13617812523409" lon="2.6192845933024356"><ele>94.0</ele><time>2026-04-08T17:56:44.001Z</time></trkpt><trkpt lat="48.13624779131276" lon="2.6192647791036023"><ele>94.0</ele><time>2026-04-08T17:56:45.001Z</time></trkpt><trkpt lat="48.1362836124854" lon="2.619131702013374"><ele>94.0</ele><time>2026-04-08T17:56:53Z</time></trkpt><trkpt lat="48.136286753448516" lon="2.619026614129599"><ele>94.0</ele><time>2026-04-08T17:56:54Z</time></trkpt><trkpt lat="48.13627792670308" lon="2.618900499230031"><ele>94.0</ele><time>2026-04-08T17:56:55Z</time></trkpt><trkpt lat="48.13626762041125" lon="2.6187891466251942"><ele>94.0</ele><time>2026-04-08T17:56:56Z</time></trkpt><trkpt lat="48.13624986286387" lon="2.618664303809199"><ele>94.0</ele><time>2026-04-08T17:56:57Z</time></trkpt><trkpt lat="48.1362340464736" lon="2.618515252178773"><ele>94.0</ele><time>2026-04-08T17:56:58Z</time></trkpt><trkpt lat="48.136228075956765" lon="2.6183969875509496"><ele>94.0</ele><time>2026-04-08T17:56:59Z</time></trkpt><trkpt lat="48.136268187706754" lon="2.618251293828655"><ele>94.0</ele><time>2026-04-08T17:57:01Z</time></trkpt><trkpt lat="48.136358837487634" lon="2.618246220157009"><ele>94.33333333333333</ele><time>2026-04-08T17:57:02Z</time></trkpt><trkpt lat="48.13647786034508" lon="2.6182465298399937"><ele>94.66666666666667</ele><time>2026-04-08T17:57:03Z</time></trkpt><trkpt lat="48.13663793366965" lon="2.6182543159655673"><ele>95.0</ele><time>2026-04-08T17:57:04Z</time></trkpt><trkpt lat="48.136823559224226" lon="2.61825667003493"><ele>94.33333333333334</ele><time>2026-04-08T17:57:05Z</time></trkpt><trkpt lat="48.137011554469474" lon="2.6182651790666207"><ele>93.66666666666667</ele><time>2026-04-08T17:57:06Z</time></trkpt><trkpt lat="48.13718619226843" lon="2.618273622553569"><ele>93.0</ele><time>2026-04-08T17:57:07Z</time></trkpt><trkpt lat="48.13734359134802" lon="2.618253582446949"><ele>93.0</ele><time>2026-04-08T17:57:08Z</time></trkpt><trkpt lat="48.13751145271742" lon="2.618253012908823"><ele>93.0</ele><time>2026-04-08T17:57:09Z</time></trkpt><trkpt lat="48.13768563263082" lon="2.6182542588799396"><ele>93.0</ele><time>2026-04-08T17:57:10Z</time></trkpt><trkpt lat="48.137854485695335" lon="2.6182534832568143"><ele>93.0</ele><time>2026-04-08T17:57:11Z</time></trkpt><trkpt lat="48.138027722164175" lon="2.6182558523231703"><ele>93.0</ele><time>2026-04-08T17:57:12Z</time></trkpt><trkpt lat="48.13818836048335" lon="2.6182624796338687"><ele>93.0</ele><time>2026-04-08T17:57:13Z</time></trkpt><trkpt lat="48.13833276980483" lon="2.618264003209275"><ele>92.75</ele><time>2026-04-08T17:57:14Z</time></trkpt><trkpt lat="48.13846079761245" lon="2.618268397915843"><ele>92.5</ele><time>2026-04-08T17:57:15Z</time></trkpt><trkpt lat="48.13857985992906" lon="2.618272345688267"><ele>92.25</ele><time>2026-04-08T17:57:16Z</time></trkpt><trkpt lat="48.138693447154985" lon="2.6182738460113164"><ele>92.0</ele><time>2026-04-08T17:57:17Z</time></trkpt><trkpt lat="48.13881769319724" lon="2.6182611896406853"><ele>92.0</ele><time>2026-04-08T17:57:18Z</time></trkpt><trkpt lat="48.1389428916214" lon="2.618255820871266"><ele>92.0</ele><time>2026-04-08T17:57:19Z</time></trkpt><trkpt lat="48.13907833628234" lon="2.61824742978421"><ele>92.0</ele><time>2026-04-08T17:57:20Z</time></trkpt><trkpt lat="48.13920797760553" lon="2.618254109090695"><ele>92.0</ele><time>2026-04-08T17:57:21Z</time></trkpt><trkpt lat="48.13932969074919" lon="2.6182560365112537"><ele>91.39999999999999</ele><time>2026-04-08T17:57:22Z</time></trkpt><trkpt lat="48.13944135791689" lon="2.6182582688144844"><ele>90.8</ele><time>2026-04-08T17:57:23Z</time></trkpt><trkpt lat="48.139536649799524" lon="2.6182660813623646"><ele>90.2</ele><time>2026-04-08T17:57:24Z</time></trkpt><trkpt lat="48.139626897477385" lon="2.618259531197346"><ele>89.6</ele><time>2026-04-08T17:57:25Z</time></trkpt><trkpt lat="48.139721685860266" lon="2.6182490520095043"><ele>89.0</ele><time>2026-04-08T17:57:26Z</time></trkpt><trkpt lat="48.13980330247459" lon="2.6182497221135113"><ele>89.16666666666667</ele><time>2026-04-08T17:57:27Z</time></trkpt><trkpt lat="48.139920422768455" lon="2.6182588286050654"><ele>89.33333333333334</ele><time>2026-04-08T17:57:28.999Z</time></trkpt><trkpt lat="48.13999350617358" lon="2.6182247004044106"><ele>89.5</ele><time>2026-04-08T17:57:31.999Z</time></trkpt><trkpt lat="48.140028090634466" lon="2.618114429364261"><ele>89.66666666666667</ele><time>2026-04-08T17:57:33.999Z</time></trkpt><trkpt lat="48.140043564051254" lon="2.6180087499625166"><ele>89.83333333333333</ele><time>2026-04-08T17:57:36.999Z</time></trkpt><trkpt lat="48.14004541197851" lon="2.6178754116367915"><ele>90.0</ele><time>2026-04-08T17:57:39.999Z</time></trkpt><trkpt lat="48.140069134524694" lon="2.6174719470464614"><ele>90.0</ele><time>2026-04-08T17:57:40.999Z</time></trkpt><trkpt lat="48.1400608573149" lon="2.6173316644339897"><ele>90.0</ele><time>2026-04-08T17:57:41.999Z</time></trkpt><trkpt lat="48.14005448195721" lon="2.6172021012296933"><ele>90.0</ele><time>2026-04-08T17:57:42.999Z</time></trkpt><trkpt lat="48.14004467518834" lon="2.617046412012843"><ele>90.0</ele><time>2026-04-08T17:57:43.999Z</time></trkpt><trkpt lat="48.140042899154125" lon="2.616920778302382"><ele>90.0</ele><time>2026-04-08T17:57:44.999Z</time></trkpt><trkpt lat="48.14004873679371" lon="2.616783568638164"><ele>90.0</ele><time>2026-04-08T17:57:45.999Z</time></trkpt><trkpt lat="48.140049562766414" lon="2.6166604351554734"><ele>90.0</ele><time>2026-04-08T17:57:46.999Z</time></trkpt><trkpt lat="48.140048922750196" lon="2.6165388160406473"><ele>90.0</ele><time>2026-04-08T17:57:47.999Z</time></trkpt><trkpt lat="48.14004946978187" lon="2.616419827577935"><ele>90.0</ele><time>2026-04-08T17:57:48.999Z</time></trkpt><trkpt lat="48.14004770958224" lon="2.6162966974357613"><ele>90.0</ele><time>2026-04-08T17:57:49.999Z</time></trkpt><trkpt lat="48.1400579171262" lon="2.616170227687312"><ele>90.0</ele><time>2026-04-08T17:57:50.999Z</time></trkpt><trkpt lat="48.14005807597444" lon="2.6160480780152544"><ele>90.2</ele><time>2026-04-08T17:57:51.999Z</time></trkpt><trkpt lat="48.14006263893245" lon="2.615899463436953"><ele>90.4</ele><time>2026-04-08T17:57:52.999Z</time></trkpt><trkpt lat="48.140067705435165" lon="2.615766589864412"><ele>90.6</ele><time>2026-04-08T17:57:53.999Z</time></trkpt><trkpt lat="48.14006017947049" lon="2.6156255446875196"><ele>90.8</ele><time>2026-04-08T17:57:54.999Z</time></trkpt><trkpt lat="48.14005954675305" lon="2.6154811254456534"><ele>91.0</ele><time>2026-04-08T17:57:55.999Z</time></trkpt><trkpt lat="48.14005678522571" lon="2.615325720601212"><ele>90.8</ele><time>2026-04-08T17:57:56.999Z</time></trkpt><trkpt lat="48.1400628830536" lon="2.615171719346953"><ele>90.6</ele><time>2026-04-08T17:57:57.999Z</time></trkpt><trkpt lat="48.14005199913256" lon="2.615021086553944"><ele>90.4</ele><time>2026-04-08T17:57:58.999Z</time></trkpt><trkpt lat="48.1400578462093" lon="2.614864951444518"><ele>90.2</ele><time>2026-04-08T17:57:59.999Z</time></trkpt><trkpt lat="48.14005813012525" lon="2.614710667057794"><ele>90.0</ele><time>2026-04-08T17:58:00.999Z</time></trkpt><trkpt lat="48.14005758162959" lon="2.6145615593305176"><ele>89.8</ele><time>2026-04-08T17:58:01.999Z</time></trkpt><trkpt lat="48.14005864376848" lon="2.6144025346152557"><ele>89.6</ele><time>2026-04-08T17:58:02.999Z</time></trkpt><trkpt lat="48.14006100313706" lon="2.6142364617777756"><ele>89.4</ele><time>2026-04-08T17:58:03.999Z</time></trkpt><trkpt lat="48.140062960013886" lon="2.614073939192107"><ele>89.2</ele><time>2026-04-08T17:58:04.999Z</time></trkpt><trkpt lat="48.1400680444855" lon="2.6139225827210653"><ele>89.0</ele><time>2026-04-08T17:58:05.999Z</time></trkpt><trkpt lat="48.14007673288646" lon="2.613769335971606"><ele>89.2</ele><time>2026-04-08T17:58:06.999Z</time></trkpt><trkpt lat="48.140080733654486" lon="2.6136175509455732"><ele>89.4</ele><time>2026-04-08T17:58:07.999Z</time></trkpt><trkpt lat="48.140086372705625" lon="2.613460716563497"><ele>89.6</ele><time>2026-04-08T17:58:08.999Z</time></trkpt><trkpt lat="48.14008646528683" lon="2.6132980696217905"><ele>89.8</ele><time>2026-04-08T17:58:09.999Z</time></trkpt><trkpt lat="48.14008889066656" lon="2.6131404330561407"><ele>90.0</ele><time>2026-04-08T17:58:10.999Z</time></trkpt><trkpt lat="48.14009510738812" lon="2.612993136413965"><ele>90.0</ele><time>2026-04-08T17:58:11.999Z</time></trkpt><trkpt lat="48.14009480059862" lon="2.6128472099904716"><ele>90.0</ele><time>2026-04-08T17:58:12.999Z</time></trkpt><trkpt lat="48.14009548419009" lon="2.612703038169079"><ele>90.0</ele><time>2026-04-08T17:58:13.999Z</time></trkpt><trkpt lat="48.140096405881096" lon="2.6125526034347146"><ele>90.0</ele><time>2026-04-08T17:58:14.999Z</time></trkpt><trkpt lat="48.14010088350108" lon="2.6123969761675103"><ele>90.0</ele><time>2026-04-08T17:58:15.999Z</time></trkpt><trkpt lat="48.14010427604636" lon="2.6122264451100508"><ele>90.0</ele><time>2026-04-08T17:58:16.999Z</time></trkpt><trkpt lat="48.14010420071282" lon="2.612056419558932"><ele>90.0</ele><time>2026-04-08T17:58:17.999Z</time></trkpt><trkpt lat="48.14010182836802" lon="2.6118868118545993"><ele>90.0</ele><time>2026-04-08T17:58:18.999Z</time></trkpt><trkpt lat="48.140103965951674" lon="2.611731368431409"><ele>90.0</ele><time>2026-04-08T17:58:19.999Z</time></trkpt><trkpt lat="48.14010453977653" lon="2.6115823406947474"><ele>90.0</ele><time>2026-04-08T17:58:20.999Z</time></trkpt><trkpt lat="48.14011653570085" lon="2.611458865872342"><ele>90.33333333333333</ele><time>2026-04-08T17:58:21.999Z</time></trkpt><trkpt lat="48.140118338587214" lon="2.6113337541313286"><ele>90.66666666666667</ele><time>2026-04-08T17:58:22.999Z</time></trkpt><trkpt lat="48.14012238678018" lon="2.6112071523616764"><ele>91.0</ele><time>2026-04-08T17:58:23.998Z</time></trkpt><trkpt lat="48.14013146495602" lon="2.6110955496403556"><ele>91.33333333333334</ele><time>2026-04-08T17:58:24.998Z</time></trkpt><trkpt lat="48.14013615379505" lon="2.610985923017309"><ele>91.66666666666667</ele><time>2026-04-08T17:58:25.998Z</time></trkpt><trkpt lat="48.14013928489725" lon="2.610823651894069"><ele>92.0</ele><time>2026-04-08T17:58:27.998Z</time></trkpt><trkpt lat="48.14013669396733" lon="2.6107274946214223"><ele>92.28571428571429</ele><time>2026-04-08T17:58:28.998Z</time></trkpt><trkpt lat="48.140137764050124" lon="2.610618626007467"><ele>92.57142857142857</ele><time>2026-04-08T17:58:29.998Z</time></trkpt><trkpt lat="48.140132290431545" lon="2.610508047359424"><ele>92.85714285714286</ele><time>2026-04-08T17:58:30.998Z</time></trkpt><trkpt lat="48.140144249987515" lon="2.610381012948592"><ele>93.14285714285714</ele><time>2026-04-08T17:58:31.998Z</time></trkpt><trkpt lat="48.14014595428929" lon="2.610268670816484"><ele>93.42857142857142</ele><time>2026-04-08T17:58:32.998Z</time></trkpt><trkpt lat="48.140146859641064" lon="2.6101601217321844"><ele>93.71428571428571</ele><time>2026-04-08T17:58:33.998Z</time></trkpt><trkpt lat="48.140151323549645" lon="2.6100640334836354"><ele>94.0</ele><time>2026-04-08T17:58:34.998Z</time></trkpt><trkpt lat="48.14015835768137" lon="2.609949055684373"><ele>94.25</ele><time>2026-04-08T17:58:36.998Z</time></trkpt><trkpt lat="48.140182702204484" lon="2.6098443218620133"><ele>94.5</ele><time>2026-04-08T17:59:01Z</time></trkpt><trkpt lat="48.140293790415235" lon="2.6098664046858304"><ele>94.75</ele><time>2026-04-08T17:59:47.999Z</time></trkpt><trkpt lat="48.14049120517716" lon="2.6098662263382857"><ele>95.0</ele><time>2026-04-08T17:59:51.999Z</time></trkpt><trkpt lat="48.140556931932885" lon="2.6099293452588066"><ele>95.0</ele><time>2026-04-08T18:00:01.999Z</time></trkpt><trkpt lat="48.140519507984685" lon="2.6098443513253544"><ele>95.0</ele><time>2026-04-08T18:00:43.998Z</time></trkpt><trkpt lat="48.14044566186421" lon="2.6098815115076457"><ele>95.0</ele><time>2026-04-08T18:02:18.999Z</time></trkpt><trkpt lat="48.140379169388744" lon="2.6099111614996775"><ele>95.0</ele><time>2026-04-08T18:02:27.998Z</time></trkpt><trkpt lat="48.14030627772579" lon="2.609891943783894"><ele>95.0</ele><time>2026-04-08T18:02:36.998Z</time></trkpt><trkpt lat="48.14025863077273" lon="2.609966275177462"><ele>95.0</ele><time>2026-04-08T18:02:43.998Z</time></trkpt><trkpt lat="48.14029467732001" lon="2.6098861497870236"><ele>95.0</ele><time>2026-04-08T18:02:47.998Z</time></trkpt><trkpt lat="48.14024038144455" lon="2.6098374540316627"><ele>95.0</ele><time>2026-04-08T18:02:56Z</time></trkpt><trkpt lat="48.14022103524413" lon="2.6099431672052917"><ele>95.0</ele><time>2026-04-08T18:04:03.999Z</time></trkpt><trkpt lat="48.14020447473534" lon="2.6100370577947487"><ele>95.0</ele><time>2026-04-08T18:06:16.999Z</time></trkpt></trkseg></trk></gpx>